<?xml version="1.0" encoding="UTF-8"?>
<gpx version="1.1" creator="Garmin Connect"
  xsi:schemaLocation="http://www.topografix.com/GPX/1/1 http://www.topografix.com/GPX/1/1/gpx.xsd http://www.garmin.com/xmlschemas/GpxExtensions/v3 http://www.garmin.com/xmlschemas/GpxExtensionsv3.xsd http://www.garmin.com/xmlschemas/TrackPointExtension/v1 http://www.garmin.com/xmlschemas/TrackPointExtensionv1.xsd"
  xmlns="http://www.topografix.com/GPX/1/1"
  xmlns:gpxtpx="http://www.garmin.com/xmlschemas/TrackPointExtension/v1"
  xmlns:gpxx="http://www.garmin.com/xmlschemas/GpxExtensions/v3" xmlns:xsi="http://www.w3.org/2001/XMLSchema-instance">
  <metadata>
    <link href="connect.garmin.com">
      <text>Garmin Connect</text>
    </link>
    <time>2013-04-10T13:53:24.000Z</time>
  </metadata>
  <trk>
    <name>BEX -SALVAN </name>
    <trkseg>
      <trkpt lon="7.012247974053025" lat="46.245787935331464">
        <ele>433.20001220703125</ele>
        <time>2013-04-10T13:53:24.000Z</time>
      </trkpt>
      <trkpt lon="7.012128951027989" lat="46.24571995809674">
        <ele>432.79998779296875</ele>
        <time>2013-04-10T13:53:34.000Z</time>
      </trkpt>
      <trkpt lon="7.011965923011303" lat="46.24558391980827">
        <ele>432.3999938964844</ele>
        <time>2013-04-10T13:53:39.000Z</time>
      </trkpt>
      <trkpt lon="7.01176593080163" lat="46.24545098282397">
        <ele>431.79998779296875</ele>
        <time>2013-04-10T13:53:45.000Z</time>
      </trkpt>
      <trkpt lon="7.011840948835015" lat="46.24519994482398">
        <ele>432.6000061035156</ele>
        <time>2013-04-10T13:53:51.000Z</time>
      </trkpt>
      <trkpt lon="7.012040941044688" lat="46.24483692459762">
        <ele>433.6000061035156</ele>
        <time>2013-04-10T13:53:59.000Z</time>
      </trkpt>
      <trkpt lon="7.0122249238193035" lat="46.24448798596859">
        <ele>433.20001220703125</ele>
        <time>2013-04-10T13:54:07.000Z</time>
      </trkpt>
      <trkpt lon="7.012704955413938" lat="46.2444769218564">
        <ele>435.20001220703125</ele>
        <time>2013-04-10T13:54:12.000Z</time>
      </trkpt>
      <trkpt lon="7.012965967878699" lat="46.24418296851218">
        <ele>435.20001220703125</ele>
        <time>2013-04-10T13:54:20.000Z</time>
      </trkpt>
      <trkpt lon="7.013149950653315" lat="46.244008960202336">
        <ele>435.0</ele>
        <time>2013-04-10T13:54:25.000Z</time>
      </trkpt>
      <trkpt lon="7.013374920934439" lat="46.2438209541142">
        <ele>434.3999938964844</ele>
        <time>2013-04-10T13:54:28.000Z</time>
      </trkpt>
      <trkpt lon="7.013057917356491" lat="46.24351694248617">
        <ele>431.20001220703125</ele>
        <time>2013-04-10T13:54:31.000Z</time>
      </trkpt>
      <trkpt lon="7.012826995924115" lat="46.243422981351614">
        <ele>429.6000061035156</ele>
        <time>2013-04-10T13:54:34.000Z</time>
      </trkpt>
      <trkpt lon="7.012737980112433" lat="46.2433909624815">
        <ele>429.20001220703125</ele>
        <time>2013-04-10T13:54:35.000Z</time>
      </trkpt>
      <trkpt lon="7.011955948546529" lat="46.24306398443878">
        <ele>427.79998779296875</ele>
        <time>2013-04-10T13:54:43.000Z</time>
      </trkpt>
      <trkpt lon="7.011202918365598" lat="46.24276994727552">
        <ele>427.6000061035156</ele>
        <time>2013-04-10T13:54:51.000Z</time>
      </trkpt>
      <trkpt lon="7.010941989719868" lat="46.24267799779773">
        <ele>427.79998779296875</ele>
        <time>2013-04-10T13:54:54.000Z</time>
      </trkpt>
      <trkpt lon="7.010715929791331" lat="46.242605997249484">
        <ele>427.6000061035156</ele>
        <time>2013-04-10T13:54:57.000Z</time>
      </trkpt>
      <trkpt lon="7.011181963607669" lat="46.24264094978571">
        <ele>427.6000061035156</ele>
        <time>2013-04-10T13:54:59.000Z</time>
      </trkpt>
      <trkpt lon="7.011601980775595" lat="46.24230592511594">
        <ele>427.0</ele>
        <time>2013-04-10T13:55:05.000Z</time>
      </trkpt>
      <trkpt lon="7.011985955759883" lat="46.241943994536996">
        <ele>427.3999938964844</ele>
        <time>2013-04-10T13:55:11.000Z</time>
      </trkpt>
      <trkpt lon="7.012165999040008" lat="46.24162699095905">
        <ele>427.79998779296875</ele>
        <time>2013-04-10T13:55:16.000Z</time>
      </trkpt>
      <trkpt lon="7.012161975726485" lat="46.24149799346924">
        <ele>428.6000061035156</ele>
        <time>2013-04-10T13:55:18.000Z</time>
      </trkpt>
      <trkpt lon="7.012126939371228" lat="46.241256929934025">
        <ele>430.20001220703125</ele>
        <time>2013-04-10T13:55:22.000Z</time>
      </trkpt>
      <trkpt lon="7.011921918019652" lat="46.24095895327628">
        <ele>432.0</ele>
        <time>2013-04-10T13:55:28.000Z</time>
      </trkpt>
      <trkpt lon="7.011630982160568" lat="46.240871949121356">
        <ele>432.3999938964844</ele>
        <time>2013-04-10T13:55:32.000Z</time>
      </trkpt>
      <trkpt lon="7.011302998289466" lat="46.240697940811515">
        <ele>433.20001220703125</ele>
        <time>2013-04-10T13:55:37.000Z</time>
      </trkpt>
      <trkpt lon="7.011321941390634" lat="46.240525944158435">
        <ele>436.20001220703125</ele>
        <time>2013-04-10T13:55:40.000Z</time>
      </trkpt>
      <trkpt lon="7.0113779325038195" lat="46.240243976935744">
        <ele>441.79998779296875</ele>
        <time>2013-04-10T13:55:45.000Z</time>
      </trkpt>
      <trkpt lon="7.011251952499151" lat="46.24011095613241">
        <ele>443.0</ele>
        <time>2013-04-10T13:55:49.000Z</time>
      </trkpt>
      <trkpt lon="7.011113986372948" lat="46.240064939484">
        <ele>442.6000061035156</ele>
        <time>2013-04-10T13:55:52.000Z</time>
      </trkpt>
      <trkpt lon="7.010739985853434" lat="46.239941976964474">
        <ele>442.20001220703125</ele>
        <time>2013-04-10T13:56:01.000Z</time>
      </trkpt>
      <trkpt lon="7.010619957000017" lat="46.23977995477617">
        <ele>446.79998779296875</ele>
        <time>2013-04-10T13:56:07.000Z</time>
      </trkpt>
      <trkpt lon="7.010556925088167" lat="46.239623967558146">
        <ele>451.6000061035156</ele>
        <time>2013-04-10T13:56:13.000Z</time>
      </trkpt>
      <trkpt lon="7.010426921769977" lat="46.23953092843294">
        <ele>453.6000061035156</ele>
        <time>2013-04-10T13:56:19.000Z</time>
      </trkpt>
      <trkpt lon="7.010315945371985" lat="46.23947694897652">
        <ele>454.6000061035156</ele>
        <time>2013-04-10T13:56:24.000Z</time>
      </trkpt>
      <trkpt lon="7.010062979534268" lat="46.239387933164835">
        <ele>455.3999938964844</ele>
        <time>2013-04-10T13:56:31.000Z</time>
      </trkpt>
      <trkpt lon="7.009833985939622" lat="46.23931492678821">
        <ele>456.79998779296875</ele>
        <time>2013-04-10T13:56:38.000Z</time>
      </trkpt>
      <trkpt lon="7.009597951546311" lat="46.23923194594681">
        <ele>458.79998779296875</ele>
        <time>2013-04-10T13:56:46.000Z</time>
      </trkpt>
      <trkpt lon="7.009405922144651" lat="46.23915893957019">
        <ele>460.6000061035156</ele>
        <time>2013-04-10T13:56:53.000Z</time>
      </trkpt>
      <trkpt lon="7.009312966838479" lat="46.239124992862344">
        <ele>461.20001220703125</ele>
        <time>2013-04-10T13:56:58.000Z</time>
      </trkpt>
      <trkpt lon="7.00920794159174" lat="46.239084927365184">
        <ele>461.6000061035156</ele>
        <time>2013-04-10T13:57:05.000Z</time>
      </trkpt>
      <trkpt lon="7.009040974080563" lat="46.239022985100746">
        <ele>462.20001220703125</ele>
        <time>2013-04-10T13:57:13.000Z</time>
      </trkpt>
      <trkpt lon="7.008877946063876" lat="46.23896095901728">
        <ele>462.79998779296875</ele>
        <time>2013-04-10T13:57:20.000Z</time>
      </trkpt>
      <trkpt lon="7.008730927482247" lat="46.23890597373247">
        <ele>463.6000061035156</ele>
        <time>2013-04-10T13:57:27.000Z</time>
      </trkpt>
      <trkpt lon="7.008535964414477" lat="46.23888191767037">
        <ele>463.3999938964844</ele>
        <time>2013-04-10T13:57:35.000Z</time>
      </trkpt>
      <trkpt lon="7.008334966376424" lat="46.23887596651912">
        <ele>463.0</ele>
        <time>2013-04-10T13:57:42.000Z</time>
      </trkpt>
      <trkpt lon="7.008243938907981" lat="46.23890094459057">
        <ele>462.20001220703125</ele>
        <time>2013-04-10T13:57:46.000Z</time>
      </trkpt>
      <trkpt lon="7.008018968626857" lat="46.23887898400426">
        <ele>462.79998779296875</ele>
        <time>2013-04-10T13:57:53.000Z</time>
      </trkpt>
      <trkpt lon="7.007933976128697" lat="46.23877597041428">
        <ele>465.3999938964844</ele>
        <time>2013-04-10T13:58:00.000Z</time>
      </trkpt>
      <trkpt lon="7.007853928953409" lat="46.23865099623799">
        <ele>468.6000061035156</ele>
        <time>2013-04-10T13:58:07.000Z</time>
      </trkpt>
      <trkpt lon="7.0077769830822945" lat="46.2384969368577">
        <ele>472.3999938964844</ele>
        <time>2013-04-10T13:58:15.000Z</time>
      </trkpt>
      <trkpt lon="7.007722919806838" lat="46.23838897794485">
        <ele>475.0</ele>
        <time>2013-04-10T13:58:21.000Z</time>
      </trkpt>
      <trkpt lon="7.007654942572117" lat="46.23828194104135">
        <ele>477.0</ele>
        <time>2013-04-10T13:58:27.000Z</time>
      </trkpt>
      <trkpt lon="7.007534997537732" lat="46.23817197047174">
        <ele>478.20001220703125</ele>
        <time>2013-04-10T13:58:33.000Z</time>
      </trkpt>
      <trkpt lon="7.007368952035904" lat="46.238096952438354">
        <ele>479.0</ele>
        <time>2013-04-10T13:58:39.000Z</time>
      </trkpt>
      <trkpt lon="7.007176922634244" lat="46.238055964931846">
        <ele>479.20001220703125</ele>
        <time>2013-04-10T13:58:46.000Z</time>
      </trkpt>
      <trkpt lon="7.006961926817894" lat="46.23800198547542">
        <ele>479.6000061035156</ele>
        <time>2013-04-10T13:58:53.000Z</time>
      </trkpt>
      <trkpt lon="7.0069599989801645" lat="46.237948928028345">
        <ele>480.3999938964844</ele>
        <time>2013-04-10T13:58:57.000Z</time>
      </trkpt>
      <trkpt lon="7.006960920989513" lat="46.23793493025005">
        <ele>480.6000061035156</ele>
        <time>2013-04-10T13:58:59.000Z</time>
      </trkpt>
      <trkpt lon="7.007021941244602" lat="46.23789394274354">
        <ele>481.3999938964844</ele>
        <time>2013-04-10T13:59:06.000Z</time>
      </trkpt>
      <trkpt lon="7.007257975637913" lat="46.23789394274354">
        <ele>481.79998779296875</ele>
        <time>2013-04-10T13:59:13.000Z</time>
      </trkpt>
      <trkpt lon="7.007480934262276" lat="46.23789997771382">
        <ele>482.20001220703125</ele>
        <time>2013-04-10T13:59:21.000Z</time>
      </trkpt>
      <trkpt lon="7.007691990584135" lat="46.237944988533854">
        <ele>481.6000061035156</ele>
        <time>2013-04-10T13:59:28.000Z</time>
      </trkpt>
      <trkpt lon="7.007951997220516" lat="46.237989999353886">
        <ele>481.20001220703125</ele>
        <time>2013-04-10T13:59:37.000Z</time>
      </trkpt>
      <trkpt lon="7.0081589464098215" lat="46.23797994107008">
        <ele>481.6000061035156</ele>
        <time>2013-04-10T13:59:44.000Z</time>
      </trkpt>
      <trkpt lon="7.0083689969033" lat="46.237903917208314">
        <ele>482.6000061035156</ele>
        <time>2013-04-10T13:59:51.000Z</time>
      </trkpt>
      <trkpt lon="7.008573934435844" lat="46.2378129735589">
        <ele>483.3999938964844</ele>
        <time>2013-04-10T13:59:59.000Z</time>
      </trkpt>
      <trkpt lon="7.008796976879239" lat="46.2377059366554">
        <ele>484.6000061035156</ele>
        <time>2013-04-10T14:00:07.000Z</time>
      </trkpt>
      <trkpt lon="7.008979953825474" lat="46.23754693195224">
        <ele>486.3999938964844</ele>
        <time>2013-04-10T14:00:16.000Z</time>
      </trkpt>
      <trkpt lon="7.009144993498921" lat="46.23735196888447">
        <ele>488.6000061035156</ele>
        <time>2013-04-10T14:00:26.000Z</time>
      </trkpt>
      <trkpt lon="7.009298969060183" lat="46.237130938097835">
        <ele>491.6000061035156</ele>
        <time>2013-04-10T14:00:37.000Z</time>
      </trkpt>
      <trkpt lon="7.009441964328289" lat="46.23694393783808">
        <ele>494.3999938964844</ele>
        <time>2013-04-10T14:00:47.000Z</time>
      </trkpt>
      <trkpt lon="7.009543972089887" lat="46.23685693368316">
        <ele>495.79998779296875</ele>
        <time>2013-04-10T14:00:55.000Z</time>
      </trkpt>
      <trkpt lon="7.00933794490993" lat="46.236511934548616">
        <ele>497.6000061035156</ele>
        <time>2013-04-10T14:01:07.000Z</time>
      </trkpt>
      <trkpt lon="7.009212970733643" lat="46.23639198951423">
        <ele>497.79998779296875</ele>
        <time>2013-04-10T14:01:14.000Z</time>
      </trkpt>
      <trkpt lon="7.00903695076704" lat="46.23630397953093">
        <ele>498.20001220703125</ele>
        <time>2013-04-10T14:01:21.000Z</time>
      </trkpt>
      <trkpt lon="7.008815919980407" lat="46.23619895428419">
        <ele>499.0</ele>
        <time>2013-04-10T14:01:28.000Z</time>
      </trkpt>
      <trkpt lon="7.00847695581615" lat="46.2359999679029">
        <ele>500.20001220703125</ele>
        <time>2013-04-10T14:01:38.000Z</time>
      </trkpt>
      <trkpt lon="7.008172944188118" lat="46.23574197292328">
        <ele>501.20001220703125</ele>
        <time>2013-04-10T14:01:48.000Z</time>
      </trkpt>
      <trkpt lon="7.0079059805721045" lat="46.23551499098539">
        <ele>501.79998779296875</ele>
        <time>2013-04-10T14:01:56.000Z</time>
      </trkpt>
      <trkpt lon="7.007525945082307" lat="46.23519094660878">
        <ele>502.0</ele>
        <time>2013-04-10T14:02:08.000Z</time>
      </trkpt>
      <trkpt lon="7.007188992574811" lat="46.23490495607257">
        <ele>502.79998779296875</ele>
        <time>2013-04-10T14:02:18.000Z</time>
      </trkpt>
      <trkpt lon="7.006748942658305" lat="46.23456196859479">
        <ele>505.0</ele>
        <time>2013-04-10T14:02:29.000Z</time>
      </trkpt>
      <trkpt lon="7.006601924076676" lat="46.234423918649554">
        <ele>505.79998779296875</ele>
        <time>2013-04-10T14:02:33.000Z</time>
      </trkpt>
      <trkpt lon="7.006548950448632" lat="46.23420096002519">
        <ele>506.79998779296875</ele>
        <time>2013-04-10T14:02:39.000Z</time>
      </trkpt>
      <trkpt lon="7.006575940176845" lat="46.23412795364857">
        <ele>507.0</ele>
        <time>2013-04-10T14:02:41.000Z</time>
      </trkpt>
      <trkpt lon="7.006691945716739" lat="46.23387699946761">
        <ele>507.6000061035156</ele>
        <time>2013-04-10T14:02:49.000Z</time>
      </trkpt>
      <trkpt lon="7.006789930164814" lat="46.23366694897413">
        <ele>508.79998779296875</ele>
        <time>2013-04-10T14:02:58.000Z</time>
      </trkpt>
      <trkpt lon="7.006930997595191" lat="46.23343292623758">
        <ele>510.79998779296875</ele>
        <time>2013-04-10T14:03:09.000Z</time>
      </trkpt>
      <trkpt lon="7.007092935964465" lat="46.23332194983959">
        <ele>513.0</ele>
        <time>2013-04-10T14:03:17.000Z</time>
      </trkpt>
      <trkpt lon="7.007258981466293" lat="46.23329194262624">
        <ele>514.7999877929688</ele>
        <time>2013-04-10T14:03:23.000Z</time>
      </trkpt>
      <trkpt lon="7.00759693980217" lat="46.23325891792774">
        <ele>517.7999877929688</ele>
        <time>2013-04-10T14:03:33.000Z</time>
      </trkpt>
      <trkpt lon="7.007724931463599" lat="46.233201920986176">
        <ele>518.5999755859375</ele>
        <time>2013-04-10T14:03:38.000Z</time>
      </trkpt>
      <trkpt lon="7.007711939513683" lat="46.233112988993526">
        <ele>519.4000244140625</ele>
        <time>2013-04-10T14:03:42.000Z</time>
      </trkpt>
      <trkpt lon="7.007520999759436" lat="46.232943926006556">
        <ele>519.7999877929688</ele>
        <time>2013-04-10T14:03:50.000Z</time>
      </trkpt>
      <trkpt lon="7.00757397338748" lat="46.23279891908169">
        <ele>521.0</ele>
        <time>2013-04-10T14:03:56.000Z</time>
      </trkpt>
      <trkpt lon="7.00772694312036" lat="46.23265299014747">
        <ele>522.7999877929688</ele>
        <time>2013-04-10T14:04:03.000Z</time>
      </trkpt>
      <trkpt lon="7.007924923673272" lat="46.232487950474024">
        <ele>524.7999877929688</ele>
        <time>2013-04-10T14:04:11.000Z</time>
      </trkpt>
      <trkpt lon="7.008154923096299" lat="46.2323269341141">
        <ele>526.0</ele>
        <time>2013-04-10T14:04:20.000Z</time>
      </trkpt>
      <trkpt lon="7.008320968598127" lat="46.2321799993515">
        <ele>527.7999877929688</ele>
        <time>2013-04-10T14:04:28.000Z</time>
      </trkpt>
      <trkpt lon="7.008430939167738" lat="46.23207396827638">
        <ele>529.4000244140625</ele>
        <time>2013-04-10T14:04:34.000Z</time>
      </trkpt>
      <trkpt lon="7.008518949151039" lat="46.231930973008275">
        <ele>531.2000122070312</ele>
        <time>2013-04-10T14:04:41.000Z</time>
      </trkpt>
      <trkpt lon="7.008598996326327" lat="46.231780936941504">
        <ele>533.2000122070312</ele>
        <time>2013-04-10T14:04:48.000Z</time>
      </trkpt>
      <trkpt lon="7.008680971339345" lat="46.231653951108456">
        <ele>535.2000122070312</ele>
        <time>2013-04-10T14:04:55.000Z</time>
      </trkpt>
      <trkpt lon="7.00875791721046" lat="46.23157692141831">
        <ele>535.4000244140625</ele>
        <time>2013-04-10T14:05:00.000Z</time>
      </trkpt>
      <trkpt lon="7.00893091969192" lat="46.23144398443401">
        <ele>536.5999755859375</ele>
        <time>2013-04-10T14:05:07.000Z</time>
      </trkpt>
      <trkpt lon="7.009123954921961" lat="46.23132194392383">
        <ele>537.7999877929688</ele>
        <time>2013-04-10T14:05:14.000Z</time>
      </trkpt>
      <trkpt lon="7.009259993210435" lat="46.23120593838394">
        <ele>537.4000244140625</ele>
        <time>2013-04-10T14:05:19.000Z</time>
      </trkpt>
      <trkpt lon="7.009394941851497" lat="46.231068978086114">
        <ele>536.7999877929688</ele>
        <time>2013-04-10T14:05:24.000Z</time>
      </trkpt>
      <trkpt lon="7.0095499232411385" lat="46.230817940086126">
        <ele>535.5999755859375</ele>
        <time>2013-04-10T14:05:32.000Z</time>
      </trkpt>
      <trkpt lon="7.009653942659497" lat="46.23062892816961">
        <ele>532.2000122070312</ele>
        <time>2013-04-10T14:05:38.000Z</time>
      </trkpt>
      <trkpt lon="7.009770954027772" lat="46.230490962043405">
        <ele>530.0</ele>
        <time>2013-04-10T14:05:42.000Z</time>
      </trkpt>
      <trkpt lon="7.010079994797707" lat="46.23028392903507">
        <ele>528.0</ele>
        <time>2013-04-10T14:05:47.000Z</time>
      </trkpt>
      <trkpt lon="7.0102369878441095" lat="46.23018493875861">
        <ele>526.5999755859375</ele>
        <time>2013-04-10T14:05:49.000Z</time>
      </trkpt>
      <trkpt lon="7.010566983371973" lat="46.22990791685879">
        <ele>524.4000244140625</ele>
        <time>2013-04-10T14:05:53.000Z</time>
      </trkpt>
      <trkpt lon="7.010648958384991" lat="46.22970792464912">
        <ele>523.7999877929688</ele>
        <time>2013-04-10T14:05:55.000Z</time>
      </trkpt>
      <trkpt lon="7.010782985016704" lat="46.22920693829656">
        <ele>521.7999877929688</ele>
        <time>2013-04-10T14:06:00.000Z</time>
      </trkpt>
      <trkpt lon="7.011035950854421" lat="46.228812988847494">
        <ele>521.2000122070312</ele>
        <time>2013-04-10T14:06:05.000Z</time>
      </trkpt>
      <trkpt lon="7.011199984699488" lat="46.22847695834935">
        <ele>520.4000244140625</ele>
        <time>2013-04-10T14:06:09.000Z</time>
      </trkpt>
      <trkpt lon="7.011186992749572" lat="46.22835692949593">
        <ele>519.7999877929688</ele>
        <time>2013-04-10T14:06:11.000Z</time>
      </trkpt>
      <trkpt lon="7.011366952210665" lat="46.22840194031596">
        <ele>520.4000244140625</ele>
        <time>2013-04-10T14:06:14.000Z</time>
      </trkpt>
      <trkpt lon="7.011663923040032" lat="46.228472935035825">
        <ele>521.5999755859375</ele>
        <time>2013-04-10T14:06:23.000Z</time>
      </trkpt>
      <trkpt lon="7.0120149571448565" lat="46.228556921705604">
        <ele>525.0</ele>
        <time>2013-04-10T14:06:33.000Z</time>
      </trkpt>
      <trkpt lon="7.012222995981574" lat="46.22867393307388">
        <ele>527.4000244140625</ele>
        <time>2013-04-10T14:06:40.000Z</time>
      </trkpt>
      <trkpt lon="7.012434974312782" lat="46.22897895053029">
        <ele>530.0</ele>
        <time>2013-04-10T14:06:50.000Z</time>
      </trkpt>
      <trkpt lon="7.012601941823959" lat="46.22915195301175">
        <ele>533.0</ele>
        <time>2013-04-10T14:06:59.000Z</time>
      </trkpt>
      <trkpt lon="7.012867983430624" lat="46.22933794744313">
        <ele>537.7999877929688</ele>
        <time>2013-04-10T14:07:09.000Z</time>
      </trkpt>
      <trkpt lon="7.013092953711748" lat="46.22946493327618">
        <ele>541.5999755859375</ele>
        <time>2013-04-10T14:07:17.000Z</time>
      </trkpt>
      <trkpt lon="7.013295963406563" lat="46.229588985443115">
        <ele>544.5999755859375</ele>
        <time>2013-04-10T14:07:25.000Z</time>
      </trkpt>
      <trkpt lon="7.013496961444616" lat="46.22971496544778">
        <ele>546.2000122070312</ele>
        <time>2013-04-10T14:07:33.000Z</time>
      </trkpt>
      <trkpt lon="7.013696953654289" lat="46.22984195128083">
        <ele>547.2000122070312</ele>
        <time>2013-04-10T14:07:41.000Z</time>
      </trkpt>
      <trkpt lon="7.01395595446229" lat="46.2300059851259">
        <ele>547.7999877929688</ele>
        <time>2013-04-10T14:07:51.000Z</time>
      </trkpt>
      <trkpt lon="7.014141948893666" lat="46.230106987059116">
        <ele>549.5999755859375</ele>
        <time>2013-04-10T14:07:58.000Z</time>
      </trkpt>
      <trkpt lon="7.0143109280616045" lat="46.23021997511387">
        <ele>549.7999877929688</ele>
        <time>2013-04-10T14:08:05.000Z</time>
      </trkpt>
      <trkpt lon="7.014379994943738" lat="46.23026599176228">
        <ele>549.7999877929688</ele>
        <time>2013-04-10T14:08:07.000Z</time>
      </trkpt>
      <trkpt lon="7.014458952471614" lat="46.230318965390325">
        <ele>549.5999755859375</ele>
        <time>2013-04-10T14:08:11.000Z</time>
      </trkpt>
      <trkpt lon="7.0146319549530745" lat="46.23043396510184">
        <ele>549.4000244140625</ele>
        <time>2013-04-10T14:08:16.000Z</time>
      </trkpt>
      <trkpt lon="7.014985922724009" lat="46.2306569237262">
        <ele>548.4000244140625</ele>
        <time>2013-04-10T14:08:22.000Z</time>
      </trkpt>
      <trkpt lon="7.01537199318409" lat="46.23085297644138">
        <ele>549.4000244140625</ele>
        <time>2013-04-10T14:08:28.000Z</time>
      </trkpt>
      <trkpt lon="7.0155009906739" lat="46.23093897476792">
        <ele>550.4000244140625</ele>
        <time>2013-04-10T14:08:32.000Z</time>
      </trkpt>
      <trkpt lon="7.015569973737001" lat="46.23084199614823">
        <ele>550.0</ele>
        <time>2013-04-10T14:08:37.000Z</time>
      </trkpt>
      <trkpt lon="7.015683967620134" lat="46.23074593953788">
        <ele>550.5999755859375</ele>
        <time>2013-04-10T14:08:43.000Z</time>
      </trkpt>
      <trkpt lon="7.01580299064517" lat="46.23065298423171">
        <ele>551.4000244140625</ele>
        <time>2013-04-10T14:08:49.000Z</time>
      </trkpt>
      <trkpt lon="7.015976998955011" lat="46.230532955378294">
        <ele>553.5999755859375</ele>
        <time>2013-04-10T14:08:57.000Z</time>
      </trkpt>
      <trkpt lon="7.016129968687892" lat="46.230403957888484">
        <ele>555.7999877929688</ele>
        <time>2013-04-10T14:09:05.000Z</time>
      </trkpt>
      <trkpt lon="7.016176991164684" lat="46.230294993147254">
        <ele>557.0</ele>
        <time>2013-04-10T14:09:10.000Z</time>
      </trkpt>
      <trkpt lon="7.016170956194401" lat="46.230109920725226">
        <ele>557.7999877929688</ele>
        <time>2013-04-10T14:09:17.000Z</time>
      </trkpt>
      <trkpt lon="7.016124939545989" lat="46.229955945163965">
        <ele>557.7999877929688</ele>
        <time>2013-04-10T14:09:23.000Z</time>
      </trkpt>
      <trkpt lon="7.016048999503255" lat="46.22975494712591">
        <ele>557.7999877929688</ele>
        <time>2013-04-10T14:09:31.000Z</time>
      </trkpt>
      <trkpt lon="7.0160879753530025" lat="46.22958596795797">
        <ele>558.7999877929688</ele>
        <time>2013-04-10T14:09:37.000Z</time>
      </trkpt>
      <trkpt lon="7.016375977545977" lat="46.22938999906182">
        <ele>560.5999755859375</ele>
        <time>2013-04-10T14:09:46.000Z</time>
      </trkpt>
      <trkpt lon="7.016594996675849" lat="46.22928195632994">
        <ele>561.2000122070312</ele>
        <time>2013-04-10T14:09:53.000Z</time>
      </trkpt>
      <trkpt lon="7.016827929764986" lat="46.229203920811415">
        <ele>562.4000244140625</ele>
        <time>2013-04-10T14:10:00.000Z</time>
      </trkpt>
      <trkpt lon="7.017230931669474" lat="46.229073917493224">
        <ele>563.7999877929688</ele>
        <time>2013-04-10T14:10:12.000Z</time>
      </trkpt>
      <trkpt lon="7.017531925812364" lat="46.228989930823445">
        <ele>564.2000122070312</ele>
        <time>2013-04-10T14:10:21.000Z</time>
      </trkpt>
      <trkpt lon="7.01773795299232" lat="46.22893293388188">
        <ele>564.5999755859375</ele>
        <time>2013-04-10T14:10:28.000Z</time>
      </trkpt>
      <trkpt lon="7.017967952415347" lat="46.22882497496903">
        <ele>564.0</ele>
        <time>2013-04-10T14:10:34.000Z</time>
      </trkpt>
      <trkpt lon="7.0183309726417065" lat="46.2286589294672">
        <ele>563.7999877929688</ele>
        <time>2013-04-10T14:10:40.000Z</time>
      </trkpt>
      <trkpt lon="7.018622998148203" lat="46.22852498665452">
        <ele>561.2000122070312</ele>
        <time>2013-04-10T14:10:43.000Z</time>
      </trkpt>
      <trkpt lon="7.018994987010956" lat="46.228470923379064">
        <ele>560.2000122070312</ele>
        <time>2013-04-10T14:10:47.000Z</time>
      </trkpt>
      <trkpt lon="7.019098922610283" lat="46.228473940864205">
        <ele>560.2000122070312</ele>
        <time>2013-04-10T14:10:49.000Z</time>
      </trkpt>
      <trkpt lon="7.019811971113086" lat="46.228664964437485">
        <ele>562.5999755859375</ele>
        <time>2013-04-10T14:10:57.000Z</time>
      </trkpt>
      <trkpt lon="7.020197957754135" lat="46.22873897664249">
        <ele>563.4000244140625</ele>
        <time>2013-04-10T14:11:03.000Z</time>
      </trkpt>
      <trkpt lon="7.020508926361799" lat="46.22880091890693">
        <ele>564.0</ele>
        <time>2013-04-10T14:11:09.000Z</time>
      </trkpt>
      <trkpt lon="7.02068293467164" lat="46.22883193194866">
        <ele>564.4000244140625</ele>
        <time>2013-04-10T14:11:12.000Z</time>
      </trkpt>
      <trkpt lon="7.02117595821619" lat="46.228986997157335">
        <ele>565.2000122070312</ele>
        <time>2013-04-10T14:11:20.000Z</time>
      </trkpt>
      <trkpt lon="7.021438982337713" lat="46.22910694219172">
        <ele>566.2000122070312</ele>
        <time>2013-04-10T14:11:24.000Z</time>
      </trkpt>
      <trkpt lon="7.021928988397121" lat="46.229334929957986">
        <ele>566.0</ele>
        <time>2013-04-10T14:11:30.000Z</time>
      </trkpt>
      <trkpt lon="7.022308940067887" lat="46.22951094992459">
        <ele>566.0</ele>
        <time>2013-04-10T14:11:34.000Z</time>
      </trkpt>
      <trkpt lon="7.022721916437149" lat="46.22965193353593">
        <ele>565.7999877929688</ele>
        <time>2013-04-10T14:11:38.000Z</time>
      </trkpt>
      <trkpt lon="7.023313930258155" lat="46.22977296821773">
        <ele>564.4000244140625</ele>
        <time>2013-04-10T14:11:45.000Z</time>
      </trkpt>
      <trkpt lon="7.023540996015072" lat="46.229851925745606">
        <ele>563.7999877929688</ele>
        <time>2013-04-10T14:11:48.000Z</time>
      </trkpt>
      <trkpt lon="7.023866968229413" lat="46.22993892990053">
        <ele>562.2000122070312</ele>
        <time>2013-04-10T14:11:52.000Z</time>
      </trkpt>
      <trkpt lon="7.024408942088485" lat="46.230105981230736">
        <ele>560.5999755859375</ele>
        <time>2013-04-10T14:11:57.000Z</time>
      </trkpt>
      <trkpt lon="7.0246619917452335" lat="46.230214945971966">
        <ele>561.2000122070312</ele>
        <time>2013-04-10T14:11:59.000Z</time>
      </trkpt>
      <trkpt lon="7.025230955332518" lat="46.230318965390325">
        <ele>561.0</ele>
        <time>2013-04-10T14:12:03.000Z</time>
      </trkpt>
      <trkpt lon="7.025684919208288" lat="46.230295998975635">
        <ele>560.7999877929688</ele>
        <time>2013-04-10T14:12:06.000Z</time>
      </trkpt>
      <trkpt lon="7.026150953024626" lat="46.23016096651554">
        <ele>559.4000244140625</ele>
        <time>2013-04-10T14:12:10.000Z</time>
      </trkpt>
      <trkpt lon="7.026207949966192" lat="46.23009793460369">
        <ele>558.7999877929688</ele>
        <time>2013-04-10T14:12:11.000Z</time>
      </trkpt>
      <trkpt lon="7.0263889990746975" lat="46.22986298985779">
        <ele>558.0</ele>
        <time>2013-04-10T14:12:15.000Z</time>
      </trkpt>
      <trkpt lon="7.026623943820596" lat="46.229950999841094">
        <ele>558.7999877929688</ele>
        <time>2013-04-10T14:12:18.000Z</time>
      </trkpt>
      <trkpt lon="7.026700973510742" lat="46.229996932670474">
        <ele>559.2000122070312</ele>
        <time>2013-04-10T14:12:20.000Z</time>
      </trkpt>
      <trkpt lon="7.026903983205557" lat="46.2298799213022">
        <ele>561.5999755859375</ele>
        <time>2013-04-10T14:12:23.000Z</time>
      </trkpt>
      <trkpt lon="7.0271229185163975" lat="46.2297469843179">
        <ele>564.2000122070312</ele>
        <time>2013-04-10T14:12:30.000Z</time>
      </trkpt>
      <trkpt lon="7.027204977348447" lat="46.22961698099971">
        <ele>565.4000244140625</ele>
        <time>2013-04-10T14:12:36.000Z</time>
      </trkpt>
      <trkpt lon="7.02721394598484" lat="46.22934599407017">
        <ele>565.7999877929688</ele>
        <time>2013-04-10T14:12:45.000Z</time>
      </trkpt>
      <trkpt lon="7.027198942378163" lat="46.22909797355533">
        <ele>566.2000122070312</ele>
        <time>2013-04-10T14:12:53.000Z</time>
      </trkpt>
      <trkpt lon="7.0271779876202345" lat="46.22876697219908">
        <ele>566.7999877929688</ele>
        <time>2013-04-10T14:13:03.000Z</time>
      </trkpt>
      <trkpt lon="7.027204977348447" lat="46.228449968621135">
        <ele>568.0</ele>
        <time>2013-04-10T14:13:12.000Z</time>
      </trkpt>
      <trkpt lon="7.027290975674987" lat="46.228126930072904">
        <ele>569.4000244140625</ele>
        <time>2013-04-10T14:13:21.000Z</time>
      </trkpt>
      <trkpt lon="7.027433970943093" lat="46.227890979498625">
        <ele>571.2000122070312</ele>
        <time>2013-04-10T14:13:29.000Z</time>
      </trkpt>
      <trkpt lon="7.027606973424554" lat="46.22773398645222">
        <ele>573.0</ele>
        <time>2013-04-10T14:13:36.000Z</time>
      </trkpt>
      <trkpt lon="7.027778970077634" lat="46.22760197147727">
        <ele>575.0</ele>
        <time>2013-04-10T14:13:43.000Z</time>
      </trkpt>
      <trkpt lon="7.027882989495993" lat="46.227460987865925">
        <ele>575.7999877929688</ele>
        <time>2013-04-10T14:13:50.000Z</time>
      </trkpt>
      <trkpt lon="7.027953984215856" lat="46.2273189984262">
        <ele>576.2000122070312</ele>
        <time>2013-04-10T14:13:58.000Z</time>
      </trkpt>
      <trkpt lon="7.028020955622196" lat="46.22718698345125">
        <ele>576.4000244140625</ele>
        <time>2013-04-10T14:14:05.000Z</time>
      </trkpt>
      <trkpt lon="7.02807292342186" lat="46.227094950154424">
        <ele>576.5999755859375</ele>
        <time>2013-04-10T14:14:10.000Z</time>
      </trkpt>
      <trkpt lon="7.028231928125024" lat="46.226966958492994">
        <ele>577.7999877929688</ele>
        <time>2013-04-10T14:14:16.000Z</time>
      </trkpt>
      <trkpt lon="7.028445918112993" lat="46.22689294628799">
        <ele>580.0</ele>
        <time>2013-04-10T14:14:22.000Z</time>
      </trkpt>
      <trkpt lon="7.028604922816157" lat="46.22679898515344">
        <ele>581.4000244140625</ele>
        <time>2013-04-10T14:14:27.000Z</time>
      </trkpt>
      <trkpt lon="7.028795946389437" lat="46.22663595713675">
        <ele>582.4000244140625</ele>
        <time>2013-04-10T14:14:33.000Z</time>
      </trkpt>
      <trkpt lon="7.028988981619477" lat="46.22645792551339">
        <ele>582.4000244140625</ele>
        <time>2013-04-10T14:14:40.000Z</time>
      </trkpt>
      <trkpt lon="7.02923096716404" lat="46.22622499242425">
        <ele>582.0</ele>
        <time>2013-04-10T14:14:47.000Z</time>
      </trkpt>
      <trkpt lon="7.029475970193744" lat="46.22601594775915">
        <ele>581.0</ele>
        <time>2013-04-10T14:14:54.000Z</time>
      </trkpt>
      <trkpt lon="7.029583929106593" lat="46.22594495303929">
        <ele>580.7999877929688</ele>
        <time>2013-04-10T14:14:59.000Z</time>
      </trkpt>
      <trkpt lon="7.0295879524201155" lat="46.225784942507744">
        <ele>579.0</ele>
        <time>2013-04-10T14:15:03.000Z</time>
      </trkpt>
      <trkpt lon="7.029432971030474" lat="46.2256489880383">
        <ele>577.0</ele>
        <time>2013-04-10T14:15:06.000Z</time>
      </trkpt>
      <trkpt lon="7.028920920565724" lat="46.22519594617188">
        <ele>568.7999877929688</ele>
        <time>2013-04-10T14:15:12.000Z</time>
      </trkpt>
      <trkpt lon="7.02882394194603" lat="46.22510994784534">
        <ele>567.0</ele>
        <time>2013-04-10T14:15:13.000Z</time>
      </trkpt>
      <trkpt lon="7.028359919786453" lat="46.22481792233884">
        <ele>563.5999755859375</ele>
        <time>2013-04-10T14:15:18.000Z</time>
      </trkpt>
      <trkpt lon="7.028106953948736" lat="46.224711975082755">
        <ele>562.2000122070312</ele>
        <time>2013-04-10T14:15:21.000Z</time>
      </trkpt>
      <trkpt lon="7.027747957035899" lat="46.22464592568576">
        <ele>559.2000122070312</ele>
        <time>2013-04-10T14:15:25.000Z</time>
      </trkpt>
      <trkpt lon="7.027528937906027" lat="46.22457895427942">
        <ele>557.7999877929688</ele>
        <time>2013-04-10T14:15:27.000Z</time>
      </trkpt>
      <trkpt lon="7.0270289573818445" lat="46.224432941526175">
        <ele>553.2000122070312</ele>
        <time>2013-04-10T14:15:31.000Z</time>
      </trkpt>
      <trkpt lon="7.026617992669344" lat="46.22427091933787">
        <ele>548.2000122070312</ele>
        <time>2013-04-10T14:15:34.000Z</time>
      </trkpt>
      <trkpt lon="7.026350945234299" lat="46.22392592020333">
        <ele>546.7999877929688</ele>
        <time>2013-04-10T14:15:38.000Z</time>
      </trkpt>
      <trkpt lon="7.0260099694132805" lat="46.22364797629416">
        <ele>543.0</ele>
        <time>2013-04-10T14:15:41.000Z</time>
      </trkpt>
      <trkpt lon="7.025404963642359" lat="46.22332594357431">
        <ele>531.2000122070312</ele>
        <time>2013-04-10T14:15:46.000Z</time>
      </trkpt>
      <trkpt lon="7.025090977549553" lat="46.223056968301535">
        <ele>525.7999877929688</ele>
        <time>2013-04-10T14:15:50.000Z</time>
      </trkpt>
      <trkpt lon="7.0247279573231936" lat="46.22263896279037">
        <ele>521.7999877929688</ele>
        <time>2013-04-10T14:15:54.000Z</time>
      </trkpt>
      <trkpt lon="7.024412965402007" lat="46.22238398529589">
        <ele>516.4000244140625</ele>
        <time>2013-04-10T14:15:57.000Z</time>
      </trkpt>
      <trkpt lon="7.024338953197002" lat="46.22232195921242">
        <ele>515.5999755859375</ele>
        <time>2013-04-10T14:15:58.000Z</time>
      </trkpt>
      <trkpt lon="7.023965958505869" lat="46.22212892398238">
        <ele>510.6000061035156</ele>
        <time>2013-04-10T14:16:02.000Z</time>
      </trkpt>
      <trkpt lon="7.023594975471497" lat="46.22199799865484">
        <ele>504.3999938964844</ele>
        <time>2013-04-10T14:16:05.000Z</time>
      </trkpt>
      <trkpt lon="7.023334968835115" lat="46.22194594703615">
        <ele>499.0</ele>
        <time>2013-04-10T14:16:07.000Z</time>
      </trkpt>
      <trkpt lon="7.023113938048482" lat="46.221899930387735">
        <ele>496.0</ele>
        <time>2013-04-10T14:16:12.000Z</time>
      </trkpt>
      <trkpt lon="7.022598953917623" lat="46.22160698287189">
        <ele>488.79998779296875</ele>
        <time>2013-04-10T14:16:14.000Z</time>
      </trkpt>
      <trkpt lon="7.02222696505487" lat="46.22137597762048">
        <ele>487.79998779296875</ele>
        <time>2013-04-10T14:16:17.000Z</time>
      </trkpt>
      <trkpt lon="7.021940974518657" lat="46.22122292406857">
        <ele>485.20001220703125</ele>
        <time>2013-04-10T14:16:19.000Z</time>
      </trkpt>
      <trkpt lon="7.021666970103979" lat="46.22111697681248">
        <ele>481.20001220703125</ele>
        <time>2013-04-10T14:16:21.000Z</time>
      </trkpt>
      <trkpt lon="7.021100940182805" lat="46.2208189163357">
        <ele>474.3999938964844</ele>
        <time>2013-04-10T14:16:25.000Z</time>
      </trkpt>
      <trkpt lon="7.020723922178149" lat="46.22052798047662">
        <ele>475.20001220703125</ele>
        <time>2013-04-10T14:16:29.000Z</time>
      </trkpt>
      <trkpt lon="7.020625937730074" lat="46.22047098353505">
        <ele>474.79998779296875</ele>
        <time>2013-04-10T14:16:30.000Z</time>
      </trkpt>
      <trkpt lon="7.020078934729099" lat="46.220245929434896">
        <ele>467.3999938964844</ele>
        <time>2013-04-10T14:16:35.000Z</time>
      </trkpt>
      <trkpt lon="7.019667970016599" lat="46.21998994611204">
        <ele>463.20001220703125</ele>
        <time>2013-04-10T14:16:40.000Z</time>
      </trkpt>
      <trkpt lon="7.0194939617067575" lat="46.219870923087">
        <ele>463.3999938964844</ele>
        <time>2013-04-10T14:16:42.000Z</time>
      </trkpt>
      <trkpt lon="7.019055923447013" lat="46.21973195113242">
        <ele>459.20001220703125</ele>
        <time>2013-04-10T14:16:46.000Z</time>
      </trkpt>
      <trkpt lon="7.018829947337508" lat="46.21961493976414">
        <ele>457.6000061035156</ele>
        <time>2013-04-10T14:16:49.000Z</time>
      </trkpt>
      <trkpt lon="7.018436919897795" lat="46.219515949487686">
        <ele>453.0</ele>
        <time>2013-04-10T14:16:53.000Z</time>
      </trkpt>
      <trkpt lon="7.018183954060078" lat="46.219490971416235">
        <ele>450.3999938964844</ele>
        <time>2013-04-10T14:16:57.000Z</time>
      </trkpt>
      <trkpt lon="7.018423927947879" lat="46.219293996691704">
        <ele>454.0</ele>
        <time>2013-04-10T14:16:59.000Z</time>
      </trkpt>
      <trkpt lon="7.01821094378829" lat="46.21948594227433">
        <ele>450.6000061035156</ele>
        <time>2013-04-10T14:17:03.000Z</time>
      </trkpt>
      <trkpt lon="7.018237933516502" lat="46.21948292478919">
        <ele>451.0</ele>
        <time>2013-04-10T14:17:04.000Z</time>
      </trkpt>
      <trkpt lon="7.018358968198299" lat="46.219490971416235">
        <ele>452.0</ele>
        <time>2013-04-10T14:17:07.000Z</time>
      </trkpt>
      <trkpt lon="7.018532976508141" lat="46.21954595670104">
        <ele>454.20001220703125</ele>
        <time>2013-04-10T14:17:11.000Z</time>
      </trkpt>
      <trkpt lon="7.018825924023986" lat="46.219611922279">
        <ele>457.6000061035156</ele>
        <time>2013-04-10T14:17:15.000Z</time>
      </trkpt>
      <trkpt lon="7.018825924023986" lat="46.219611922279">
        <ele>457.6000061035156</ele>
        <time>2013-04-10T14:17:16.000Z</time>
      </trkpt>
      <trkpt lon="7.018548985943198" lat="46.21938996948302">
        <ele>455.3999938964844</ele>
        <time>2013-04-10T14:17:22.000Z</time>
      </trkpt>
      <trkpt lon="7.018414959311485" lat="46.21928494423628">
        <ele>453.79998779296875</ele>
        <time>2013-04-10T14:17:26.000Z</time>
      </trkpt>
      <trkpt lon="7.018344970420003" lat="46.21913398616016">
        <ele>454.0</ele>
        <time>2013-04-10T14:17:31.000Z</time>
      </trkpt>
      <trkpt lon="7.018350921571255" lat="46.21881497092545">
        <ele>462.6000061035156</ele>
        <time>2013-04-10T14:17:42.000Z</time>
      </trkpt>
      <trkpt lon="7.0183539390563965" lat="46.21864599175751">
        <ele>467.20001220703125</ele>
        <time>2013-04-10T14:17:49.000Z</time>
      </trkpt>
      <trkpt lon="7.018335917964578" lat="46.21847198344767">
        <ele>471.3999938964844</ele>
        <time>2013-04-10T14:17:57.000Z</time>
      </trkpt>
      <trkpt lon="7.018248997628689" lat="46.218285989016294">
        <ele>475.6000061035156</ele>
        <time>2013-04-10T14:18:05.000Z</time>
      </trkpt>
      <trkpt lon="7.018065936863422" lat="46.21814299374819">
        <ele>479.0</ele>
        <time>2013-04-10T14:18:13.000Z</time>
      </trkpt>
      <trkpt lon="7.017891928553581" lat="46.218033945187926">
        <ele>481.0</ele>
        <time>2013-04-10T14:18:20.000Z</time>
      </trkpt>
      <trkpt lon="7.017727978527546" lat="46.21793495491147">
        <ele>482.3999938964844</ele>
        <time>2013-04-10T14:18:27.000Z</time>
      </trkpt>
      <trkpt lon="7.017516922205687" lat="46.21783294714987">
        <ele>483.0</ele>
        <time>2013-04-10T14:18:35.000Z</time>
      </trkpt>
      <trkpt lon="7.017322964966297" lat="46.21773798018694">
        <ele>483.6000061035156</ele>
        <time>2013-04-10T14:18:42.000Z</time>
      </trkpt>
      <trkpt lon="7.017189944162965" lat="46.217664973810315">
        <ele>484.20001220703125</ele>
        <time>2013-04-10T14:18:48.000Z</time>
      </trkpt>
      <trkpt lon="7.01704996638" lat="46.21758794412017">
        <ele>485.20001220703125</ele>
        <time>2013-04-10T14:18:54.000Z</time>
      </trkpt>
      <trkpt lon="7.01685793697834" lat="46.21747998520732">
        <ele>486.0</ele>
        <time>2013-04-10T14:19:02.000Z</time>
      </trkpt>
      <trkpt lon="7.016713935881853" lat="46.21739792637527">
        <ele>484.79998779296875</ele>
        <time>2013-04-10T14:19:08.000Z</time>
      </trkpt>
      <trkpt lon="7.016504975035787" lat="46.21727395802736">
        <ele>481.79998779296875</ele>
        <time>2013-04-10T14:19:16.000Z</time>
      </trkpt>
      <trkpt lon="7.0163419470191" lat="46.217147978022695">
        <ele>480.20001220703125</ele>
        <time>2013-04-10T14:19:23.000Z</time>
      </trkpt>
      <trkpt lon="7.016122927889228" lat="46.21704898774624">
        <ele>477.20001220703125</ele>
        <time>2013-04-10T14:19:31.000Z</time>
      </trkpt>
      <trkpt lon="7.015947997570038" lat="46.21696994639933">
        <ele>475.20001220703125</ele>
        <time>2013-04-10T14:19:38.000Z</time>
      </trkpt>
      <trkpt lon="7.015843978151679" lat="46.21688696555793">
        <ele>475.20001220703125</ele>
        <time>2013-04-10T14:19:44.000Z</time>
      </trkpt>
      <trkpt lon="7.015800978988409" lat="46.216791998595">
        <ele>477.0</ele>
        <time>2013-04-10T14:19:50.000Z</time>
      </trkpt>
      <trkpt lon="7.015850935131311" lat="46.21666895225644">
        <ele>482.20001220703125</ele>
        <time>2013-04-10T14:19:56.000Z</time>
      </trkpt>
      <trkpt lon="7.01599694788456" lat="46.21654297225177">
        <ele>485.79998779296875</ele>
        <time>2013-04-10T14:20:03.000Z</time>
      </trkpt>
      <trkpt lon="7.016143966466188" lat="46.21645697392523">
        <ele>489.20001220703125</ele>
        <time>2013-04-10T14:20:09.000Z</time>
      </trkpt>
      <trkpt lon="7.016346976161003" lat="46.216376926749945">
        <ele>493.6000061035156</ele>
        <time>2013-04-10T14:20:16.000Z</time>
      </trkpt>
      <trkpt lon="7.016526935622096" lat="46.216266956180334">
        <ele>497.6000061035156</ele>
        <time>2013-04-10T14:20:23.000Z</time>
      </trkpt>
      <trkpt lon="7.016559960320592" lat="46.21610493399203">
        <ele>499.20001220703125</ele>
        <time>2013-04-10T14:20:30.000Z</time>
      </trkpt>
      <trkpt lon="7.016480918973684" lat="46.21595699340105">
        <ele>498.6000061035156</ele>
        <time>2013-04-10T14:20:37.000Z</time>
      </trkpt>
      <trkpt lon="7.016313951462507" lat="46.21579094789922">
        <ele>497.20001220703125</ele>
        <time>2013-04-10T14:20:45.000Z</time>
      </trkpt>
      <trkpt lon="7.016132986173034" lat="46.21561995707452">
        <ele>498.0</ele>
        <time>2013-04-10T14:20:54.000Z</time>
      </trkpt>
      <trkpt lon="7.015944980084896" lat="46.21544091962278">
        <ele>497.6000061035156</ele>
        <time>2013-04-10T14:21:04.000Z</time>
      </trkpt>
      <trkpt lon="7.015819922089577" lat="46.21530496515334">
        <ele>497.6000061035156</ele>
        <time>2013-04-10T14:21:11.000Z</time>
      </trkpt>
      <trkpt lon="7.015657983720303" lat="46.21512098237872">
        <ele>499.79998779296875</ele>
        <time>2013-04-10T14:21:21.000Z</time>
      </trkpt>
      <trkpt lon="7.015542984008789" lat="46.21494496241212">
        <ele>502.79998779296875</ele>
        <time>2013-04-10T14:21:30.000Z</time>
      </trkpt>
      <trkpt lon="7.0154789462685585" lat="46.2147699482739">
        <ele>506.20001220703125</ele>
        <time>2013-04-10T14:21:38.000Z</time>
      </trkpt>
      <trkpt lon="7.015476934611797" lat="46.21456098742783">
        <ele>510.79998779296875</ele>
        <time>2013-04-10T14:21:45.000Z</time>
      </trkpt>
      <trkpt lon="7.015421949326992" lat="46.21429796330631">
        <ele>515.5999755859375</ele>
        <time>2013-04-10T14:21:52.000Z</time>
      </trkpt>
      <trkpt lon="7.015363946557045" lat="46.21415195055306">
        <ele>517.2000122070312</ele>
        <time>2013-04-10T14:21:56.000Z</time>
      </trkpt>
      <trkpt lon="7.015086924657226" lat="46.213883981108665">
        <ele>512.5999755859375</ele>
        <time>2013-04-10T14:22:04.000Z</time>
      </trkpt>
      <trkpt lon="7.0150109846144915" lat="46.21384399943054">
        <ele>511.3999938964844</ele>
        <time>2013-04-10T14:22:06.000Z</time>
      </trkpt>
      <trkpt lon="7.014855919405818" lat="46.213774932548404">
        <ele>509.0</ele>
        <time>2013-04-10T14:22:10.000Z</time>
      </trkpt>
      <trkpt lon="7.01481593772769" lat="46.21386998333037">
        <ele>508.0</ele>
        <time>2013-04-10T14:22:13.000Z</time>
      </trkpt>
      <trkpt lon="7.014657938852906" lat="46.21424691751599">
        <ele>504.6000061035156</ele>
        <time>2013-04-10T14:22:21.000Z</time>
      </trkpt>
      <trkpt lon="7.014528941363096" lat="46.214551934972405">
        <ele>499.3999938964844</ele>
        <time>2013-04-10T14:22:26.000Z</time>
      </trkpt>
      <trkpt lon="7.0143459644168615" lat="46.214724937453866">
        <ele>495.6000061035156</ele>
        <time>2013-04-10T14:22:29.000Z</time>
      </trkpt>
      <trkpt lon="7.013988979160786" lat="46.21477296575904">
        <ele>487.20001220703125</ele>
        <time>2013-04-10T14:22:32.000Z</time>
      </trkpt>
      <trkpt lon="7.01378395780921" lat="46.214656960219145">
        <ele>481.79998779296875</ele>
        <time>2013-04-10T14:22:34.000Z</time>
      </trkpt>
      <trkpt lon="7.013613972812891" lat="46.21448194608092">
        <ele>480.0</ele>
        <time>2013-04-10T14:22:36.000Z</time>
      </trkpt>
      <trkpt lon="7.013461925089359" lat="46.214268961921334">
        <ele>480.6000061035156</ele>
        <time>2013-04-10T14:22:38.000Z</time>
      </trkpt>
      <trkpt lon="7.0134559739381075" lat="46.21376093477011">
        <ele>476.0</ele>
        <time>2013-04-10T14:22:42.000Z</time>
      </trkpt>
      <trkpt lon="7.013457985594869" lat="46.213323986157775">
        <ele>468.6000061035156</ele>
        <time>2013-04-10T14:22:45.000Z</time>
      </trkpt>
      <trkpt lon="7.013606932014227" lat="46.21281696483493">
        <ele>461.20001220703125</ele>
        <time>2013-04-10T14:22:49.000Z</time>
      </trkpt>
      <trkpt lon="7.014010939747095" lat="46.21250096708536">
        <ele>469.79998779296875</ele>
        <time>2013-04-10T14:22:52.000Z</time>
      </trkpt>
      <trkpt lon="7.01410498470068" lat="46.21222193352878">
        <ele>469.0</ele>
        <time>2013-04-10T14:22:54.000Z</time>
      </trkpt>
      <trkpt lon="7.014093920588493" lat="46.21207298710942">
        <ele>466.0</ele>
        <time>2013-04-10T14:22:55.000Z</time>
      </trkpt>
      <trkpt lon="7.014011945575476" lat="46.21142095886171">
        <ele>449.3999938964844</ele>
        <time>2013-04-10T14:22:59.000Z</time>
      </trkpt>
      <trkpt lon="7.014144966378808" lat="46.21099197305739">
        <ele>443.6000061035156</ele>
        <time>2013-04-10T14:23:02.000Z</time>
      </trkpt>
      <trkpt lon="7.014395920559764" lat="46.21055896393955">
        <ele>449.6000061035156</ele>
        <time>2013-04-10T14:23:05.000Z</time>
      </trkpt>
      <trkpt lon="7.014469932764769" lat="46.210056971758604">
        <ele>449.0</ele>
        <time>2013-04-10T14:23:08.000Z</time>
      </trkpt>
      <trkpt lon="7.014397932216525" lat="46.20977399870753">
        <ele>440.79998779296875</ele>
        <time>2013-04-10T14:23:10.000Z</time>
      </trkpt>
      <trkpt lon="7.01423498801887" lat="46.20960594154894">
        <ele>428.20001220703125</ele>
        <time>2013-04-10T14:23:12.000Z</time>
      </trkpt>
      <trkpt lon="7.014141948893666" lat="46.2095529679209">
        <ele>422.79998779296875</ele>
        <time>2013-04-10T14:23:13.000Z</time>
      </trkpt>
      <trkpt lon="7.014025943353772" lat="46.20953092351556">
        <ele>421.20001220703125</ele>
        <time>2013-04-10T14:23:15.000Z</time>
      </trkpt>
      <trkpt lon="7.014074977487326" lat="46.209392957389355">
        <ele>421.20001220703125</ele>
        <time>2013-04-10T14:23:19.000Z</time>
      </trkpt>
      <trkpt lon="7.014275975525379" lat="46.20904494076967">
        <ele>425.79998779296875</ele>
        <time>2013-04-10T14:23:26.000Z</time>
      </trkpt>
      <trkpt lon="7.014509998261929" lat="46.208639927208424">
        <ele>428.0</ele>
        <time>2013-04-10T14:23:33.000Z</time>
      </trkpt>
      <trkpt lon="7.014855919405818" lat="46.20813198387623">
        <ele>423.3999938964844</ele>
        <time>2013-04-10T14:23:42.000Z</time>
      </trkpt>
      <trkpt lon="7.015271997079253" lat="46.20753795839846">
        <ele>419.79998779296875</ele>
        <time>2013-04-10T14:23:53.000Z</time>
      </trkpt>
      <trkpt lon="7.015649937093258" lat="46.206945944577456">
        <ele>419.0</ele>
        <time>2013-04-10T14:24:04.000Z</time>
      </trkpt>
      <trkpt lon="7.0159239415079355" lat="46.2064859457314">
        <ele>419.79998779296875</ele>
        <time>2013-04-10T14:24:12.000Z</time>
      </trkpt>
      <trkpt lon="7.016376983374357" lat="46.20579795911908">
        <ele>419.79998779296875</ele>
        <time>2013-04-10T14:24:24.000Z</time>
      </trkpt>
      <trkpt lon="7.016579993069172" lat="46.205503921955824">
        <ele>419.79998779296875</ele>
        <time>2013-04-10T14:24:29.000Z</time>
      </trkpt>
      <trkpt lon="7.016720976680517" lat="46.20535095222294">
        <ele>420.3999938964844</ele>
        <time>2013-04-10T14:24:32.000Z</time>
      </trkpt>
      <trkpt lon="7.017066981643438" lat="46.205206951126456">
        <ele>421.6000061035156</ele>
        <time>2013-04-10T14:24:37.000Z</time>
      </trkpt>
      <trkpt lon="7.0172869227826595" lat="46.205143919214606">
        <ele>421.79998779296875</ele>
        <time>2013-04-10T14:24:40.000Z</time>
      </trkpt>
      <trkpt lon="7.017239984124899" lat="46.204946944490075">
        <ele>419.79998779296875</ele>
        <time>2013-04-10T14:24:43.000Z</time>
      </trkpt>
      <trkpt lon="7.016866989433765" lat="46.204411927610636">
        <ele>419.20001220703125</ele>
        <time>2013-04-10T14:24:54.000Z</time>
      </trkpt>
      <trkpt lon="7.016558954492211" lat="46.204042956233025">
        <ele>418.3999938964844</ele>
        <time>2013-04-10T14:25:02.000Z</time>
      </trkpt>
      <trkpt lon="7.016207920387387" lat="46.2036469951272">
        <ele>418.0</ele>
        <time>2013-04-10T14:25:11.000Z</time>
      </trkpt>
      <trkpt lon="7.015852946788073" lat="46.203291937708855">
        <ele>419.20001220703125</ele>
        <time>2013-04-10T14:25:19.000Z</time>
      </trkpt>
      <trkpt lon="7.015795949846506" lat="46.20325899682939">
        <ele>419.3999938964844</ele>
        <time>2013-04-10T14:25:20.000Z</time>
      </trkpt>
      <trkpt lon="7.015507947653532" lat="46.20313192717731">
        <ele>420.20001220703125</ele>
        <time>2013-04-10T14:25:24.000Z</time>
      </trkpt>
      <trkpt lon="7.014828929677606" lat="46.20297493413091">
        <ele>420.20001220703125</ele>
        <time>2013-04-10T14:25:31.000Z</time>
      </trkpt>
      <trkpt lon="7.014640923589468" lat="46.20293495245278">
        <ele>420.20001220703125</ele>
        <time>2013-04-10T14:25:33.000Z</time>
      </trkpt>
      <trkpt lon="7.014034995809197" lat="46.20281391777098">
        <ele>419.3999938964844</ele>
        <time>2013-04-10T14:25:38.000Z</time>
      </trkpt>
      <trkpt lon="7.013624953106046" lat="46.20273797772825">
        <ele>419.20001220703125</ele>
        <time>2013-04-10T14:25:43.000Z</time>
      </trkpt>
      <trkpt lon="7.013570973649621" lat="46.20272791944444">
        <ele>419.20001220703125</ele>
        <time>2013-04-10T14:25:44.000Z</time>
      </trkpt>
      <trkpt lon="7.0134789403527975" lat="46.20270696468651">
        <ele>419.20001220703125</ele>
        <time>2013-04-10T14:25:48.000Z</time>
      </trkpt>
      <trkpt lon="7.013087924569845" lat="46.20259397663176">
        <ele>419.20001220703125</ele>
        <time>2013-04-10T14:25:53.000Z</time>
      </trkpt>
      <trkpt lon="7.012546956539154" lat="46.20241695083678">
        <ele>420.0</ele>
        <time>2013-04-10T14:26:02.000Z</time>
      </trkpt>
      <trkpt lon="7.0117799285799265" lat="46.20216398499906">
        <ele>421.20001220703125</ele>
        <time>2013-04-10T14:26:14.000Z</time>
      </trkpt>
      <trkpt lon="7.011594939976931" lat="46.20210296474397">
        <ele>421.79998779296875</ele>
        <time>2013-04-10T14:26:17.000Z</time>
      </trkpt>
      <trkpt lon="7.011338956654072" lat="46.202020989730954">
        <ele>422.0</ele>
        <time>2013-04-10T14:26:22.000Z</time>
      </trkpt>
      <trkpt lon="7.011180957779288" lat="46.20196994394064">
        <ele>422.20001220703125</ele>
        <time>2013-04-10T14:26:26.000Z</time>
      </trkpt>
      <trkpt lon="7.011143993586302" lat="46.201957957819104">
        <ele>422.20001220703125</ele>
        <time>2013-04-10T14:26:28.000Z</time>
      </trkpt>
      <trkpt lon="7.011161930859089" lat="46.20186793617904">
        <ele>422.6000061035156</ele>
        <time>2013-04-10T14:26:32.000Z</time>
      </trkpt>
      <trkpt lon="7.011575996875763" lat="46.201615976169705">
        <ele>424.79998779296875</ele>
        <time>2013-04-10T14:26:41.000Z</time>
      </trkpt>
      <trkpt lon="7.011996936053038" lat="46.2013659439981">
        <ele>424.79998779296875</ele>
        <time>2013-04-10T14:26:50.000Z</time>
      </trkpt>
      <trkpt lon="7.0124749559909105" lat="46.201098980382085">
        <ele>426.0</ele>
        <time>2013-04-10T14:27:00.000Z</time>
      </trkpt>
      <trkpt lon="7.013034950941801" lat="46.200838973745704">
        <ele>427.79998779296875</ele>
        <time>2013-04-10T14:27:11.000Z</time>
      </trkpt>
      <trkpt lon="7.013567956164479" lat="46.200587935745716">
        <ele>429.79998779296875</ele>
        <time>2013-04-10T14:27:21.000Z</time>
      </trkpt>
      <trkpt lon="7.014153935015202" lat="46.200371934100986">
        <ele>432.3999938964844</ele>
        <time>2013-04-10T14:27:31.000Z</time>
      </trkpt>
      <trkpt lon="7.014823984354734" lat="46.2001449521631">
        <ele>435.6000061035156</ele>
        <time>2013-04-10T14:27:42.000Z</time>
      </trkpt>
      <trkpt lon="7.015474922955036" lat="46.199983935803175">
        <ele>437.0</ele>
        <time>2013-04-10T14:27:52.000Z</time>
      </trkpt>
      <trkpt lon="7.015813970938325" lat="46.19990992359817">
        <ele>437.3999938964844</ele>
        <time>2013-04-10T14:27:58.000Z</time>
      </trkpt>
      <trkpt lon="7.016042964532971" lat="46.19986399076879">
        <ele>437.0</ele>
        <time>2013-04-10T14:28:04.000Z</time>
      </trkpt>
      <trkpt lon="7.01634094119072" lat="46.19980397634208">
        <ele>436.79998779296875</ele>
        <time>2013-04-10T14:28:08.000Z</time>
      </trkpt>
      <trkpt lon="7.0168849267065525" lat="46.19969392195344">
        <ele>436.6000061035156</ele>
        <time>2013-04-10T14:28:15.000Z</time>
      </trkpt>
      <trkpt lon="7.01756595633924" lat="46.199555955827236">
        <ele>436.79998779296875</ele>
        <time>2013-04-10T14:28:25.000Z</time>
      </trkpt>
      <trkpt lon="7.0178179163485765" lat="46.19948395527899">
        <ele>436.6000061035156</ele>
        <time>2013-04-10T14:28:31.000Z</time>
      </trkpt>
      <trkpt lon="7.018291996791959" lat="46.19909293949604">
        <ele>438.0</ele>
        <time>2013-04-10T14:28:40.000Z</time>
      </trkpt>
      <trkpt lon="7.018523924052715" lat="46.19889194145799">
        <ele>441.0</ele>
        <time>2013-04-10T14:28:47.000Z</time>
      </trkpt>
      <trkpt lon="7.0188189670443535" lat="46.19864492677152">
        <ele>444.0</ele>
        <time>2013-04-10T14:28:59.000Z</time>
      </trkpt>
      <trkpt lon="7.019060952588916" lat="46.19844493456185">
        <ele>446.0</ele>
        <time>2013-04-10T14:29:09.000Z</time>
      </trkpt>
      <trkpt lon="7.0192839950323105" lat="46.19826698675752">
        <ele>447.6000061035156</ele>
        <time>2013-04-10T14:29:18.000Z</time>
      </trkpt>
      <trkpt lon="7.0195879228413105" lat="46.19801293127239">
        <ele>450.0</ele>
        <time>2013-04-10T14:29:30.000Z</time>
      </trkpt>
      <trkpt lon="7.019836949184537" lat="46.1978049762547">
        <ele>452.0</ele>
        <time>2013-04-10T14:29:39.000Z</time>
      </trkpt>
      <trkpt lon="7.020035935565829" lat="46.197643959894776">
        <ele>453.6000061035156</ele>
        <time>2013-04-10T14:29:45.000Z</time>
      </trkpt>
      <trkpt lon="7.020414965227246" lat="46.19733793660998">
        <ele>455.79998779296875</ele>
        <time>2013-04-10T14:29:57.000Z</time>
      </trkpt>
      <trkpt lon="7.020806986838579" lat="46.1969209369272">
        <ele>457.79998779296875</ele>
        <time>2013-04-10T14:30:10.000Z</time>
      </trkpt>
      <trkpt lon="7.0211149379611015" lat="46.19655699469149">
        <ele>458.79998779296875</ele>
        <time>2013-04-10T14:30:21.000Z</time>
      </trkpt>
      <trkpt lon="7.021436970680952" lat="46.19619498029351">
        <ele>460.20001220703125</ele>
        <time>2013-04-10T14:30:32.000Z</time>
      </trkpt>
      <trkpt lon="7.021712986752391" lat="46.1958899628371">
        <ele>461.3999938964844</ele>
        <time>2013-04-10T14:30:41.000Z</time>
      </trkpt>
      <trkpt lon="7.02203594148159" lat="46.19553096592426">
        <ele>463.6000061035156</ele>
        <time>2013-04-10T14:30:52.000Z</time>
      </trkpt>
      <trkpt lon="7.022323943674564" lat="46.195235922932625">
        <ele>465.0</ele>
        <time>2013-04-10T14:31:01.000Z</time>
      </trkpt>
      <trkpt lon="7.0226139575243" lat="46.194933922961354">
        <ele>465.20001220703125</ele>
        <time>2013-04-10T14:31:09.000Z</time>
      </trkpt>
      <trkpt lon="7.02295795083046" lat="46.194569980725646">
        <ele>464.3999938964844</ele>
        <time>2013-04-10T14:31:18.000Z</time>
      </trkpt>
      <trkpt lon="7.02336598187685" lat="46.194161949679255">
        <ele>464.79998779296875</ele>
        <time>2013-04-10T14:31:28.000Z</time>
      </trkpt>
      <trkpt lon="7.0236029382795095" lat="46.1937849316746">
        <ele>467.0</ele>
        <time>2013-04-10T14:31:36.000Z</time>
      </trkpt>
      <trkpt lon="7.023863950744271" lat="46.19332895614207">
        <ele>470.0</ele>
        <time>2013-04-10T14:31:45.000Z</time>
      </trkpt>
      <trkpt lon="7.024114988744259" lat="46.192893935367465">
        <ele>470.79998779296875</ele>
        <time>2013-04-10T14:31:53.000Z</time>
      </trkpt>
      <trkpt lon="7.024467950686812" lat="46.192270992323756">
        <ele>470.20001220703125</ele>
        <time>2013-04-10T14:32:04.000Z</time>
      </trkpt>
      <trkpt lon="7.024700967594981" lat="46.19187192991376">
        <ele>469.20001220703125</ele>
        <time>2013-04-10T14:32:11.000Z</time>
      </trkpt>
      <trkpt lon="7.025040937587619" lat="46.1912549380213">
        <ele>469.79998779296875</ele>
        <time>2013-04-10T14:32:22.000Z</time>
      </trkpt>
      <trkpt lon="7.025338998064399" lat="46.190718999132514">
        <ele>471.20001220703125</ele>
        <time>2013-04-10T14:32:32.000Z</time>
      </trkpt>
      <trkpt lon="7.025636974722147" lat="46.190231926739216">
        <ele>471.0</ele>
        <time>2013-04-10T14:32:41.000Z</time>
      </trkpt>
      <trkpt lon="7.025997983291745" lat="46.18976094760001">
        <ele>469.3999938964844</ele>
        <time>2013-04-10T14:32:50.000Z</time>
      </trkpt>
      <trkpt lon="7.0264629274606705" lat="46.18924898095429">
        <ele>468.3999938964844</ele>
        <time>2013-04-10T14:33:00.000Z</time>
      </trkpt>
      <trkpt lon="7.02688897959888" lat="46.188789987936616">
        <ele>469.20001220703125</ele>
        <time>2013-04-10T14:33:08.000Z</time>
      </trkpt>
      <trkpt lon="7.027325928211212" lat="46.1881709843874">
        <ele>469.20001220703125</ele>
        <time>2013-04-10T14:33:17.000Z</time>
      </trkpt>
      <trkpt lon="7.02762097120285" lat="46.18747394531965">
        <ele>468.20001220703125</ele>
        <time>2013-04-10T14:33:26.000Z</time>
      </trkpt>
      <trkpt lon="7.027884917333722" lat="46.18660893291235">
        <ele>466.20001220703125</ele>
        <time>2013-04-10T14:33:37.000Z</time>
      </trkpt>
      <trkpt lon="7.028105948120356" lat="46.18586998432875">
        <ele>469.0</ele>
        <time>2013-04-10T14:33:47.000Z</time>
      </trkpt>
      <trkpt lon="7.02828892506659" lat="46.18531594052911">
        <ele>469.6000061035156</ele>
        <time>2013-04-10T14:33:55.000Z</time>
      </trkpt>
      <trkpt lon="7.0284779369831085" lat="46.18486298248172">
        <ele>468.79998779296875</ele>
        <time>2013-04-10T14:34:01.000Z</time>
      </trkpt>
      <trkpt lon="7.028687987476587" lat="46.18445998057723">
        <ele>467.6000061035156</ele>
        <time>2013-04-10T14:34:06.000Z</time>
      </trkpt>
      <trkpt lon="7.02893097884953" lat="46.18392596952617">
        <ele>466.20001220703125</ele>
        <time>2013-04-10T14:34:12.000Z</time>
      </trkpt>
      <trkpt lon="7.02916894108057" lat="46.18325994350016">
        <ele>463.79998779296875</ele>
        <time>2013-04-10T14:34:19.000Z</time>
      </trkpt>
      <trkpt lon="7.029249994084239" lat="46.182644963264465">
        <ele>462.6000061035156</ele>
        <time>2013-04-10T14:34:25.000Z</time>
      </trkpt>
      <trkpt lon="7.0292239263653755" lat="46.18203794583678">
        <ele>459.20001220703125</ele>
        <time>2013-04-10T14:34:31.000Z</time>
      </trkpt>
      <trkpt lon="7.02910196967423" lat="46.18138499557972">
        <ele>456.79998779296875</ele>
        <time>2013-04-10T14:34:37.000Z</time>
      </trkpt>
      <trkpt lon="7.028902983292937" lat="46.18078594096005">
        <ele>456.3999938964844</ele>
        <time>2013-04-10T14:34:43.000Z</time>
      </trkpt>
      <trkpt lon="7.028776919469237" lat="46.18050497956574">
        <ele>456.0</ele>
        <time>2013-04-10T14:34:46.000Z</time>
      </trkpt>
      <trkpt lon="7.028700979426503" lat="46.18035293184221">
        <ele>455.79998779296875</ele>
        <time>2013-04-10T14:34:51.000Z</time>
      </trkpt>
      <trkpt lon="7.028645994141698" lat="46.18027095682919">
        <ele>455.79998779296875</ele>
        <time>2013-04-10T14:34:53.000Z</time>
      </trkpt>
      <trkpt lon="7.028621938079596" lat="46.18023592047393">
        <ele>455.79998779296875</ele>
        <time>2013-04-10T14:34:54.000Z</time>
      </trkpt>
      <trkpt lon="7.028452958911657" lat="46.17998999543488">
        <ele>455.3999938964844</ele>
        <time>2013-04-10T14:35:02.000Z</time>
      </trkpt>
      <trkpt lon="7.028157999739051" lat="46.17957794107497">
        <ele>454.79998779296875</ele>
        <time>2013-04-10T14:35:15.000Z</time>
      </trkpt>
      <trkpt lon="7.02787796035409" lat="46.17924492806196">
        <ele>454.0</ele>
        <time>2013-04-10T14:35:25.000Z</time>
      </trkpt>
      <trkpt lon="7.027608985081315" lat="46.178925996646285">
        <ele>454.20001220703125</ele>
        <time>2013-04-10T14:35:34.000Z</time>
      </trkpt>
      <trkpt lon="7.027355935424566" lat="46.178623996675014">
        <ele>455.3999938964844</ele>
        <time>2013-04-10T14:35:42.000Z</time>
      </trkpt>
      <trkpt lon="7.027129959315062" lat="46.17835594341159">
        <ele>456.20001220703125</ele>
        <time>2013-04-10T14:35:50.000Z</time>
      </trkpt>
      <trkpt lon="7.026917980983853" lat="46.17810599505901">
        <ele>456.3999938964844</ele>
        <time>2013-04-10T14:35:58.000Z</time>
      </trkpt>
      <trkpt lon="7.026891997084022" lat="46.17807598784566">
        <ele>456.3999938964844</ele>
        <time>2013-04-10T14:35:59.000Z</time>
      </trkpt>
      <trkpt lon="7.027158960700035" lat="46.17768798954785">
        <ele>453.79998779296875</ele>
        <time>2013-04-10T14:36:04.000Z</time>
      </trkpt>
      <trkpt lon="7.027095928788185" lat="46.177551951259375">
        <ele>453.6000061035156</ele>
        <time>2013-04-10T14:36:06.000Z</time>
      </trkpt>
      <trkpt lon="7.026895936578512" lat="46.17700897157192">
        <ele>453.79998779296875</ele>
        <time>2013-04-10T14:36:12.000Z</time>
      </trkpt>
      <trkpt lon="7.026812955737114" lat="46.17644595913589">
        <ele>452.79998779296875</ele>
        <time>2013-04-10T14:36:17.000Z</time>
      </trkpt>
      <trkpt lon="7.02676098793745" lat="46.175898956134915">
        <ele>450.3999938964844</ele>
        <time>2013-04-10T14:36:22.000Z</time>
      </trkpt>
      <trkpt lon="7.0267279632389545" lat="46.1753349378705">
        <ele>450.6000061035156</ele>
        <time>2013-04-10T14:36:28.000Z</time>
      </trkpt>
      <trkpt lon="7.026774985715747" lat="46.17472599260509">
        <ele>451.6000061035156</ele>
        <time>2013-04-10T14:36:35.000Z</time>
      </trkpt>
      <trkpt lon="7.026967937126756" lat="46.17394597269595">
        <ele>453.20001220703125</ele>
        <time>2013-04-10T14:36:44.000Z</time>
      </trkpt>
      <trkpt lon="7.027188967913389" lat="46.17326997220516">
        <ele>452.6000061035156</ele>
        <time>2013-04-10T14:36:52.000Z</time>
      </trkpt>
      <trkpt lon="7.027487950399518" lat="46.17252993397415">
        <ele>450.0</ele>
        <time>2013-04-10T14:37:01.000Z</time>
      </trkpt>
      <trkpt lon="7.027849964797497" lat="46.171687971800566">
        <ele>451.20001220703125</ele>
        <time>2013-04-10T14:37:11.000Z</time>
      </trkpt>
      <trkpt lon="7.0283059403300285" lat="46.17068398743868">
        <ele>450.6000061035156</ele>
        <time>2013-04-10T14:37:23.000Z</time>
      </trkpt>
      <trkpt lon="7.028680946677923" lat="46.169860968366265">
        <ele>450.20001220703125</ele>
        <time>2013-04-10T14:37:33.000Z</time>
      </trkpt>
      <trkpt lon="7.028900971636176" lat="46.16940197534859">
        <ele>449.79998779296875</ele>
        <time>2013-04-10T14:37:39.000Z</time>
      </trkpt>
      <trkpt lon="7.029027957469225" lat="46.169103998690844">
        <ele>449.79998779296875</ele>
        <time>2013-04-10T14:37:44.000Z</time>
      </trkpt>
      <trkpt lon="7.029070956632495" lat="46.168999979272485">
        <ele>449.79998779296875</ele>
        <time>2013-04-10T14:37:46.000Z</time>
      </trkpt>
      <trkpt lon="7.029238929972053" lat="46.16865296848118">
        <ele>450.0</ele>
        <time>2013-04-10T14:37:52.000Z</time>
      </trkpt>
      <trkpt lon="7.029416961595416" lat="46.168228927999735">
        <ele>450.20001220703125</ele>
        <time>2013-04-10T14:37:58.000Z</time>
      </trkpt>
      <trkpt lon="7.029721979051828" lat="46.167499953880906">
        <ele>450.0</ele>
        <time>2013-04-10T14:38:08.000Z</time>
      </trkpt>
      <trkpt lon="7.029934963211417" lat="46.16698899306357">
        <ele>450.3999938964844</ele>
        <time>2013-04-10T14:38:15.000Z</time>
      </trkpt>
      <trkpt lon="7.0301339495927095" lat="46.16651298478246">
        <ele>451.3999938964844</ele>
        <time>2013-04-10T14:38:22.000Z</time>
      </trkpt>
      <trkpt lon="7.0304199401289225" lat="46.16593396291137">
        <ele>452.0</ele>
        <time>2013-04-10T14:38:30.000Z</time>
      </trkpt>
      <trkpt lon="7.030751947313547" lat="46.165348989889026">
        <ele>450.79998779296875</ele>
        <time>2013-04-10T14:38:38.000Z</time>
      </trkpt>
      <trkpt lon="7.031098958104849" lat="46.16477298550308">
        <ele>451.0</ele>
        <time>2013-04-10T14:38:46.000Z</time>
      </trkpt>
      <trkpt lon="7.031428953632712" lat="46.164184994995594">
        <ele>451.79998779296875</ele>
        <time>2013-04-10T14:38:54.000Z</time>
      </trkpt>
      <trkpt lon="7.031721984967589" lat="46.16342299617827">
        <ele>450.20001220703125</ele>
        <time>2013-04-10T14:39:04.000Z</time>
      </trkpt>
      <trkpt lon="7.031939998269081" lat="46.16284397430718">
        <ele>449.0</ele>
        <time>2013-04-10T14:39:12.000Z</time>
      </trkpt>
      <trkpt lon="7.032208973541856" lat="46.16209798492491">
        <ele>449.6000061035156</ele>
        <time>2013-04-10T14:39:22.000Z</time>
      </trkpt>
      <trkpt lon="7.032420951873064" lat="46.161393988877535">
        <ele>451.0</ele>
        <time>2013-04-10T14:39:31.000Z</time>
      </trkpt>
      <trkpt lon="7.032537963241339" lat="46.160836927592754">
        <ele>452.79998779296875</ele>
        <time>2013-04-10T14:39:38.000Z</time>
      </trkpt>
      <trkpt lon="7.032571993768215" lat="46.16029193624854">
        <ele>452.20001220703125</ele>
        <time>2013-04-10T14:39:45.000Z</time>
      </trkpt>
      <trkpt lon="7.032535951584578" lat="46.15992598235607">
        <ele>451.6000061035156</ele>
        <time>2013-04-10T14:39:50.000Z</time>
      </trkpt>
      <trkpt lon="7.032397985458374" lat="46.15941192023456">
        <ele>449.79998779296875</ele>
        <time>2013-04-10T14:39:57.000Z</time>
      </trkpt>
      <trkpt lon="7.032292960211635" lat="46.15893792361021">
        <ele>449.20001220703125</ele>
        <time>2013-04-10T14:40:04.000Z</time>
      </trkpt>
      <trkpt lon="7.032171925529838" lat="46.15845596417785">
        <ele>449.3999938964844</ele>
        <time>2013-04-10T14:40:11.000Z</time>
      </trkpt>
      <trkpt lon="7.0320759527385235" lat="46.1580369528383">
        <ele>450.0</ele>
        <time>2013-04-10T14:40:17.000Z</time>
      </trkpt>
      <trkpt lon="7.032053992152214" lat="46.15768197923899">
        <ele>450.6000061035156</ele>
        <time>2013-04-10T14:40:22.000Z</time>
      </trkpt>
      <trkpt lon="7.03204695135355" lat="46.1576019320637">
        <ele>450.79998779296875</ele>
        <time>2013-04-10T14:40:23.000Z</time>
      </trkpt>
      <trkpt lon="7.032043933868408" lat="46.15755599923432">
        <ele>450.79998779296875</ele>
        <time>2013-04-10T14:40:26.000Z</time>
      </trkpt>
      <trkpt lon="7.031452925875783" lat="46.157291969284415">
        <ele>450.79998779296875</ele>
        <time>2013-04-10T14:40:30.000Z</time>
      </trkpt>
      <trkpt lon="7.031066939234734" lat="46.157226925715804">
        <ele>450.6000061035156</ele>
        <time>2013-04-10T14:40:34.000Z</time>
      </trkpt>
      <trkpt lon="7.030814979225397" lat="46.157183926552534">
        <ele>450.79998779296875</ele>
        <time>2013-04-10T14:40:38.000Z</time>
      </trkpt>
      <trkpt lon="7.030549943447113" lat="46.1571029573679">
        <ele>452.20001220703125</ele>
        <time>2013-04-10T14:40:42.000Z</time>
      </trkpt>
      <trkpt lon="7.03020092099905" lat="46.15694093517959">
        <ele>455.0</ele>
        <time>2013-04-10T14:40:49.000Z</time>
      </trkpt>
      <trkpt lon="7.0301539823412895" lat="46.15685191936791">
        <ele>456.0</ele>
        <time>2013-04-10T14:40:53.000Z</time>
      </trkpt>
      <trkpt lon="7.030259929597378" lat="46.15653692744672">
        <ele>459.20001220703125</ele>
        <time>2013-04-10T14:41:00.000Z</time>
      </trkpt>
      <trkpt lon="7.0303969737142324" lat="46.15612395107746">
        <ele>464.6000061035156</ele>
        <time>2013-04-10T14:41:08.000Z</time>
      </trkpt>
      <trkpt lon="7.030484983697534" lat="46.15586193278432">
        <ele>466.79998779296875</ele>
        <time>2013-04-10T14:41:13.000Z</time>
      </trkpt>
      <trkpt lon="7.031138939782977" lat="46.15563394501805">
        <ele>457.3999938964844</ele>
        <time>2013-04-10T14:41:20.000Z</time>
      </trkpt>
      <trkpt lon="7.031163917854428" lat="46.15530093200505">
        <ele>459.6000061035156</ele>
        <time>2013-04-10T14:41:26.000Z</time>
      </trkpt>
      <trkpt lon="7.031092923134565" lat="46.15468494594097">
        <ele>462.79998779296875</ele>
        <time>2013-04-10T14:41:36.000Z</time>
      </trkpt>
      <trkpt lon="7.030967948958278" lat="46.153981955721974">
        <ele>463.6000061035156</ele>
        <time>2013-04-10T14:41:46.000Z</time>
      </trkpt>
      <trkpt lon="7.030839957296848" lat="46.15326697938144">
        <ele>461.6000061035156</ele>
        <time>2013-04-10T14:41:56.000Z</time>
      </trkpt>
      <trkpt lon="7.030725963413715" lat="46.152586955577135">
        <ele>461.6000061035156</ele>
        <time>2013-04-10T14:42:06.000Z</time>
      </trkpt>
      <trkpt lon="7.030647927895188" lat="46.152095943689346">
        <ele>461.79998779296875</ele>
        <time>2013-04-10T14:42:14.000Z</time>
      </trkpt>
      <trkpt lon="7.030576933175325" lat="46.15165296010673">
        <ele>461.79998779296875</ele>
        <time>2013-04-10T14:42:21.000Z</time>
      </trkpt>
      <trkpt lon="7.030499987304211" lat="46.151188937947154">
        <ele>462.3999938964844</ele>
        <time>2013-04-10T14:42:28.000Z</time>
      </trkpt>
      <trkpt lon="7.030400997027755" lat="46.15059792995453">
        <ele>462.6000061035156</ele>
        <time>2013-04-10T14:42:37.000Z</time>
      </trkpt>
      <trkpt lon="7.030302928760648" lat="46.15000298246741">
        <ele>462.3999938964844</ele>
        <time>2013-04-10T14:42:46.000Z</time>
      </trkpt>
      <trkpt lon="7.030237969011068" lat="46.14954792894423">
        <ele>460.0</ele>
        <time>2013-04-10T14:42:53.000Z</time>
      </trkpt>
      <trkpt lon="7.030207961797714" lat="46.14932597614825">
        <ele>458.79998779296875</ele>
        <time>2013-04-10T14:42:57.000Z</time>
      </trkpt>
      <trkpt lon="7.0298459473997355" lat="46.149064963683486">
        <ele>459.79998779296875</ele>
        <time>2013-04-10T14:43:03.000Z</time>
      </trkpt>
      <trkpt lon="7.029760954901576" lat="46.14892398007214">
        <ele>460.3999938964844</ele>
        <time>2013-04-10T14:43:06.000Z</time>
      </trkpt>
      <trkpt lon="7.029557945206761" lat="46.14856196567416">
        <ele>461.3999938964844</ele>
        <time>2013-04-10T14:43:13.000Z</time>
      </trkpt>
      <trkpt lon="7.029507989063859" lat="46.148439925163984">
        <ele>461.3999938964844</ele>
        <time>2013-04-10T14:43:15.000Z</time>
      </trkpt>
      <trkpt lon="7.029499942436814" lat="46.148117976263165">
        <ele>460.6000061035156</ele>
        <time>2013-04-10T14:43:20.000Z</time>
      </trkpt>
      <trkpt lon="7.029631957411766" lat="46.147641967982054">
        <ele>459.0</ele>
        <time>2013-04-10T14:43:27.000Z</time>
      </trkpt>
      <trkpt lon="7.029838990420103" lat="46.14727593027055">
        <ele>458.6000061035156</ele>
        <time>2013-04-10T14:43:34.000Z</time>
      </trkpt>
      <trkpt lon="7.030137972906232" lat="46.146657932549715">
        <ele>457.6000061035156</ele>
        <time>2013-04-10T14:43:44.000Z</time>
      </trkpt>
      <trkpt lon="7.030273927375674" lat="46.14615694619715">
        <ele>455.0</ele>
        <time>2013-04-10T14:43:53.000Z</time>
      </trkpt>
      <trkpt lon="7.030373923480511" lat="46.14579199813306">
        <ele>453.6000061035156</ele>
        <time>2013-04-10T14:44:00.000Z</time>
      </trkpt>
      <trkpt lon="7.030511973425746" lat="46.1452859826386">
        <ele>452.20001220703125</ele>
        <time>2013-04-10T14:44:09.000Z</time>
      </trkpt>
      <trkpt lon="7.030525971204042" lat="46.14523292519152">
        <ele>451.79998779296875</ele>
        <time>2013-04-10T14:44:10.000Z</time>
      </trkpt>
      <trkpt lon="7.030576933175325" lat="46.145048942416906">
        <ele>451.0</ele>
        <time>2013-04-10T14:44:15.000Z</time>
      </trkpt>
      <trkpt lon="7.030580956488848" lat="46.14503192715347">
        <ele>451.0</ele>
        <time>2013-04-10T14:44:17.000Z</time>
      </trkpt>
      <trkpt lon="7.0305839739739895" lat="46.14502094686031">
        <ele>450.79998779296875</ele>
        <time>2013-04-10T14:45:01.000Z</time>
      </trkpt>
      <trkpt lon="7.030628984794021" lat="46.14485791884363">
        <ele>450.79998779296875</ele>
        <time>2013-04-10T14:45:08.000Z</time>
      </trkpt>
      <trkpt lon="7.030453970655799" lat="46.14466496743262">
        <ele>451.79998779296875</ele>
        <time>2013-04-10T14:45:13.000Z</time>
      </trkpt>
      <trkpt lon="7.030511973425746" lat="46.144548961892724">
        <ele>451.79998779296875</ele>
        <time>2013-04-10T14:45:18.000Z</time>
      </trkpt>
      <trkpt lon="7.030255990102887" lat="46.14439498633146">
        <ele>453.20001220703125</ele>
        <time>2013-04-10T14:45:21.000Z</time>
      </trkpt>
      <trkpt lon="7.029907973483205" lat="46.14421594887972">
        <ele>455.3999938964844</ele>
        <time>2013-04-10T14:45:30.000Z</time>
      </trkpt>
      <trkpt lon="7.029755925759673" lat="46.144147971645">
        <ele>456.79998779296875</ele>
        <time>2013-04-10T14:45:34.000Z</time>
      </trkpt>
      <trkpt lon="7.02959499321878" lat="46.14409399218857">
        <ele>458.0</ele>
        <time>2013-04-10T14:45:39.000Z</time>
      </trkpt>
      <trkpt lon="7.02959499321878" lat="46.14409399218857">
        <ele>458.0</ele>
        <time>2013-04-10T14:45:40.000Z</time>
      </trkpt>
      <trkpt lon="7.02959499321878" lat="46.14409399218857">
        <ele>458.0</ele>
        <time>2013-04-10T14:46:01.000Z</time>
      </trkpt>
      <trkpt lon="7.029491979628801" lat="46.1440649908036">
        <ele>458.79998779296875</ele>
        <time>2013-04-10T14:46:13.000Z</time>
      </trkpt>
      <trkpt lon="7.029467923566699" lat="46.144058955833316">
        <ele>459.0</ele>
        <time>2013-04-10T14:46:18.000Z</time>
      </trkpt>
      <trkpt lon="7.029502959921956" lat="46.14406792446971">
        <ele>458.6000061035156</ele>
        <time>2013-04-10T14:54:52.000Z</time>
      </trkpt>
      <trkpt lon="7.029408998787403" lat="46.14404395222664">
        <ele>459.3999938964844</ele>
        <time>2013-04-10T14:54:54.000Z</time>
      </trkpt>
      <trkpt lon="7.02931797131896" lat="46.14402199164033">
        <ele>460.0</ele>
        <time>2013-04-10T14:54:57.000Z</time>
      </trkpt>
      <trkpt lon="7.029268937185407" lat="46.1438939999789">
        <ele>460.3999938964844</ele>
        <time>2013-04-10T14:55:01.000Z</time>
      </trkpt>
      <trkpt lon="7.029296932742" lat="46.14384496584535">
        <ele>460.20001220703125</ele>
        <time>2013-04-10T14:55:04.000Z</time>
      </trkpt>
      <trkpt lon="7.029296932742" lat="46.14384496584535">
        <ele>460.20001220703125</ele>
        <time>2013-04-10T14:55:08.000Z</time>
      </trkpt>
      <trkpt lon="7.030691932886839" lat="46.144208991900086">
        <ele>451.6000061035156</ele>
        <time>2013-04-10T14:55:12.000Z</time>
      </trkpt>
      <trkpt lon="7.029541935771704" lat="46.14360993728042">
        <ele>503.0</ele>
        <time>2013-04-10T14:55:17.000Z</time>
      </trkpt>
      <trkpt lon="7.029541935771704" lat="46.14360993728042">
        <ele>503.0</ele>
        <time>2013-04-10T14:55:21.000Z</time>
      </trkpt>
      <trkpt lon="7.030691932886839" lat="46.144208991900086">
        <ele>451.6000061035156</ele>
        <time>2013-04-10T14:55:24.000Z</time>
      </trkpt>
      <trkpt lon="7.030933918431401" lat="46.143736923113465">
        <ele>451.6000061035156</ele>
        <time>2013-04-10T14:55:30.000Z</time>
      </trkpt>
      <trkpt lon="7.029626928269863" lat="46.14349099807441">
        <ele>502.6000061035156</ele>
        <time>2013-04-10T14:55:33.000Z</time>
      </trkpt>
      <trkpt lon="7.02974695712328" lat="46.143344985321164">
        <ele>495.0</ele>
        <time>2013-04-10T14:55:38.000Z</time>
      </trkpt>
      <trkpt lon="7.029822980985045" lat="46.14325094036758">
        <ele>486.0</ele>
        <time>2013-04-10T14:55:40.000Z</time>
      </trkpt>
      <trkpt lon="7.030012998729944" lat="46.143003925681114">
        <ele>463.79998779296875</ele>
        <time>2013-04-10T14:55:45.000Z</time>
      </trkpt>
      <trkpt lon="7.030213996767998" lat="46.14279898814857">
        <ele>464.20001220703125</ele>
        <time>2013-04-10T14:55:49.000Z</time>
      </trkpt>
      <trkpt lon="7.0304269809275866" lat="46.14260997623205">
        <ele>463.3999938964844</ele>
        <time>2013-04-10T14:55:53.000Z</time>
      </trkpt>
      <trkpt lon="7.030624961480498" lat="46.14254795014858">
        <ele>461.0</ele>
        <time>2013-04-10T14:55:56.000Z</time>
      </trkpt>
      <trkpt lon="7.030906928703189" lat="46.14227796904743">
        <ele>461.20001220703125</ele>
        <time>2013-04-10T14:56:00.000Z</time>
      </trkpt>
      <trkpt lon="7.030906928703189" lat="46.14204595796764">
        <ele>465.20001220703125</ele>
        <time>2013-04-10T14:56:06.000Z</time>
      </trkpt>
      <trkpt lon="7.030924949795008" lat="46.141886953264475">
        <ele>467.6000061035156</ele>
        <time>2013-04-10T14:56:09.000Z</time>
      </trkpt>
      <trkpt lon="7.0310569647699594" lat="46.141649996861815">
        <ele>469.20001220703125</ele>
        <time>2013-04-10T14:56:14.000Z</time>
      </trkpt>
      <trkpt lon="7.031270954757929" lat="46.14140499383211">
        <ele>470.20001220703125</ele>
        <time>2013-04-10T14:56:19.000Z</time>
      </trkpt>
      <trkpt lon="7.031441945582628" lat="46.14122796803713">
        <ele>469.20001220703125</ele>
        <time>2013-04-10T14:56:23.000Z</time>
      </trkpt>
      <trkpt lon="7.031590975821018" lat="46.14107893779874">
        <ele>467.79998779296875</ele>
        <time>2013-04-10T14:56:27.000Z</time>
      </trkpt>
      <trkpt lon="7.0317949913442135" lat="46.14087492227554">
        <ele>466.0</ele>
        <time>2013-04-10T14:56:33.000Z</time>
      </trkpt>
      <trkpt lon="7.031899932771921" lat="46.140769980847836">
        <ele>466.20001220703125</ele>
        <time>2013-04-10T14:56:37.000Z</time>
      </trkpt>
      <trkpt lon="7.032050974667072" lat="46.14058096893132">
        <ele>468.0</ele>
        <time>2013-04-10T14:56:44.000Z</time>
      </trkpt>
      <trkpt lon="7.03215298242867" lat="46.14046295173466">
        <ele>468.6000061035156</ele>
        <time>2013-04-10T14:56:49.000Z</time>
      </trkpt>
      <trkpt lon="7.032228922471404" lat="46.1403779592365">
        <ele>468.6000061035156</ele>
        <time>2013-04-10T14:56:52.000Z</time>
      </trkpt>
      <trkpt lon="7.032369989901781" lat="46.14027293398976">
        <ele>467.20001220703125</ele>
        <time>2013-04-10T14:56:55.000Z</time>
      </trkpt>
      <trkpt lon="7.032587919384241" lat="46.14011493511498">
        <ele>465.20001220703125</ele>
        <time>2013-04-10T14:56:59.000Z</time>
      </trkpt>
      <trkpt lon="7.032838957384229" lat="46.139931958168745">
        <ele>462.79998779296875</ele>
        <time>2013-04-10T14:57:03.000Z</time>
      </trkpt>
      <trkpt lon="7.032917998731136" lat="46.139820981770754">
        <ele>462.0</ele>
        <time>2013-04-10T14:57:05.000Z</time>
      </trkpt>
      <trkpt lon="7.033004919067025" lat="46.13953398540616">
        <ele>462.20001220703125</ele>
        <time>2013-04-10T14:57:10.000Z</time>
      </trkpt>
      <trkpt lon="7.03301296569407" lat="46.13936693407595">
        <ele>463.20001220703125</ele>
        <time>2013-04-10T14:57:13.000Z</time>
      </trkpt>
      <trkpt lon="7.032982958480716" lat="46.13923793658614">
        <ele>464.6000061035156</ele>
        <time>2013-04-10T14:57:16.000Z</time>
      </trkpt>
      <trkpt lon="7.03303299844265" lat="46.13894993439317">
        <ele>464.20001220703125</ele>
        <time>2013-04-10T14:57:20.000Z</time>
      </trkpt>
      <trkpt lon="7.033007936552167" lat="46.13875991664827">
        <ele>465.0</ele>
        <time>2013-04-10T14:57:23.000Z</time>
      </trkpt>
      <trkpt lon="7.033088989555836" lat="46.13852798938751">
        <ele>463.79998779296875</ele>
        <time>2013-04-10T14:57:27.000Z</time>
      </trkpt>
      <trkpt lon="7.033087983727455" lat="46.13841198384762">
        <ele>464.0</ele>
        <time>2013-04-10T14:57:29.000Z</time>
      </trkpt>
      <trkpt lon="7.033191919326782" lat="46.138259936124086">
        <ele>462.6000061035156</ele>
        <time>2013-04-10T14:57:34.000Z</time>
      </trkpt>
      <trkpt lon="7.033267943188548" lat="46.138252979144454">
        <ele>461.20001220703125</ele>
        <time>2013-04-10T14:57:37.000Z</time>
      </trkpt>
      <trkpt lon="7.033342961221933" lat="46.138081988319755">
        <ele>460.3999938964844</ele>
        <time>2013-04-10T14:57:43.000Z</time>
      </trkpt>
      <trkpt lon="7.034081993624568" lat="46.13798693753779">
        <ele>453.20001220703125</ele>
        <time>2013-04-10T14:57:47.000Z</time>
      </trkpt>
      <trkpt lon="7.03406891785562" lat="46.13800998777151">
        <ele>453.20001220703125</ele>
        <time>2013-04-10T14:57:53.000Z</time>
      </trkpt>
      <trkpt lon="7.03406891785562" lat="46.13800998777151">
        <ele>453.20001220703125</ele>
        <time>2013-04-10T14:57:54.000Z</time>
      </trkpt>
      <trkpt lon="7.034081993624568" lat="46.13798693753779">
        <ele>453.20001220703125</ele>
        <time>2013-04-10T14:58:00.000Z</time>
      </trkpt>
      <trkpt lon="7.033030986785889" lat="46.13798693753779">
        <ele>466.3999938964844</ele>
        <time>2013-04-10T14:58:03.000Z</time>
      </trkpt>
      <trkpt lon="7.033061999827623" lat="46.13764294423163">
        <ele>467.20001220703125</ele>
        <time>2013-04-10T14:58:09.000Z</time>
      </trkpt>
      <trkpt lon="7.033068956807256" lat="46.13762995228171">
        <ele>467.20001220703125</ele>
        <time>2013-04-10T14:58:10.000Z</time>
      </trkpt>
      <trkpt lon="7.033085972070694" lat="46.13760195672512">
        <ele>466.79998779296875</ele>
        <time>2013-04-10T14:58:16.000Z</time>
      </trkpt>
      <trkpt lon="7.033085972070694" lat="46.13760195672512">
        <ele>466.79998779296875</ele>
        <time>2013-04-10T14:58:18.000Z</time>
      </trkpt>
      <trkpt lon="7.033089995384216" lat="46.13759592175484">
        <ele>466.79998779296875</ele>
        <time>2013-04-10T14:58:28.000Z</time>
      </trkpt>
      <trkpt lon="7.0337599609047174" lat="46.13777797669172">
        <ele>456.79998779296875</ele>
        <time>2013-04-10T14:58:31.000Z</time>
      </trkpt>
      <trkpt lon="7.033859957009554" lat="46.137824999168515">
        <ele>455.6000061035156</ele>
        <time>2013-04-10T14:58:34.000Z</time>
      </trkpt>
      <trkpt lon="7.034144941717386" lat="46.13787897862494">
        <ele>452.6000061035156</ele>
        <time>2013-04-10T14:58:38.000Z</time>
      </trkpt>
      <trkpt lon="7.03417394310236" lat="46.137828938663006">
        <ele>452.3999938964844</ele>
        <time>2013-04-10T14:58:40.000Z</time>
      </trkpt>
      <trkpt lon="7.034334959462285" lat="46.137548983097076">
        <ele>452.3999938964844</ele>
        <time>2013-04-10T14:58:49.000Z</time>
      </trkpt>
      <trkpt lon="7.034350968897343" lat="46.13752098754048">
        <ele>452.3999938964844</ele>
        <time>2013-04-10T14:58:50.000Z</time>
      </trkpt>
      <trkpt lon="7.034281985834241" lat="46.13741495646536">
        <ele>453.3999938964844</ele>
        <time>2013-04-10T14:58:54.000Z</time>
      </trkpt>
      <trkpt lon="7.034407965838909" lat="46.13742099143565">
        <ele>452.79998779296875</ele>
        <time>2013-04-10T14:58:57.000Z</time>
      </trkpt>
      <trkpt lon="7.034536963328719" lat="46.13719493150711">
        <ele>453.79998779296875</ele>
        <time>2013-04-10T14:59:04.000Z</time>
      </trkpt>
      <trkpt lon="7.034708959981799" lat="46.13689293153584">
        <ele>454.20001220703125</ele>
        <time>2013-04-10T14:59:11.000Z</time>
      </trkpt>
      <trkpt lon="7.034975923597813" lat="46.13642195239663">
        <ele>453.3999938964844</ele>
        <time>2013-04-10T14:59:21.000Z</time>
      </trkpt>
      <trkpt lon="7.035217992961407" lat="46.135999923571944">
        <ele>454.0</ele>
        <time>2013-04-10T14:59:30.000Z</time>
      </trkpt>
      <trkpt lon="7.035509934648871" lat="46.13548192195594">
        <ele>454.0</ele>
        <time>2013-04-10T14:59:41.000Z</time>
      </trkpt>
      <trkpt lon="7.03571998514235" lat="46.13511295057833">
        <ele>454.6000061035156</ele>
        <time>2013-04-10T14:59:49.000Z</time>
      </trkpt>
      <trkpt lon="7.035898938775063" lat="46.13480499945581">
        <ele>454.3999938964844</ele>
        <time>2013-04-10T14:59:56.000Z</time>
      </trkpt>
      <trkpt lon="7.035970939323306" lat="46.13468195311725">
        <ele>454.0</ele>
        <time>2013-04-10T15:00:01.000Z</time>
      </trkpt>
      <trkpt lon="7.035505995154381" lat="46.134262941777706">
        <ele>454.79998779296875</ele>
        <time>2013-04-10T15:00:09.000Z</time>
      </trkpt>
      <trkpt lon="7.035302985459566" lat="46.13401198759675">
        <ele>457.6000061035156</ele>
        <time>2013-04-10T15:00:16.000Z</time>
      </trkpt>
      <trkpt lon="7.035141969099641" lat="46.133979968726635">
        <ele>458.79998779296875</ele>
        <time>2013-04-10T15:00:22.000Z</time>
      </trkpt>
      <trkpt lon="7.035111961886287" lat="46.13397393375635">
        <ele>459.0</ele>
        <time>2013-04-10T15:00:30.000Z</time>
      </trkpt>
      <trkpt lon="7.035111961886287" lat="46.13397393375635">
        <ele>459.0</ele>
        <time>2013-04-10T15:00:36.000Z</time>
      </trkpt>
      <trkpt lon="7.034698985517025" lat="46.133895982056856">
        <ele>471.3999938964844</ele>
        <time>2013-04-10T15:00:42.000Z</time>
      </trkpt>
      <trkpt lon="7.034562947228551" lat="46.133871925994754">
        <ele>477.20001220703125</ele>
        <time>2013-04-10T15:00:49.000Z</time>
      </trkpt>
      <trkpt lon="7.0344429183751345" lat="46.133872931823134">
        <ele>481.3999938964844</ele>
        <time>2013-04-10T15:00:56.000Z</time>
      </trkpt>
      <trkpt lon="7.034294977784157" lat="46.13388299010694">
        <ele>486.3999938964844</ele>
        <time>2013-04-10T15:01:03.000Z</time>
      </trkpt>
      <trkpt lon="7.034179978072643" lat="46.133894976228476">
        <ele>489.79998779296875</ele>
        <time>2013-04-10T15:01:09.000Z</time>
      </trkpt>
      <trkpt lon="7.0340559259057045" lat="46.133918948471546">
        <ele>493.6000061035156</ele>
        <time>2013-04-10T15:01:16.000Z</time>
      </trkpt>
      <trkpt lon="7.0340559259057045" lat="46.133918948471546">
        <ele>493.6000061035156</ele>
        <time>2013-04-10T15:01:18.000Z</time>
      </trkpt>
      <trkpt lon="7.0340559259057045" lat="46.133918948471546">
        <ele>493.6000061035156</ele>
        <time>2013-04-10T15:01:22.000Z</time>
      </trkpt>
      <trkpt lon="7.034057937562466" lat="46.133918948471546">
        <ele>493.3999938964844</ele>
        <time>2013-04-10T15:01:55.000Z</time>
      </trkpt>
      <trkpt lon="7.033922988921404" lat="46.13397192209959">
        <ele>496.0</ele>
        <time>2013-04-10T15:02:02.000Z</time>
      </trkpt>
      <trkpt lon="7.033886946737766" lat="46.13399195484817">
        <ele>496.20001220703125</ele>
        <time>2013-04-10T15:02:04.000Z</time>
      </trkpt>
      <trkpt lon="7.033779993653297" lat="46.13407795317471">
        <ele>495.0</ele>
        <time>2013-04-10T15:02:11.000Z</time>
      </trkpt>
      <trkpt lon="7.033718973398209" lat="46.13418096676469">
        <ele>491.20001220703125</ele>
        <time>2013-04-10T15:02:18.000Z</time>
      </trkpt>
      <trkpt lon="7.033660970628262" lat="46.134279957041144">
        <ele>490.6000061035156</ele>
        <time>2013-04-10T15:02:24.000Z</time>
      </trkpt>
      <trkpt lon="7.033623922616243" lat="46.134342988952994">
        <ele>490.20001220703125</ele>
        <time>2013-04-10T15:02:29.000Z</time>
      </trkpt>
      <trkpt lon="7.0335399359464645" lat="46.13442496396601">
        <ele>490.6000061035156</ele>
        <time>2013-04-10T15:02:35.000Z</time>
      </trkpt>
      <trkpt lon="7.03350598923862" lat="46.13441498950124">
        <ele>492.0</ele>
        <time>2013-04-10T15:02:40.000Z</time>
      </trkpt>
      <trkpt lon="7.033631969243288" lat="46.1343289911747">
        <ele>490.20001220703125</ele>
        <time>2013-04-10T15:04:52.000Z</time>
      </trkpt>
      <trkpt lon="7.033650996163487" lat="46.13429797813296">
        <ele>490.3999938964844</ele>
        <time>2013-04-10T15:04:57.000Z</time>
      </trkpt>
      <trkpt lon="7.0336889661848545" lat="46.13423092290759">
        <ele>491.0</ele>
        <time>2013-04-10T15:05:03.000Z</time>
      </trkpt>
      <trkpt lon="7.033585952594876" lat="46.13411198370159">
        <ele>500.6000061035156</ele>
        <time>2013-04-10T15:05:10.000Z</time>
      </trkpt>
      <trkpt lon="7.033646972849965" lat="46.134022967889905">
        <ele>504.20001220703125</ele>
        <time>2013-04-10T15:05:18.000Z</time>
      </trkpt>
      <trkpt lon="7.033733977004886" lat="46.13390595652163">
        <ele>508.20001220703125</ele>
        <time>2013-04-10T15:05:27.000Z</time>
      </trkpt>
      <trkpt lon="7.0338259264826775" lat="46.133789950981736">
        <ele>511.79998779296875</ele>
        <time>2013-04-10T15:05:35.000Z</time>
      </trkpt>
      <trkpt lon="7.033898932859302" lat="46.13369892351329">
        <ele>514.4000244140625</ele>
        <time>2013-04-10T15:05:41.000Z</time>
      </trkpt>
      <trkpt lon="7.034007981419563" lat="46.13356196321547">
        <ele>517.7999877929688</ele>
        <time>2013-04-10T15:05:51.000Z</time>
      </trkpt>
      <trkpt lon="7.034027930349112" lat="46.1335379909724">
        <ele>518.4000244140625</ele>
        <time>2013-04-10T15:05:53.000Z</time>
      </trkpt>
      <trkpt lon="7.034039916470647" lat="46.13350194878876">
        <ele>520.0</ele>
        <time>2013-04-10T15:05:58.000Z</time>
      </trkpt>
      <trkpt lon="7.034029942005873" lat="46.13350194878876">
        <ele>520.5999755859375</ele>
        <time>2013-04-10T15:06:00.000Z</time>
      </trkpt>
      <trkpt lon="7.03393598087132" lat="46.13354293629527">
        <ele>522.5999755859375</ele>
        <time>2013-04-10T15:06:08.000Z</time>
      </trkpt>
      <trkpt lon="7.033922988921404" lat="46.133550982922316">
        <ele>522.5999755859375</ele>
        <time>2013-04-10T15:06:10.000Z</time>
      </trkpt>
      <trkpt lon="7.033824920654297" lat="46.13361996598542">
        <ele>523.0</ele>
        <time>2013-04-10T15:06:17.000Z</time>
      </trkpt>
      <trkpt lon="7.033702963963151" lat="46.13371199928224">
        <ele>522.5999755859375</ele>
        <time>2013-04-10T15:06:25.000Z</time>
      </trkpt>
      <trkpt lon="7.033639932051301" lat="46.13375893794">
        <ele>522.4000244140625</ele>
        <time>2013-04-10T15:06:31.000Z</time>
      </trkpt>
      <trkpt lon="7.0335599686950445" lat="46.133831944316626">
        <ele>521.0</ele>
        <time>2013-04-10T15:06:38.000Z</time>
      </trkpt>
      <trkpt lon="7.0334789995104074" lat="46.133912997320294">
        <ele>518.7999877929688</ele>
        <time>2013-04-10T15:06:45.000Z</time>
      </trkpt>
      <trkpt lon="7.033416973426938" lat="46.13397493958473">
        <ele>517.2000122070312</ele>
        <time>2013-04-10T15:06:51.000Z</time>
      </trkpt>
      <trkpt lon="7.033331980928779" lat="46.13405892625451">
        <ele>514.7999877929688</ele>
        <time>2013-04-10T15:06:59.000Z</time>
      </trkpt>
      <trkpt lon="7.033235924318433" lat="46.13415498286486">
        <ele>514.2000122070312</ele>
        <time>2013-04-10T15:07:06.000Z</time>
      </trkpt>
      <trkpt lon="7.033213963732123" lat="46.13417794927955">
        <ele>514.4000244140625</ele>
        <time>2013-04-10T15:07:08.000Z</time>
      </trkpt>
      <trkpt lon="7.033182950690389" lat="46.1342079564929">
        <ele>515.2000122070312</ele>
        <time>2013-04-10T15:07:11.000Z</time>
      </trkpt>
      <trkpt lon="7.033143974840641" lat="46.134129920974374">
        <ele>522.0</ele>
        <time>2013-04-10T15:07:17.000Z</time>
      </trkpt>
      <trkpt lon="7.033231984823942" lat="46.134022967889905">
        <ele>523.5999755859375</ele>
        <time>2013-04-10T15:07:25.000Z</time>
      </trkpt>
      <trkpt lon="7.0333099365234375" lat="46.13392699509859">
        <ele>525.5999755859375</ele>
        <time>2013-04-10T15:07:33.000Z</time>
      </trkpt>
      <trkpt lon="7.033393923193216" lat="46.133825993165374">
        <ele>528.7999877929688</ele>
        <time>2013-04-10T15:07:41.000Z</time>
      </trkpt>
      <trkpt lon="7.033452931791544" lat="46.13372893072665">
        <ele>533.0</ele>
        <time>2013-04-10T15:07:48.000Z</time>
      </trkpt>
      <trkpt lon="7.033522920683026" lat="46.13363295793533">
        <ele>536.4000244140625</ele>
        <time>2013-04-10T15:07:55.000Z</time>
      </trkpt>
      <trkpt lon="7.033596932888031" lat="46.133528938516974">
        <ele>540.0</ele>
        <time>2013-04-10T15:08:03.000Z</time>
      </trkpt>
      <trkpt lon="7.033639932051301" lat="46.133442940190434">
        <ele>543.5999755859375</ele>
        <time>2013-04-10T15:08:10.000Z</time>
      </trkpt>
      <trkpt lon="7.033682931214571" lat="46.133356941863894">
        <ele>547.2000122070312</ele>
        <time>2013-04-10T15:08:16.000Z</time>
      </trkpt>
      <trkpt lon="7.03376792371273" lat="46.13327697850764">
        <ele>549.2000122070312</ele>
        <time>2013-04-10T15:08:22.000Z</time>
      </trkpt>
      <trkpt lon="7.033805977553129" lat="46.133246971294284">
        <ele>550.2000122070312</ele>
        <time>2013-04-10T15:08:26.000Z</time>
      </trkpt>
      <trkpt lon="7.033887952566147" lat="46.13318092189729">
        <ele>552.7999877929688</ele>
        <time>2013-04-10T15:08:34.000Z</time>
      </trkpt>
      <trkpt lon="7.034016950055957" lat="46.13309492357075">
        <ele>556.7999877929688</ele>
        <time>2013-04-10T15:08:43.000Z</time>
      </trkpt>
      <trkpt lon="7.034060955047607" lat="46.13302996382117">
        <ele>562.4000244140625</ele>
        <time>2013-04-10T15:08:48.000Z</time>
      </trkpt>
      <trkpt lon="7.034039916470647" lat="46.13300892524421">
        <ele>565.2000122070312</ele>
        <time>2013-04-10T15:08:53.000Z</time>
      </trkpt>
      <trkpt lon="7.033971939235926" lat="46.13302292302251">
        <ele>565.4000244140625</ele>
        <time>2013-04-10T15:08:58.000Z</time>
      </trkpt>
      <trkpt lon="7.033933969214559" lat="46.13304396159947">
        <ele>564.4000244140625</ele>
        <time>2013-04-10T15:09:01.000Z</time>
      </trkpt>
      <trkpt lon="7.033863980323076" lat="46.13308494910598">
        <ele>562.5999755859375</ele>
        <time>2013-04-10T15:09:07.000Z</time>
      </trkpt>
      <trkpt lon="7.03372199088335" lat="46.13306298851967">
        <ele>568.7999877929688</ele>
        <time>2013-04-10T15:09:13.000Z</time>
      </trkpt>
      <trkpt lon="7.033642949536443" lat="46.13311596214771">
        <ele>567.2000122070312</ele>
        <time>2013-04-10T15:09:19.000Z</time>
      </trkpt>
      <trkpt lon="7.033546976745129" lat="46.13318997435272">
        <ele>565.4000244140625</ele>
        <time>2013-04-10T15:09:25.000Z</time>
      </trkpt>
      <trkpt lon="7.033531973138452" lat="46.13320296630263">
        <ele>565.2000122070312</ele>
        <time>2013-04-10T15:09:26.000Z</time>
      </trkpt>
      <trkpt lon="7.033562986180186" lat="46.1331769824028">
        <ele>565.5999755859375</ele>
        <time>2013-04-10T15:09:31.000Z</time>
      </trkpt>
      <trkpt lon="7.033750992268324" lat="46.133160972967744">
        <ele>559.7999877929688</ele>
        <time>2013-04-10T15:09:38.000Z</time>
      </trkpt>
      <trkpt lon="7.033810922876" lat="46.133118979632854">
        <ele>561.2000122070312</ele>
        <time>2013-04-10T15:09:44.000Z</time>
      </trkpt>
      <trkpt lon="7.033810922876" lat="46.133118979632854">
        <ele>561.2000122070312</ele>
        <time>2013-04-10T15:09:45.000Z</time>
      </trkpt>
      <trkpt lon="7.033777981996536" lat="46.13302895799279">
        <ele>570.0</ele>
        <time>2013-04-10T15:09:51.000Z</time>
      </trkpt>
      <trkpt lon="7.033884935081005" lat="46.1329679377377">
        <ele>573.0</ele>
        <time>2013-04-10T15:09:59.000Z</time>
      </trkpt>
      <trkpt lon="7.033910918980837" lat="46.13294396549463">
        <ele>574.7999877929688</ele>
        <time>2013-04-10T15:10:02.000Z</time>
      </trkpt>
      <trkpt lon="7.033910918980837" lat="46.13292393274605">
        <ele>576.5999755859375</ele>
        <time>2013-04-10T15:10:07.000Z</time>
      </trkpt>
      <trkpt lon="7.033885940909386" lat="46.1329319793731">
        <ele>576.4000244140625</ele>
        <time>2013-04-10T15:10:09.000Z</time>
      </trkpt>
      <trkpt lon="7.033796925097704" lat="46.13301797769964">
        <ele>570.4000244140625</ele>
        <time>2013-04-10T15:10:16.000Z</time>
      </trkpt>
      <trkpt lon="7.03374395146966" lat="46.13304899074137">
        <ele>569.2000122070312</ele>
        <time>2013-04-10T15:10:21.000Z</time>
      </trkpt>
      <trkpt lon="7.03361495397985" lat="46.13296198658645">
        <ele>579.2000122070312</ele>
        <time>2013-04-10T15:10:25.000Z</time>
      </trkpt>
      <trkpt lon="7.033584946766496" lat="46.132991993799806">
        <ele>577.7999877929688</ele>
        <time>2013-04-10T15:10:31.000Z</time>
      </trkpt>
      <trkpt lon="7.03352996148169" lat="46.13304597325623">
        <ele>575.5999755859375</ele>
        <time>2013-04-10T15:10:38.000Z</time>
      </trkpt>
      <trkpt lon="7.033489979803562" lat="46.13308997824788">
        <ele>574.0</ele>
        <time>2013-04-10T15:10:41.000Z</time>
      </trkpt>
      <trkpt lon="7.033550916239619" lat="46.133186956867576">
        <ele>565.4000244140625</ele>
        <time>2013-04-10T15:10:45.000Z</time>
      </trkpt>
      <trkpt lon="7.033475982025266" lat="46.133141946047544">
        <ele>571.2000122070312</ele>
        <time>2013-04-10T15:10:49.000Z</time>
      </trkpt>
      <trkpt lon="7.033474976196885" lat="46.13310992717743">
        <ele>573.2000122070312</ele>
        <time>2013-04-10T15:10:53.000Z</time>
      </trkpt>
      <trkpt lon="7.033522920683026" lat="46.13305293023586">
        <ele>575.2000122070312</ele>
        <time>2013-04-10T15:11:00.000Z</time>
      </trkpt>
      <trkpt lon="7.0335829351097345" lat="46.132992999628186">
        <ele>577.7999877929688</ele>
        <time>2013-04-10T15:11:06.000Z</time>
      </trkpt>
      <trkpt lon="7.033621994778514" lat="46.13295393995941">
        <ele>579.5999755859375</ele>
        <time>2013-04-10T15:11:11.000Z</time>
      </trkpt>
      <trkpt lon="7.03359592705965" lat="46.13279392942786">
        <ele>591.5999755859375</ele>
        <time>2013-04-10T15:11:19.000Z</time>
      </trkpt>
      <trkpt lon="7.033613948151469" lat="46.132779931649566">
        <ele>592.4000244140625</ele>
        <time>2013-04-10T15:11:25.000Z</time>
      </trkpt>
      <trkpt lon="7.033613948151469" lat="46.132779931649566">
        <ele>592.4000244140625</ele>
        <time>2013-04-10T15:11:26.000Z</time>
      </trkpt>
      <trkpt lon="7.033808995038271" lat="46.1328799277544">
        <ele>582.4000244140625</ele>
        <time>2013-04-10T15:11:32.000Z</time>
      </trkpt>
      <trkpt lon="7.033942937850952" lat="46.13300993107259">
        <ele>567.5999755859375</ele>
        <time>2013-04-10T15:11:40.000Z</time>
      </trkpt>
      <trkpt lon="7.03397998586297" lat="46.13302594050765">
        <ele>565.0</ele>
        <time>2013-04-10T15:11:43.000Z</time>
      </trkpt>
      <trkpt lon="7.0340099930763245" lat="46.13300892524421">
        <ele>566.0</ele>
        <time>2013-04-10T15:11:47.000Z</time>
      </trkpt>
      <trkpt lon="7.034005969762802" lat="46.13294295966625">
        <ele>573.0</ele>
        <time>2013-04-10T15:11:52.000Z</time>
      </trkpt>
      <trkpt lon="7.033910918980837" lat="46.13292192108929">
        <ele>576.7999877929688</ele>
        <time>2013-04-10T15:11:57.000Z</time>
      </trkpt>
      <trkpt lon="7.033910918980837" lat="46.13292192108929">
        <ele>576.7999877929688</ele>
        <time>2013-04-10T15:12:03.000Z</time>
      </trkpt>
      <trkpt lon="7.033762978389859" lat="46.133037926629186">
        <ele>569.5999755859375</ele>
        <time>2013-04-10T15:12:09.000Z</time>
      </trkpt>
      <trkpt lon="7.033737916499376" lat="46.13305192440748">
        <ele>569.2000122070312</ele>
        <time>2013-04-10T15:12:13.000Z</time>
      </trkpt>
      <trkpt lon="7.033603973686695" lat="46.132971961051226">
        <ele>578.7999877929688</ele>
        <time>2013-04-10T15:12:17.000Z</time>
      </trkpt>
      <trkpt lon="7.0335249323397875" lat="46.13291094079614">
        <ele>584.4000244140625</ele>
        <time>2013-04-10T15:12:23.000Z</time>
      </trkpt>
      <trkpt lon="7.0334309712052345" lat="46.13285595551133">
        <ele>589.2000122070312</ele>
        <time>2013-04-10T15:12:29.000Z</time>
      </trkpt>
      <trkpt lon="7.033363999798894" lat="46.13281496800482">
        <ele>592.2000122070312</ele>
        <time>2013-04-10T15:12:34.000Z</time>
      </trkpt>
      <trkpt lon="7.03327196650207" lat="46.13271991722286">
        <ele>599.4000244140625</ele>
        <time>2013-04-10T15:12:35.000Z</time>
      </trkpt>
      <trkpt lon="7.0332669373601675" lat="46.132754953578115">
        <ele>597.7999877929688</ele>
        <time>2013-04-10T15:12:42.000Z</time>
      </trkpt>
      <trkpt lon="7.033226955682039" lat="46.13273994997144">
        <ele>600.2000122070312</ele>
        <time>2013-04-10T15:12:48.000Z</time>
      </trkpt>
      <trkpt lon="7.033226955682039" lat="46.13273994997144">
        <ele>600.2000122070312</ele>
        <time>2013-04-10T15:12:54.000Z</time>
      </trkpt>
      <trkpt lon="7.033067950978875" lat="46.13287799991667">
        <ele>600.2000122070312</ele>
        <time>2013-04-10T15:13:01.000Z</time>
      </trkpt>
      <trkpt lon="7.033046996220946" lat="46.13295896910131">
        <ele>597.5999755859375</ele>
        <time>2013-04-10T15:13:07.000Z</time>
      </trkpt>
      <trkpt lon="7.033030986785889" lat="46.13306692801416">
        <ele>593.7999877929688</ele>
        <time>2013-04-10T15:13:15.000Z</time>
      </trkpt>
      <trkpt lon="7.033030986785889" lat="46.133118979632854">
        <ele>591.5999755859375</ele>
        <time>2013-04-10T15:13:21.000Z</time>
      </trkpt>
      <trkpt lon="7.032962925732136" lat="46.133160972967744">
        <ele>593.0</ele>
        <time>2013-04-10T15:13:28.000Z</time>
      </trkpt>
      <trkpt lon="7.0329509396106005" lat="46.133101964369416">
        <ele>596.0</ele>
        <time>2013-04-10T15:13:32.000Z</time>
      </trkpt>
      <trkpt lon="7.033030986785889" lat="46.1330699454993">
        <ele>593.5999755859375</ele>
        <time>2013-04-10T15:13:34.000Z</time>
      </trkpt>
      <trkpt lon="7.033041967079043" lat="46.1329869646579">
        <ele>596.5999755859375</ele>
        <time>2013-04-10T15:13:40.000Z</time>
      </trkpt>
      <trkpt lon="7.033054959028959" lat="46.13291496410966">
        <ele>599.2000122070312</ele>
        <time>2013-04-10T15:13:47.000Z</time>
      </trkpt>
      <trkpt lon="7.033073985949159" lat="46.13285796716809">
        <ele>600.7999877929688</ele>
        <time>2013-04-10T15:13:53.000Z</time>
      </trkpt>
      <trkpt lon="7.032955968752503" lat="46.132779931649566">
        <ele>608.7999877929688</ele>
        <time>2013-04-10T15:14:00.000Z</time>
      </trkpt>
      <trkpt lon="7.032983964309096" lat="46.132730981335044">
        <ele>609.7999877929688</ele>
        <time>2013-04-10T15:14:07.000Z</time>
      </trkpt>
      <trkpt lon="7.032994944602251" lat="46.132711954414845">
        <ele>610.0</ele>
        <time>2013-04-10T15:14:12.000Z</time>
      </trkpt>
      <trkpt lon="7.032994944602251" lat="46.132711954414845">
        <ele>610.0</ele>
        <time>2013-04-10T15:14:13.000Z</time>
      </trkpt>
      <trkpt lon="7.0330519415438175" lat="46.13264397718012">
        <ele>610.7999877929688</ele>
        <time>2013-04-10T15:14:20.000Z</time>
      </trkpt>
      <trkpt lon="7.033066945150495" lat="46.13262997940183">
        <ele>611.0</ele>
        <time>2013-04-10T15:14:23.000Z</time>
      </trkpt>
      <trkpt lon="7.033295938745141" lat="46.13270994275808">
        <ele>599.0</ele>
        <time>2013-04-10T15:14:30.000Z</time>
      </trkpt>
      <trkpt lon="7.033368945121765" lat="46.13267691805959">
        <ele>599.2000122070312</ele>
        <time>2013-04-10T15:14:35.000Z</time>
      </trkpt>
      <trkpt lon="7.03342099674046" lat="46.13266199827194">
        <ele>600.2000122070312</ele>
        <time>2013-04-10T15:14:39.000Z</time>
      </trkpt>
      <trkpt lon="7.033450920134783" lat="46.1326589807868">
        <ele>600.5999755859375</ele>
        <time>2013-04-10T15:14:45.000Z</time>
      </trkpt>
      <trkpt lon="7.033450920134783" lat="46.1326589807868">
        <ele>600.5999755859375</ele>
        <time>2013-04-10T15:14:47.000Z</time>
      </trkpt>
      <trkpt lon="7.033273978158832" lat="46.13271899521351">
        <ele>599.4000244140625</ele>
        <time>2013-04-10T15:14:55.000Z</time>
      </trkpt>
      <trkpt lon="7.033252939581871" lat="46.13272896967828">
        <ele>599.5999755859375</ele>
        <time>2013-04-10T15:15:00.000Z</time>
      </trkpt>
      <trkpt lon="7.033202983438969" lat="46.13275093026459">
        <ele>600.5999755859375</ele>
        <time>2013-04-10T15:15:06.000Z</time>
      </trkpt>
      <trkpt lon="7.033058982342482" lat="46.13263693638146">
        <ele>611.0</ele>
        <time>2013-04-10T15:15:10.000Z</time>
      </trkpt>
      <trkpt lon="7.033060993999243" lat="46.1326349247247">
        <ele>611.0</ele>
        <time>2013-04-10T15:15:13.000Z</time>
      </trkpt>
      <trkpt lon="7.0329229440540075" lat="46.132564935833216">
        <ele>618.5999755859375</ele>
        <time>2013-04-10T15:15:18.000Z</time>
      </trkpt>
      <trkpt lon="7.032824959605932" lat="46.13259796053171">
        <ele>620.5999755859375</ele>
        <time>2013-04-10T15:15:24.000Z</time>
      </trkpt>
      <trkpt lon="7.032815990969539" lat="46.13260097801685">
        <ele>620.7999877929688</ele>
        <time>2013-04-10T15:15:27.000Z</time>
      </trkpt>
      <trkpt lon="7.032812973484397" lat="46.132710948586464">
        <ele>617.0</ele>
        <time>2013-04-10T15:15:32.000Z</time>
      </trkpt>
      <trkpt lon="7.032848931849003" lat="46.1325899977237">
        <ele>620.2000122070312</ele>
        <time>2013-04-10T15:15:41.000Z</time>
      </trkpt>
      <trkpt lon="7.032944988459349" lat="46.13255797885358">
        <ele>618.2000122070312</ele>
        <time>2013-04-10T15:15:50.000Z</time>
      </trkpt>
      <trkpt lon="7.032961919903755" lat="46.13254792056978">
        <ele>618.0</ele>
        <time>2013-04-10T15:15:55.000Z</time>
      </trkpt>
      <trkpt lon="7.032961919903755" lat="46.13254792056978">
        <ele>618.0</ele>
        <time>2013-04-10T15:16:00.000Z</time>
      </trkpt>
      <trkpt lon="7.032961919903755" lat="46.13254792056978">
        <ele>618.0</ele>
        <time>2013-04-10T15:16:01.000Z</time>
      </trkpt>
      <trkpt lon="7.033085972070694" lat="46.132472986355424">
        <ele>618.2000122070312</ele>
        <time>2013-04-10T15:16:06.000Z</time>
      </trkpt>
      <trkpt lon="7.033097958192229" lat="46.13246594555676">
        <ele>618.4000244140625</ele>
        <time>2013-04-10T15:16:14.000Z</time>
      </trkpt>
      <trkpt lon="7.033097958192229" lat="46.13246594555676">
        <ele>618.4000244140625</ele>
        <time>2013-04-10T15:16:16.000Z</time>
      </trkpt>
      <trkpt lon="7.033287975937128" lat="46.13265596330166">
        <ele>601.7999877929688</ele>
        <time>2013-04-10T15:16:22.000Z</time>
      </trkpt>
      <trkpt lon="7.03329199925065" lat="46.13265696913004">
        <ele>601.5999755859375</ele>
        <time>2013-04-10T15:16:23.000Z</time>
      </trkpt>
      <trkpt lon="7.033211952075362" lat="46.1327469907701">
        <ele>600.4000244140625</ele>
        <time>2013-04-10T15:16:32.000Z</time>
      </trkpt>
      <trkpt lon="7.033202983438969" lat="46.13275093026459">
        <ele>600.5999755859375</ele>
        <time>2013-04-10T15:16:39.000Z</time>
      </trkpt>
      <trkpt lon="7.033202983438969" lat="46.13275093026459">
        <ele>600.5999755859375</ele>
        <time>2013-04-10T15:16:45.000Z</time>
      </trkpt>
      <trkpt lon="7.032976923510432" lat="46.132538951933384">
        <ele>617.7999877929688</ele>
        <time>2013-04-10T15:16:50.000Z</time>
      </trkpt>
      <trkpt lon="7.032860917970538" lat="46.13248991779983">
        <ele>624.0</ele>
        <time>2013-04-10T15:16:58.000Z</time>
      </trkpt>
      <trkpt lon="7.032853960990906" lat="46.13249293528497">
        <ele>624.0</ele>
        <time>2013-04-10T15:16:59.000Z</time>
      </trkpt>
      <trkpt lon="7.032830994576216" lat="46.13250299356878">
        <ele>624.0</ele>
        <time>2013-04-10T15:17:01.000Z</time>
      </trkpt>
      <trkpt lon="7.032814985141158" lat="46.13250995054841">
        <ele>624.4000244140625</ele>
        <time>2013-04-10T15:17:04.000Z</time>
      </trkpt>
      <trkpt lon="7.032672995701432" lat="46.13255596719682">
        <ele>627.4000244140625</ele>
        <time>2013-04-10T15:17:13.000Z</time>
      </trkpt>
      <trkpt lon="7.032640976831317" lat="46.13255093805492">
        <ele>628.5999755859375</ele>
        <time>2013-04-10T15:17:18.000Z</time>
      </trkpt>
      <trkpt lon="7.032569982111454" lat="46.13245094195008">
        <ele>635.7999877929688</ele>
        <time>2013-04-10T15:17:23.000Z</time>
      </trkpt>
      <trkpt lon="7.032589931041002" lat="46.13245094195008">
        <ele>635.2000122070312</ele>
        <time>2013-04-10T15:17:28.000Z</time>
      </trkpt>
      <trkpt lon="7.032613987103105" lat="46.13244297914207">
        <ele>635.0</ele>
        <time>2013-04-10T15:17:31.000Z</time>
      </trkpt>
      <trkpt lon="7.032644916325808" lat="46.13242395222187">
        <ele>635.4000244140625</ele>
        <time>2013-04-10T15:17:37.000Z</time>
      </trkpt>
      <trkpt lon="7.032689927145839" lat="46.13239595666528">
        <ele>636.0</ele>
        <time>2013-04-10T15:17:41.000Z</time>
      </trkpt>
      <trkpt lon="7.032839963212609" lat="46.132326973602176">
        <ele>637.0</ele>
        <time>2013-04-10T15:17:50.000Z</time>
      </trkpt>
      <trkpt lon="7.0328569784760475" lat="46.13232295028865">
        <ele>637.0</ele>
        <time>2013-04-10T15:17:51.000Z</time>
      </trkpt>
      <trkpt lon="7.032909952104092" lat="46.13230895251036">
        <ele>636.5999755859375</ele>
        <time>2013-04-10T15:17:54.000Z</time>
      </trkpt>
      <trkpt lon="7.032966949045658" lat="46.13229193724692">
        <ele>636.5999755859375</ele>
        <time>2013-04-10T15:18:00.000Z</time>
      </trkpt>
      <trkpt lon="7.032966949045658" lat="46.13229193724692">
        <ele>636.5999755859375</ele>
        <time>2013-04-10T15:18:02.000Z</time>
      </trkpt>
      <trkpt lon="7.033136934041977" lat="46.13223594613373">
        <ele>637.4000244140625</ele>
        <time>2013-04-10T15:18:11.000Z</time>
      </trkpt>
      <trkpt lon="7.0332239381968975" lat="46.132278945297">
        <ele>631.4000244140625</ele>
        <time>2013-04-10T15:18:19.000Z</time>
      </trkpt>
      <trkpt lon="7.0332239381968975" lat="46.132278945297">
        <ele>631.4000244140625</ele>
        <time>2013-04-10T15:18:21.000Z</time>
      </trkpt>
      <trkpt lon="7.033221926540136" lat="46.13227693364024">
        <ele>631.7999877929688</ele>
        <time>2013-04-10T15:18:26.000Z</time>
      </trkpt>
      <trkpt lon="7.0331579726189375" lat="46.13223594613373">
        <ele>636.7999877929688</ele>
        <time>2013-04-10T15:18:33.000Z</time>
      </trkpt>
      <trkpt lon="7.033027969300747" lat="46.13214399665594">
        <ele>647.4000244140625</ele>
        <time>2013-04-10T15:18:39.000Z</time>
      </trkpt>
      <trkpt lon="7.03298999927938" lat="46.132283974438906">
        <ele>636.7999877929688</ele>
        <time>2013-04-10T15:18:46.000Z</time>
      </trkpt>
      <trkpt lon="7.032870976254344" lat="46.132196970283985">
        <ele>646.4000244140625</ele>
        <time>2013-04-10T15:18:51.000Z</time>
      </trkpt>
      <trkpt lon="7.032859995961189" lat="46.13220099359751">
        <ele>646.2000122070312</ele>
        <time>2013-04-10T15:18:53.000Z</time>
      </trkpt>
      <trkpt lon="7.032801993191242" lat="46.13222496584058">
        <ele>645.7999877929688</ele>
        <time>2013-04-10T15:19:00.000Z</time>
      </trkpt>
      <trkpt lon="7.032677941024303" lat="46.13213896751404">
        <ele>654.4000244140625</ele>
        <time>2013-04-10T15:19:05.000Z</time>
      </trkpt>
      <trkpt lon="7.032584985718131" lat="46.13213896751404">
        <ele>656.2000122070312</ele>
        <time>2013-04-10T15:19:12.000Z</time>
      </trkpt>
      <trkpt lon="7.0324779488146305" lat="46.132194958627224">
        <ele>655.4000244140625</ele>
        <time>2013-04-10T15:19:21.000Z</time>
      </trkpt>
      <trkpt lon="7.032429920509458" lat="46.132214991375804">
        <ele>656.7999877929688</ele>
        <time>2013-04-10T15:19:27.000Z</time>
      </trkpt>
      <trkpt lon="7.032387927174568" lat="46.13220099359751">
        <ele>660.0</ele>
        <time>2013-04-10T15:19:33.000Z</time>
      </trkpt>
      <trkpt lon="7.032428998500109" lat="46.13221398554742">
        <ele>657.0</ele>
        <time>2013-04-10T15:19:38.000Z</time>
      </trkpt>
      <trkpt lon="7.032428998500109" lat="46.13221398554742">
        <ele>657.0</ele>
        <time>2013-04-10T15:19:42.000Z</time>
      </trkpt>
      <trkpt lon="7.032533939927816" lat="46.132172998040915">
        <ele>655.0</ele>
        <time>2013-04-10T15:19:49.000Z</time>
      </trkpt>
      <trkpt lon="7.032705936580896" lat="46.13228699192405">
        <ele>643.4000244140625</ele>
        <time>2013-04-10T15:19:51.000Z</time>
      </trkpt>
      <trkpt lon="7.0327709801495075" lat="46.132237957790494">
        <ele>645.4000244140625</ele>
        <time>2013-04-10T15:19:58.000Z</time>
      </trkpt>
      <trkpt lon="7.032822947949171" lat="46.132215997204185">
        <ele>646.0</ele>
        <time>2013-04-10T15:20:03.000Z</time>
      </trkpt>
      <trkpt lon="7.032892936840653" lat="46.13218892365694">
        <ele>646.5999755859375</ele>
        <time>2013-04-10T15:20:09.000Z</time>
      </trkpt>
      <trkpt lon="7.032892936840653" lat="46.13218892365694">
        <ele>646.5999755859375</ele>
        <time>2013-04-10T15:20:11.000Z</time>
      </trkpt>
      <trkpt lon="7.032936941832304" lat="46.132174925878644">
        <ele>646.7999877929688</ele>
        <time>2013-04-10T15:20:14.000Z</time>
      </trkpt>
      <trkpt lon="7.033004919067025" lat="46.132151959463954">
        <ele>647.2000122070312</ele>
        <time>2013-04-10T15:20:20.000Z</time>
      </trkpt>
      <trkpt lon="7.033087983727455" lat="46.13212396390736">
        <ele>648.0</ele>
        <time>2013-04-10T15:20:25.000Z</time>
      </trkpt>
      <trkpt lon="7.03305697068572" lat="46.13198993727565">
        <ele>660.0</ele>
        <time>2013-04-10T15:20:28.000Z</time>
      </trkpt>
      <trkpt lon="7.033149925991893" lat="46.13210493698716">
        <ele>648.5999755859375</ele>
        <time>2013-04-10T15:20:33.000Z</time>
      </trkpt>
      <trkpt lon="7.0331809390336275" lat="46.13209999166429">
        <ele>648.4000244140625</ele>
        <time>2013-04-10T15:20:37.000Z</time>
      </trkpt>
      <trkpt lon="7.033192925155163" lat="46.13209798000753">
        <ele>648.4000244140625</ele>
        <time>2013-04-10T15:20:41.000Z</time>
      </trkpt>
      <trkpt lon="7.033131988719106" lat="46.132108960300684">
        <ele>648.5999755859375</ele>
        <time>2013-04-10T15:20:47.000Z</time>
      </trkpt>
      <trkpt lon="7.032980946823955" lat="46.13199798390269">
        <ele>660.2000122070312</ele>
        <time>2013-04-10T15:20:52.000Z</time>
      </trkpt>
      <trkpt lon="7.032912969589233" lat="46.13201499916613">
        <ele>659.7999877929688</ele>
        <time>2013-04-10T15:20:58.000Z</time>
      </trkpt>
      <trkpt lon="7.032912969589233" lat="46.13201499916613">
        <ele>659.7999877929688</ele>
        <time>2013-04-10T15:20:59.000Z</time>
      </trkpt>
      <trkpt lon="7.03288396820426" lat="46.132023967802525">
        <ele>659.5999755859375</ele>
        <time>2013-04-10T15:21:01.000Z</time>
      </trkpt>
      <trkpt lon="7.032759999856353" lat="46.13195297308266">
        <ele>666.5999755859375</ele>
        <time>2013-04-10T15:21:07.000Z</time>
      </trkpt>
      <trkpt lon="7.032596971839666" lat="46.13187896087766">
        <ele>673.5999755859375</ele>
        <time>2013-04-10T15:21:15.000Z</time>
      </trkpt>
      <trkpt lon="7.032524971291423" lat="46.13190997391939">
        <ele>672.2000122070312</ele>
        <time>2013-04-10T15:21:21.000Z</time>
      </trkpt>
      <trkpt lon="7.032524971291423" lat="46.13190997391939">
        <ele>672.2000122070312</ele>
        <time>2013-04-10T15:21:27.000Z</time>
      </trkpt>
      <trkpt lon="7.032524971291423" lat="46.13190997391939">
        <ele>672.2000122070312</ele>
        <time>2013-04-10T15:21:32.000Z</time>
      </trkpt>
      <trkpt lon="7.032524971291423" lat="46.13190997391939">
        <ele>672.2000122070312</ele>
        <time>2013-04-10T15:21:33.000Z</time>
      </trkpt>
      <trkpt lon="7.032524971291423" lat="46.13190997391939">
        <ele>672.2000122070312</ele>
        <time>2013-04-10T15:21:38.000Z</time>
      </trkpt>
      <trkpt lon="7.032341994345188" lat="46.1320009175688">
        <ele>674.4000244140625</ele>
        <time>2013-04-10T15:21:42.000Z</time>
      </trkpt>
      <trkpt lon="7.0323059521615505" lat="46.13201893866062">
        <ele>675.0</ele>
        <time>2013-04-10T15:21:44.000Z</time>
      </trkpt>
      <trkpt lon="7.032265970483422" lat="46.131962947547436">
        <ele>680.2000122070312</ele>
        <time>2013-04-10T15:21:49.000Z</time>
      </trkpt>
      <trkpt lon="7.032279968261719" lat="46.13192992284894">
        <ele>681.4000244140625</ele>
        <time>2013-04-10T15:21:55.000Z</time>
      </trkpt>
      <trkpt lon="7.032316932454705" lat="46.13190896809101">
        <ele>681.0</ele>
        <time>2013-04-10T15:21:59.000Z</time>
      </trkpt>
      <trkpt lon="7.032381976023316" lat="46.13188692368567">
        <ele>679.2000122070312</ele>
        <time>2013-04-10T15:22:04.000Z</time>
      </trkpt>
      <trkpt lon="7.032517930492759" lat="46.13191299140453">
        <ele>672.0</ele>
        <time>2013-04-10T15:22:11.000Z</time>
      </trkpt>
      <trkpt lon="7.032631924375892" lat="46.13186596892774">
        <ele>674.0</ele>
        <time>2013-04-10T15:22:18.000Z</time>
      </trkpt>
      <trkpt lon="7.032708954066038" lat="46.13183797337115">
        <ele>675.4000244140625</ele>
        <time>2013-04-10T15:22:23.000Z</time>
      </trkpt>
      <trkpt lon="7.032736949622631" lat="46.131827998906374">
        <ele>676.0</ele>
        <time>2013-04-10T15:22:25.000Z</time>
      </trkpt>
      <trkpt lon="7.032738961279392" lat="46.13182699307799">
        <ele>676.0</ele>
        <time>2013-04-10T15:22:28.000Z</time>
      </trkpt>
      <trkpt lon="7.032619938254356" lat="46.131870998069644">
        <ele>673.7999877929688</ele>
        <time>2013-04-10T15:22:36.000Z</time>
      </trkpt>
      <trkpt lon="7.032509967684746" lat="46.131916930899024">
        <ele>671.7999877929688</ele>
        <time>2013-04-10T15:22:43.000Z</time>
      </trkpt>
      <trkpt lon="7.032452970743179" lat="46.131945932284">
        <ele>672.4000244140625</ele>
        <time>2013-04-10T15:22:48.000Z</time>
      </trkpt>
      <trkpt lon="7.0323109813034534" lat="46.13191097974777">
        <ele>681.2000122070312</ele>
        <time>2013-04-10T15:22:56.000Z</time>
      </trkpt>
      <trkpt lon="7.032273933291435" lat="46.13193394616246">
        <ele>681.5999755859375</ele>
        <time>2013-04-10T15:23:03.000Z</time>
      </trkpt>
      <trkpt lon="7.032273933291435" lat="46.13193394616246">
        <ele>681.5999755859375</ele>
        <time>2013-04-10T15:23:05.000Z</time>
      </trkpt>
      <trkpt lon="7.032145941630006" lat="46.13192598335445">
        <ele>688.0</ele>
        <time>2013-04-10T15:23:09.000Z</time>
      </trkpt>
      <trkpt lon="7.032108977437019" lat="46.13193595781922">
        <ele>689.2000122070312</ele>
        <time>2013-04-10T15:23:15.000Z</time>
      </trkpt>
      <trkpt lon="7.032142924144864" lat="46.13180293701589">
        <ele>694.7999877929688</ele>
        <time>2013-04-10T15:23:21.000Z</time>
      </trkpt>
      <trkpt lon="7.0321969874203205" lat="46.1317749414593">
        <ele>694.0</ele>
        <time>2013-04-10T15:23:25.000Z</time>
      </trkpt>
      <trkpt lon="7.032273933291435" lat="46.1317419167608">
        <ele>692.5999755859375</ele>
        <time>2013-04-10T15:23:32.000Z</time>
      </trkpt>
      <trkpt lon="7.03234794549644" lat="46.13169598393142">
        <ele>692.2000122070312</ele>
        <time>2013-04-10T15:23:39.000Z</time>
      </trkpt>
      <trkpt lon="7.032448947429657" lat="46.131722973659635">
        <ele>686.4000244140625</ele>
        <time>2013-04-10T15:23:44.000Z</time>
      </trkpt>
      <trkpt lon="7.032507956027985" lat="46.13169891759753">
        <ele>685.7999877929688</ele>
        <time>2013-04-10T15:23:51.000Z</time>
      </trkpt>
      <trkpt lon="7.032549949362874" lat="46.131681986153126">
        <ele>686.7999877929688</ele>
        <time>2013-04-10T15:23:57.000Z</time>
      </trkpt>
      <trkpt lon="7.032549949362874" lat="46.131681986153126">
        <ele>686.7999877929688</ele>
        <time>2013-04-10T15:23:58.000Z</time>
      </trkpt>
      <trkpt lon="7.032549949362874" lat="46.131681986153126">
        <ele>686.7999877929688</ele>
        <time>2013-04-10T15:24:07.000Z</time>
      </trkpt>
      <trkpt lon="7.032406954094768" lat="46.13175197504461">
        <ele>686.4000244140625</ele>
        <time>2013-04-10T15:24:13.000Z</time>
      </trkpt>
      <trkpt lon="7.032335959374905" lat="46.13170797005296">
        <ele>692.0</ele>
        <time>2013-04-10T15:24:18.000Z</time>
      </trkpt>
      <trkpt lon="7.032123981043696" lat="46.13165793009102">
        <ele>703.2000122070312</ele>
        <time>2013-04-10T15:24:24.000Z</time>
      </trkpt>
      <trkpt lon="7.032058937475085" lat="46.131703946739435">
        <ele>703.4000244140625</ele>
        <time>2013-04-10T15:24:32.000Z</time>
      </trkpt>
      <trkpt lon="7.032020967453718" lat="46.13172699697316">
        <ele>703.7999877929688</ele>
        <time>2013-04-10T15:24:36.000Z</time>
      </trkpt>
      <trkpt lon="7.032016944140196" lat="46.131728924810886">
        <ele>703.7999877929688</ele>
        <time>2013-04-10T15:24:40.000Z</time>
      </trkpt>
      <trkpt lon="7.032030941918492" lat="46.13168793730438">
        <ele>705.4000244140625</ele>
        <time>2013-04-10T15:24:46.000Z</time>
      </trkpt>
      <trkpt lon="7.032036976888776" lat="46.13159196451306">
        <ele>709.2000122070312</ele>
        <time>2013-04-10T15:24:52.000Z</time>
      </trkpt>
      <trkpt lon="7.032099924981594" lat="46.131553994491696">
        <ele>708.5999755859375</ele>
        <time>2013-04-10T15:25:00.000Z</time>
      </trkpt>
      <trkpt lon="7.032147953286767" lat="46.13152792677283">
        <ele>708.2000122070312</ele>
        <time>2013-04-10T15:25:04.000Z</time>
      </trkpt>
      <trkpt lon="7.032193969935179" lat="46.131501942873">
        <ele>707.7999877929688</ele>
        <time>2013-04-10T15:25:09.000Z</time>
      </trkpt>
      <trkpt lon="7.03232497908175" lat="46.13154494203627">
        <ele>701.2000122070312</ele>
        <time>2013-04-10T15:25:14.000Z</time>
      </trkpt>
      <trkpt lon="7.032370995730162" lat="46.131530944257975">
        <ele>700.4000244140625</ele>
        <time>2013-04-10T15:25:21.000Z</time>
      </trkpt>
      <trkpt lon="7.032571993768215" lat="46.13158794119954">
        <ele>692.5999755859375</ele>
        <time>2013-04-10T15:25:30.000Z</time>
      </trkpt>
      <trkpt lon="7.032660925760865" lat="46.13166497088969">
        <ele>687.7999877929688</ele>
        <time>2013-04-10T15:25:38.000Z</time>
      </trkpt>
      <trkpt lon="7.032701997086406" lat="46.13169296644628">
        <ele>685.7999877929688</ele>
        <time>2013-04-10T15:25:45.000Z</time>
      </trkpt>
      <trkpt lon="7.032873993739486" lat="46.13162691704929">
        <ele>690.0</ele>
        <time>2013-04-10T15:25:48.000Z</time>
      </trkpt>
      <trkpt lon="7.032708954066038" lat="46.13169992342591">
        <ele>685.2000122070312</ele>
        <time>2013-04-10T15:25:52.000Z</time>
      </trkpt>
      <trkpt lon="7.032880950719118" lat="46.13148492760956">
        <ele>699.2000122070312</ele>
        <time>2013-04-10T15:25:58.000Z</time>
      </trkpt>
      <trkpt lon="7.032880950719118" lat="46.13148492760956">
        <ele>699.2000122070312</ele>
        <time>2013-04-10T15:26:04.000Z</time>
      </trkpt>
      <trkpt lon="7.032880950719118" lat="46.13148492760956">
        <ele>699.2000122070312</ele>
        <time>2013-04-10T15:26:05.000Z</time>
      </trkpt>
      <trkpt lon="7.032835939899087" lat="46.13147797062993">
        <ele>699.5999755859375</ele>
        <time>2013-04-10T15:26:11.000Z</time>
      </trkpt>
      <trkpt lon="7.032807944342494" lat="46.13147294148803">
        <ele>700.0</ele>
        <time>2013-04-10T15:26:13.000Z</time>
      </trkpt>
      <trkpt lon="7.032787995412946" lat="46.131469924002886">
        <ele>700.0</ele>
        <time>2013-04-10T15:26:15.000Z</time>
      </trkpt>
      <trkpt lon="7.032744996249676" lat="46.13146296702325">
        <ele>700.4000244140625</ele>
        <time>2013-04-10T15:26:21.000Z</time>
      </trkpt>
      <trkpt lon="7.032744996249676" lat="46.13146296702325">
        <ele>700.4000244140625</ele>
        <time>2013-04-10T15:26:25.000Z</time>
      </trkpt>
      <trkpt lon="7.032631924375892" lat="46.13144997507334">
        <ele>701.2000122070312</ele>
        <time>2013-04-10T15:26:31.000Z</time>
      </trkpt>
      <trkpt lon="7.032631924375892" lat="46.13144997507334">
        <ele>701.2000122070312</ele>
        <time>2013-04-10T15:26:34.000Z</time>
      </trkpt>
      <trkpt lon="7.032409971579909" lat="46.131425919011235">
        <ele>705.0</ele>
        <time>2013-04-10T15:26:42.000Z</time>
      </trkpt>
      <trkpt lon="7.032309975475073" lat="46.13143899478018">
        <ele>707.2000122070312</ele>
        <time>2013-04-10T15:26:49.000Z</time>
      </trkpt>
      <trkpt lon="7.032210985198617" lat="46.13141099922359">
        <ele>711.5999755859375</ele>
        <time>2013-04-10T15:26:55.000Z</time>
      </trkpt>
      <trkpt lon="7.032143929973245" lat="46.13136498257518">
        <ele>715.5999755859375</ele>
        <time>2013-04-10T15:26:58.000Z</time>
      </trkpt>
      <trkpt lon="7.03202691860497" lat="46.131255934014916">
        <ele>723.2000122070312</ele>
        <time>2013-04-10T15:27:05.000Z</time>
      </trkpt>
      <trkpt lon="7.0320049580186605" lat="46.131253922358155">
        <ele>723.7999877929688</ele>
        <time>2013-04-10T15:27:06.000Z</time>
      </trkpt>
      <trkpt lon="7.031935974955559" lat="46.13126398064196">
        <ele>725.0</ele>
        <time>2013-04-10T15:27:13.000Z</time>
      </trkpt>
      <trkpt lon="7.031935974955559" lat="46.13126398064196">
        <ele>725.0</ele>
        <time>2013-04-10T15:27:17.000Z</time>
      </trkpt>
      <trkpt lon="7.031935974955559" lat="46.13126398064196">
        <ele>725.0</ele>
        <time>2013-04-10T15:27:24.000Z</time>
      </trkpt>
      <trkpt lon="7.031935974955559" lat="46.13126398064196">
        <ele>725.0</ele>
        <time>2013-04-10T15:27:25.000Z</time>
      </trkpt>
      <trkpt lon="7.031857939437032" lat="46.131377974525094">
        <ele>723.0</ele>
        <time>2013-04-10T15:27:30.000Z</time>
      </trkpt>
      <trkpt lon="7.031813934445381" lat="46.13148392178118">
        <ele>720.7999877929688</ele>
        <time>2013-04-10T15:27:39.000Z</time>
      </trkpt>
      <trkpt lon="7.031767917796969" lat="46.13156296312809">
        <ele>720.0</ele>
        <time>2013-04-10T15:27:43.000Z</time>
      </trkpt>
      <trkpt lon="7.031747968867421" lat="46.13157796673477">
        <ele>720.2000122070312</ele>
        <time>2013-04-10T15:27:48.000Z</time>
      </trkpt>
      <trkpt lon="7.031650990247726" lat="46.13151996396482">
        <ele>725.4000244140625</ele>
        <time>2013-04-10T15:27:54.000Z</time>
      </trkpt>
      <trkpt lon="7.031650990247726" lat="46.13151996396482">
        <ele>725.4000244140625</ele>
        <time>2013-04-10T15:27:57.000Z</time>
      </trkpt>
      <trkpt lon="7.031650990247726" lat="46.13151996396482">
        <ele>725.4000244140625</ele>
        <time>2013-04-10T15:28:52.000Z</time>
      </trkpt>
      <trkpt lon="7.031650990247726" lat="46.13151996396482">
        <ele>725.4000244140625</ele>
        <time>2013-04-10T15:28:56.000Z</time>
      </trkpt>
      <trkpt lon="7.03185198828578" lat="46.13139197230339">
        <ele>722.5999755859375</ele>
        <time>2013-04-10T15:29:50.000Z</time>
      </trkpt>
      <trkpt lon="7.031703963875771" lat="46.131336987018585">
        <ele>728.2000122070312</ele>
        <time>2013-04-10T15:29:53.000Z</time>
      </trkpt>
      <trkpt lon="7.031717961654067" lat="46.131250988692045">
        <ele>730.2000122070312</ele>
        <time>2013-04-10T15:30:01.000Z</time>
      </trkpt>
      <trkpt lon="7.031720979139209" lat="46.13122098147869">
        <ele>731.0</ele>
        <time>2013-04-10T15:30:06.000Z</time>
      </trkpt>
      <trkpt lon="7.031699940562248" lat="46.13112794235349">
        <ele>734.0</ele>
        <time>2013-04-10T15:30:14.000Z</time>
      </trkpt>
      <trkpt lon="7.0316799916327" lat="46.131038926541805">
        <ele>736.5999755859375</ele>
        <time>2013-04-10T15:30:22.000Z</time>
      </trkpt>
      <trkpt lon="7.0317089930176735" lat="46.13096592016518">
        <ele>738.2000122070312</ele>
        <time>2013-04-10T15:30:29.000Z</time>
      </trkpt>
      <trkpt lon="7.031734976917505" lat="46.130908923223615">
        <ele>739.4000244140625</ele>
        <time>2013-04-10T15:30:37.000Z</time>
      </trkpt>
      <trkpt lon="7.031743945553899" lat="46.130888974294066">
        <ele>740.0</ele>
        <time>2013-04-10T15:30:44.000Z</time>
      </trkpt>
      <trkpt lon="7.031743945553899" lat="46.130888974294066">
        <ele>740.0</ele>
        <time>2013-04-10T15:30:50.000Z</time>
      </trkpt>
      <trkpt lon="7.031727936118841" lat="46.13092493265867">
        <ele>739.0</ele>
        <time>2013-04-10T15:30:59.000Z</time>
      </trkpt>
      <trkpt lon="7.031699940562248" lat="46.13098595291376">
        <ele>737.5999755859375</ele>
        <time>2013-04-10T15:31:03.000Z</time>
      </trkpt>
      <trkpt lon="7.031678985804319" lat="46.131033981218934">
        <ele>736.5999755859375</ele>
        <time>2013-04-10T15:31:13.000Z</time>
      </trkpt>
      <trkpt lon="7.031678985804319" lat="46.131033981218934">
        <ele>736.5999755859375</ele>
        <time>2013-04-10T15:31:22.000Z</time>
      </trkpt>
      <trkpt lon="7.0314939972013235" lat="46.13111696206033">
        <ele>742.7999877929688</ele>
        <time>2013-04-10T15:31:31.000Z</time>
      </trkpt>
      <trkpt lon="7.031491985544562" lat="46.131124924868345">
        <ele>742.7999877929688</ele>
        <time>2013-04-10T15:31:35.000Z</time>
      </trkpt>
      <trkpt lon="7.031490979716182" lat="46.131126936525106">
        <ele>742.7999877929688</ele>
        <time>2013-04-10T15:31:39.000Z</time>
      </trkpt>
      <trkpt lon="7.031515957787633" lat="46.13104697316885">
        <ele>743.4000244140625</ele>
        <time>2013-04-10T15:31:45.000Z</time>
      </trkpt>
      <trkpt lon="7.031527943909168" lat="46.13100598566234">
        <ele>743.7999877929688</ele>
        <time>2013-04-10T15:31:48.000Z</time>
      </trkpt>
      <trkpt lon="7.0315449591726065" lat="46.13094597123563">
        <ele>744.4000244140625</ele>
        <time>2013-04-10T15:31:54.000Z</time>
      </trkpt>
      <trkpt lon="7.03129299916327" lat="46.13085494376719">
        <ele>757.5999755859375</ele>
        <time>2013-04-10T15:32:02.000Z</time>
      </trkpt>
      <trkpt lon="7.031308924779296" lat="46.130755953490734">
        <ele>760.5999755859375</ele>
        <time>2013-04-10T15:32:10.000Z</time>
      </trkpt>
      <trkpt lon="7.031324934214354" lat="46.13071194849908">
        <ele>761.7999877929688</ele>
        <time>2013-04-10T15:32:17.000Z</time>
      </trkpt>
      <trkpt lon="7.031324934214354" lat="46.13071194849908">
        <ele>761.7999877929688</ele>
        <time>2013-04-10T15:32:19.000Z</time>
      </trkpt>
      <trkpt lon="7.031331975013018" lat="46.13069895654917">
        <ele>762.0</ele>
        <time>2013-04-10T15:32:27.000Z</time>
      </trkpt>
      <trkpt lon="7.031362988054752" lat="46.1306419596076">
        <ele>763.4000244140625</ele>
        <time>2013-04-10T15:32:35.000Z</time>
      </trkpt>
      <trkpt lon="7.031404981389642" lat="46.13059996627271">
        <ele>764.0</ele>
        <time>2013-04-10T15:32:41.000Z</time>
      </trkpt>
      <trkpt lon="7.031404981389642" lat="46.13059996627271">
        <ele>764.0</ele>
        <time>2013-04-10T15:32:47.000Z</time>
      </trkpt>
      <trkpt lon="7.031404981389642" lat="46.13059996627271">
        <ele>764.0</ele>
        <time>2013-04-10T15:32:52.000Z</time>
      </trkpt>
      <trkpt lon="7.031404981389642" lat="46.13059996627271">
        <ele>764.0</ele>
        <time>2013-04-10T15:32:58.000Z</time>
      </trkpt>
      <trkpt lon="7.031192919239402" lat="46.13055998459458">
        <ele>772.0</ele>
        <time>2013-04-10T15:33:05.000Z</time>
      </trkpt>
      <trkpt lon="7.031185962259769" lat="46.13054799847305">
        <ele>772.5999755859375</ele>
        <time>2013-04-10T15:33:06.000Z</time>
      </trkpt>
      <trkpt lon="7.031185962259769" lat="46.130560990422964">
        <ele>772.2000122070312</ele>
        <time>2013-04-10T15:33:09.000Z</time>
      </trkpt>
      <trkpt lon="7.031185962259769" lat="46.13061396405101">
        <ele>770.4000244140625</ele>
        <time>2013-04-10T15:33:17.000Z</time>
      </trkpt>
      <trkpt lon="7.031185962259769" lat="46.13071999512613">
        <ele>766.5999755859375</ele>
        <time>2013-04-10T15:33:23.000Z</time>
      </trkpt>
      <trkpt lon="7.031185962259769" lat="46.130712954327464">
        <ele>766.7999877929688</ele>
        <time>2013-04-10T15:33:28.000Z</time>
      </trkpt>
      <trkpt lon="7.031169952824712" lat="46.13076492212713">
        <ele>765.5999755859375</ele>
        <time>2013-04-10T15:33:33.000Z</time>
      </trkpt>
      <trkpt lon="7.031185962259769" lat="46.13071898929775">
        <ele>766.5999755859375</ele>
        <time>2013-04-10T15:33:39.000Z</time>
      </trkpt>
      <trkpt lon="7.031185962259769" lat="46.13059594295919">
        <ele>771.0</ele>
        <time>2013-04-10T15:33:49.000Z</time>
      </trkpt>
      <trkpt lon="7.030961997807026" lat="46.13058798015118">
        <ele>778.0</ele>
        <time>2013-04-10T15:33:57.000Z</time>
      </trkpt>
      <trkpt lon="7.030957974493504" lat="46.13058194518089">
        <ele>778.4000244140625</ele>
        <time>2013-04-10T15:34:03.000Z</time>
      </trkpt>
      <trkpt lon="7.0309509336948395" lat="46.1305679474026">
        <ele>778.7999877929688</ele>
        <time>2013-04-10T15:34:09.000Z</time>
      </trkpt>
      <trkpt lon="7.0309509336948395" lat="46.1305679474026">
        <ele>778.7999877929688</ele>
        <time>2013-04-10T15:34:13.000Z</time>
      </trkpt>
      <trkpt lon="7.0309509336948395" lat="46.1305679474026">
        <ele>778.7999877929688</ele>
        <time>2013-04-10T15:34:16.000Z</time>
      </trkpt>
      <trkpt lon="7.030939953401685" lat="46.1305489204824">
        <ele>779.5999755859375</ele>
        <time>2013-04-10T15:34:22.000Z</time>
      </trkpt>
      <trkpt lon="7.030939953401685" lat="46.1305489204824">
        <ele>779.5999755859375</ele>
        <time>2013-04-10T15:34:30.000Z</time>
      </trkpt>
      <trkpt lon="7.030939953401685" lat="46.1305489204824">
        <ele>779.5999755859375</ele>
        <time>2013-04-10T15:34:36.000Z</time>
      </trkpt>
      <trkpt lon="7.030892930924892" lat="46.13046694546938">
        <ele>782.5999755859375</ele>
        <time>2013-04-10T15:34:43.000Z</time>
      </trkpt>
      <trkpt lon="7.030892930924892" lat="46.13046694546938">
        <ele>782.5999755859375</ele>
        <time>2013-04-10T15:34:46.000Z</time>
      </trkpt>
      <trkpt lon="7.030921932309866" lat="46.130517991259694">
        <ele>780.7999877929688</ele>
        <time>2013-04-10T15:34:53.000Z</time>
      </trkpt>
      <trkpt lon="7.0309229381382465" lat="46.130519919097424">
        <ele>780.7999877929688</ele>
        <time>2013-04-10T15:34:55.000Z</time>
      </trkpt>
      <trkpt lon="7.030934924259782" lat="46.130539951846">
        <ele>780.0</ele>
        <time>2013-04-10T15:35:00.000Z</time>
      </trkpt>
      <trkpt lon="7.030901983380318" lat="46.13048295490444">
        <ele>782.0</ele>
        <time>2013-04-10T15:35:04.000Z</time>
      </trkpt>
      <trkpt lon="7.030832916498184" lat="46.13035999238491">
        <ele>785.7999877929688</ele>
        <time>2013-04-10T15:35:11.000Z</time>
      </trkpt>
      <trkpt lon="7.030812967568636" lat="46.13032395020127">
        <ele>787.0</ele>
        <time>2013-04-10T15:35:17.000Z</time>
      </trkpt>
      <trkpt lon="7.030781954526901" lat="46.13026896491647">
        <ele>788.7999877929688</ele>
        <time>2013-04-10T15:35:23.000Z</time>
      </trkpt>
      <trkpt lon="7.02959792688489" lat="46.130111971870065">
        <ele>825.5999755859375</ele>
        <time>2013-04-10T15:35:26.000Z</time>
      </trkpt>
      <trkpt lon="7.02959792688489" lat="46.130111971870065">
        <ele>825.5999755859375</ele>
        <time>2013-04-10T15:35:32.000Z</time>
      </trkpt>
      <trkpt lon="7.030595960095525" lat="46.13020299933851">
        <ele>795.0</ele>
        <time>2013-04-10T15:35:40.000Z</time>
      </trkpt>
      <trkpt lon="7.0305989775806665" lat="46.13020098768175">
        <ele>794.7999877929688</ele>
        <time>2013-04-10T15:35:42.000Z</time>
      </trkpt>
      <trkpt lon="7.02959792688489" lat="46.130111971870065">
        <ele>825.5999755859375</ele>
        <time>2013-04-10T15:35:47.000Z</time>
      </trkpt>
      <trkpt lon="7.02959792688489" lat="46.130111971870065">
        <ele>825.5999755859375</ele>
        <time>2013-04-10T15:35:57.000Z</time>
      </trkpt>
      <trkpt lon="7.02959792688489" lat="46.130111971870065">
        <ele>825.5999755859375</ele>
        <time>2013-04-10T15:36:05.000Z</time>
      </trkpt>
      <trkpt lon="7.02959792688489" lat="46.130111971870065">
        <ele>825.5999755859375</ele>
        <time>2013-04-10T15:36:08.000Z</time>
      </trkpt>
      <trkpt lon="7.0302629470825195" lat="46.130132926627994">
        <ele>804.5999755859375</ele>
        <time>2013-04-10T15:36:12.000Z</time>
      </trkpt>
      <trkpt lon="7.02959792688489" lat="46.130111971870065">
        <ele>825.5999755859375</ele>
        <time>2013-04-10T15:36:19.000Z</time>
      </trkpt>
      <trkpt lon="7.029970921576023" lat="46.130069978535175">
        <ele>812.5999755859375</ele>
        <time>2013-04-10T15:36:28.000Z</time>
      </trkpt>
      <trkpt lon="7.02959792688489" lat="46.130111971870065">
        <ele>825.5999755859375</ele>
        <time>2013-04-10T15:36:34.000Z</time>
      </trkpt>
      <trkpt lon="7.02959792688489" lat="46.13007894717157">
        <ele>825.7999877929688</ele>
        <time>2013-04-10T15:36:40.000Z</time>
      </trkpt>
      <trkpt lon="7.029600944370031" lat="46.13002195023">
        <ele>826.0</ele>
        <time>2013-04-10T15:36:44.000Z</time>
      </trkpt>
      <trkpt lon="7.029600944370031" lat="46.13001499325037">
        <ele>826.2000122070312</ele>
        <time>2013-04-10T15:36:50.000Z</time>
      </trkpt>
      <trkpt lon="7.030170997604728" lat="46.13000996410847">
        <ele>807.7999877929688</ele>
        <time>2013-04-10T15:36:57.000Z</time>
      </trkpt>
      <trkpt lon="7.030170997604728" lat="46.13000996410847">
        <ele>807.7999877929688</ele>
        <time>2013-04-10T15:37:02.000Z</time>
      </trkpt>
      <trkpt lon="7.0299859251827" lat="46.13005992025137">
        <ele>812.2000122070312</ele>
        <time>2013-04-10T15:37:09.000Z</time>
      </trkpt>
      <trkpt lon="7.030260935425758" lat="46.130130998790264">
        <ele>804.5999755859375</ele>
        <time>2013-04-10T15:37:17.000Z</time>
      </trkpt>
      <trkpt lon="7.02959792688489" lat="46.130111971870065">
        <ele>825.5999755859375</ele>
        <time>2013-04-10T15:37:23.000Z</time>
      </trkpt>
      <trkpt lon="7.02959792688489" lat="46.130111971870065">
        <ele>825.5999755859375</ele>
        <time>2013-04-10T15:37:30.000Z</time>
      </trkpt>
      <trkpt lon="7.02959792688489" lat="46.130111971870065">
        <ele>825.5999755859375</ele>
        <time>2013-04-10T15:37:34.000Z</time>
      </trkpt>
      <trkpt lon="7.02959792688489" lat="46.130111971870065">
        <ele>825.5999755859375</ele>
        <time>2013-04-10T15:37:41.000Z</time>
      </trkpt>
      <trkpt lon="7.029599938541651" lat="46.13003192469478">
        <ele>826.0</ele>
        <time>2013-04-10T15:37:48.000Z</time>
      </trkpt>
      <trkpt lon="7.029604967683554" lat="46.12995992414653">
        <ele>826.7999877929688</ele>
        <time>2013-04-10T15:37:54.000Z</time>
      </trkpt>
      <trkpt lon="7.029858939349651" lat="46.129937963560224">
        <ele>818.4000244140625</ele>
        <time>2013-04-10T15:38:00.000Z</time>
      </trkpt>
      <trkpt lon="7.029858939349651" lat="46.129937963560224">
        <ele>818.4000244140625</ele>
        <time>2013-04-10T15:38:05.000Z</time>
      </trkpt>
      <trkpt lon="7.029978968203068" lat="46.129877949133515">
        <ele>815.5999755859375</ele>
        <time>2013-04-10T15:38:14.000Z</time>
      </trkpt>
      <trkpt lon="7.029978968203068" lat="46.129877949133515">
        <ele>815.5999755859375</ele>
        <time>2013-04-10T15:38:20.000Z</time>
      </trkpt>
      <trkpt lon="7.029973939061165" lat="46.12980594858527">
        <ele>817.5999755859375</ele>
        <time>2013-04-10T15:38:27.000Z</time>
      </trkpt>
      <trkpt lon="7.03002892434597" lat="46.12977795302868">
        <ele>817.0</ele>
        <time>2013-04-10T15:38:34.000Z</time>
      </trkpt>
      <trkpt lon="7.02968493103981" lat="46.12963093444705">
        <ele>830.5999755859375</ele>
        <time>2013-04-10T15:38:41.000Z</time>
      </trkpt>
      <trkpt lon="7.030051974579692" lat="46.129769990220666">
        <ele>817.0</ele>
        <time>2013-04-10T15:38:48.000Z</time>
      </trkpt>
      <trkpt lon="7.02970496378839" lat="46.129596987739205">
        <ele>830.7999877929688</ele>
        <time>2013-04-10T15:38:53.000Z</time>
      </trkpt>
      <trkpt lon="7.02970496378839" lat="46.129596987739205">
        <ele>830.7999877929688</ele>
        <time>2013-04-10T15:38:55.000Z</time>
      </trkpt>
      <trkpt lon="7.029698928818107" lat="46.12960696220398">
        <ele>830.7999877929688</ele>
        <time>2013-04-10T15:39:06.000Z</time>
      </trkpt>
      <trkpt lon="7.02968493103981" lat="46.12963194027543">
        <ele>830.5999755859375</ele>
        <time>2013-04-10T15:39:12.000Z</time>
      </trkpt>
      <trkpt lon="7.029663976281881" lat="46.12966798245907">
        <ele>830.5999755859375</ele>
        <time>2013-04-10T15:39:19.000Z</time>
      </trkpt>
      <trkpt lon="7.029654923826456" lat="46.129683991894126">
        <ele>830.5999755859375</ele>
        <time>2013-04-10T15:39:22.000Z</time>
      </trkpt>
      <trkpt lon="7.029874948784709" lat="46.1297439225018">
        <ele>822.4000244140625</ele>
        <time>2013-04-10T15:39:29.000Z</time>
      </trkpt>
      <trkpt lon="7.029874948784709" lat="46.1297439225018">
        <ele>822.4000244140625</ele>
        <time>2013-04-10T15:39:34.000Z</time>
      </trkpt>
      <trkpt lon="7.029689960181713" lat="46.12962397746742">
        <ele>830.5999755859375</ele>
        <time>2013-04-10T15:39:42.000Z</time>
      </trkpt>
      <trkpt lon="7.029689960181713" lat="46.12962397746742">
        <ele>830.5999755859375</ele>
        <time>2013-04-10T15:39:44.000Z</time>
      </trkpt>
      <trkpt lon="7.029689960181713" lat="46.12962397746742">
        <ele>830.5999755859375</ele>
        <time>2013-04-10T15:39:52.000Z</time>
      </trkpt>
      <trkpt lon="7.02970496378839" lat="46.129596987739205">
        <ele>830.7999877929688</ele>
        <time>2013-04-10T15:43:54.000Z</time>
      </trkpt>
      <trkpt lon="7.02970496378839" lat="46.129596987739205">
        <ele>830.7999877929688</ele>
        <time>2013-04-10T15:44:00.000Z</time>
      </trkpt>
      <trkpt lon="7.02970496378839" lat="46.129596987739205">
        <ele>830.7999877929688</ele>
        <time>2013-04-10T15:44:08.000Z</time>
      </trkpt>
      <trkpt lon="7.02970496378839" lat="46.129596987739205">
        <ele>830.7999877929688</ele>
        <time>2013-04-10T15:44:15.000Z</time>
      </trkpt>
      <trkpt lon="7.029702952131629" lat="46.12928794696927">
        <ele>837.2000122070312</ele>
        <time>2013-04-10T15:44:23.000Z</time>
      </trkpt>
      <trkpt lon="7.029694989323616" lat="46.12917998805642">
        <ele>839.5999755859375</ele>
        <time>2013-04-10T15:44:31.000Z</time>
      </trkpt>
      <trkpt lon="7.02968493103981" lat="46.12910999916494">
        <ele>841.7999877929688</ele>
        <time>2013-04-10T15:44:35.000Z</time>
      </trkpt>
      <trkpt lon="7.02961896546185" lat="46.128973960876465">
        <ele>847.0</ele>
        <time>2013-04-10T15:44:45.000Z</time>
      </trkpt>
      <trkpt lon="7.029560962691903" lat="46.128887962549925">
        <ele>850.2000122070312</ele>
        <time>2013-04-10T15:44:53.000Z</time>
      </trkpt>
      <trkpt lon="7.02948896214366" lat="46.128803975880146">
        <ele>853.2000122070312</ele>
        <time>2013-04-10T15:45:02.000Z</time>
      </trkpt>
      <trkpt lon="7.029442945495248" lat="46.12875494174659">
        <ele>854.7999877929688</ele>
        <time>2013-04-10T15:45:09.000Z</time>
      </trkpt>
      <trkpt lon="7.029434982687235" lat="46.12874697893858">
        <ele>855.0</ele>
        <time>2013-04-10T15:45:11.000Z</time>
      </trkpt>
      <trkpt lon="7.028524959459901" lat="46.129167918115854">
        <ele>871.2000122070312</ele>
        <time>2013-04-10T15:45:17.000Z</time>
      </trkpt>
      <trkpt lon="7.02933993190527" lat="46.1288289539516">
        <ele>854.4000244140625</ele>
        <time>2013-04-10T15:45:24.000Z</time>
      </trkpt>
      <trkpt lon="7.02933993190527" lat="46.1288289539516">
        <ele>854.4000244140625</ele>
        <time>2013-04-10T15:45:25.000Z</time>
      </trkpt>
      <trkpt lon="7.029343955218792" lat="46.1288979370147">
        <ele>853.0</ele>
        <time>2013-04-10T15:45:31.000Z</time>
      </trkpt>
      <trkpt lon="7.029376979917288" lat="46.12898393534124">
        <ele>850.7999877929688</ele>
        <time>2013-04-10T15:45:39.000Z</time>
      </trkpt>
      <trkpt lon="7.029413944110274" lat="46.129080997779965">
        <ele>848.0</ele>
        <time>2013-04-10T15:45:48.000Z</time>
      </trkpt>
      <trkpt lon="7.029441939666867" lat="46.12915299832821">
        <ele>846.0</ele>
        <time>2013-04-10T15:45:54.000Z</time>
      </trkpt>
      <trkpt lon="7.029447974637151" lat="46.12919893115759">
        <ele>845.0</ele>
        <time>2013-04-10T15:45:58.000Z</time>
      </trkpt>
      <trkpt lon="7.029447974637151" lat="46.129252994433045">
        <ele>844.0</ele>
        <time>2013-04-10T15:46:05.000Z</time>
      </trkpt>
      <trkpt lon="7.029447974637151" lat="46.129272943362594">
        <ele>843.7999877929688</ele>
        <time>2013-04-10T15:46:07.000Z</time>
      </trkpt>
      <trkpt lon="7.02970496378839" lat="46.129596987739205">
        <ele>830.7999877929688</ele>
        <time>2013-04-10T15:46:09.000Z</time>
      </trkpt>
      <trkpt lon="7.02970496378839" lat="46.129596987739205">
        <ele>830.7999877929688</ele>
        <time>2013-04-10T15:46:12.000Z</time>
      </trkpt>
      <trkpt lon="7.02970496378839" lat="46.129596987739205">
        <ele>830.7999877929688</ele>
        <time>2013-04-10T15:48:45.000Z</time>
      </trkpt>
      <trkpt lon="7.02970496378839" lat="46.129596987739205">
        <ele>830.7999877929688</ele>
        <time>2013-04-10T15:48:46.000Z</time>
      </trkpt>
      <trkpt lon="7.02970496378839" lat="46.129596987739205">
        <ele>830.7999877929688</ele>
        <time>2013-04-10T15:49:10.000Z</time>
      </trkpt>
      <trkpt lon="7.02970496378839" lat="46.129596987739205">
        <ele>830.7999877929688</ele>
        <time>2013-04-10T15:49:12.000Z</time>
      </trkpt>
      <trkpt lon="7.02970496378839" lat="46.129596987739205">
        <ele>830.7999877929688</ele>
        <time>2013-04-10T15:49:40.000Z</time>
      </trkpt>
      <trkpt lon="7.02970496378839" lat="46.129596987739205">
        <ele>830.7999877929688</ele>
        <time>2013-04-10T15:49:43.000Z</time>
      </trkpt>
      <trkpt lon="7.029447974637151" lat="46.12923597916961">
        <ele>844.4000244140625</ele>
        <time>2013-04-10T15:49:56.000Z</time>
      </trkpt>
      <trkpt lon="7.029447974637151" lat="46.12923597916961">
        <ele>844.4000244140625</ele>
        <time>2013-04-10T15:50:03.000Z</time>
      </trkpt>
      <trkpt lon="7.029447974637151" lat="46.12923597916961">
        <ele>844.4000244140625</ele>
        <time>2013-04-10T15:50:07.000Z</time>
      </trkpt>
      <trkpt lon="7.029447974637151" lat="46.12923597916961">
        <ele>844.4000244140625</ele>
        <time>2013-04-10T15:50:16.000Z</time>
      </trkpt>
      <trkpt lon="7.029447974637151" lat="46.12918292172253">
        <ele>845.2000122070312</ele>
        <time>2013-04-10T15:50:33.000Z</time>
      </trkpt>
      <trkpt lon="7.0296889543533325" lat="46.12913698889315">
        <ele>840.7999877929688</ele>
        <time>2013-04-10T15:50:37.000Z</time>
      </trkpt>
      <trkpt lon="7.029658947139978" lat="46.12905291840434">
        <ele>844.0</ele>
        <time>2013-04-10T15:50:44.000Z</time>
      </trkpt>
      <trkpt lon="7.029606979340315" lat="46.128949988633394">
        <ele>847.7999877929688</ele>
        <time>2013-04-10T15:50:53.000Z</time>
      </trkpt>
      <trkpt lon="7.02933993190527" lat="46.12885393202305">
        <ele>853.7999877929688</ele>
        <time>2013-04-10T15:51:05.000Z</time>
      </trkpt>
      <trkpt lon="7.029060982167721" lat="46.128845969215035">
        <ele>858.5999755859375</ele>
        <time>2013-04-10T15:51:12.000Z</time>
      </trkpt>
      <trkpt lon="7.0289629977196455" lat="46.12876692786813">
        <ele>861.5999755859375</ele>
        <time>2013-04-10T15:51:20.000Z</time>
      </trkpt>
      <trkpt lon="7.028890997171402" lat="46.12870993092656">
        <ele>863.4000244140625</ele>
        <time>2013-04-10T15:51:28.000Z</time>
      </trkpt>
      <trkpt lon="7.028859984129667" lat="46.12868394702673">
        <ele>864.2000122070312</ele>
        <time>2013-04-10T15:51:33.000Z</time>
      </trkpt>
      <trkpt lon="7.028802987188101" lat="46.12864497117698">
        <ele>865.5999755859375</ele>
        <time>2013-04-10T15:51:38.000Z</time>
      </trkpt>
      <trkpt lon="7.028791923075914" lat="46.12863793037832">
        <ele>865.7999877929688</ele>
        <time>2013-04-10T15:51:39.000Z</time>
      </trkpt>
      <trkpt lon="7.0287559647113085" lat="46.12861496396363">
        <ele>866.5999755859375</ele>
        <time>2013-04-10T15:51:45.000Z</time>
      </trkpt>
      <trkpt lon="7.0287559647113085" lat="46.12861496396363">
        <ele>866.5999755859375</ele>
        <time>2013-04-10T15:51:50.000Z</time>
      </trkpt>
      <trkpt lon="7.028579944744706" lat="46.128500970080495">
        <ele>869.7999877929688</ele>
        <time>2013-04-10T15:51:58.000Z</time>
      </trkpt>
      <trkpt lon="7.028507944196463" lat="46.1284539476037">
        <ele>871.0</ele>
        <time>2013-04-10T15:52:04.000Z</time>
      </trkpt>
      <trkpt lon="7.028507944196463" lat="46.1284539476037">
        <ele>871.0</ele>
        <time>2013-04-10T15:52:08.000Z</time>
      </trkpt>
      <trkpt lon="7.028392944484949" lat="46.12837499007583">
        <ele>872.4000244140625</ele>
        <time>2013-04-10T15:52:15.000Z</time>
      </trkpt>
      <trkpt lon="7.028392944484949" lat="46.12837499007583">
        <ele>872.4000244140625</ele>
        <time>2013-04-10T15:52:24.000Z</time>
      </trkpt>
      <trkpt lon="7.028392944484949" lat="46.12837499007583">
        <ele>872.4000244140625</ele>
        <time>2013-04-10T15:52:28.000Z</time>
      </trkpt>
      <trkpt lon="7.028206950053573" lat="46.12823694013059">
        <ele>877.2000122070312</ele>
        <time>2013-04-10T15:52:33.000Z</time>
      </trkpt>
      <trkpt lon="7.028167974203825" lat="46.12821196205914">
        <ele>878.2000122070312</ele>
        <time>2013-04-10T15:52:37.000Z</time>
      </trkpt>
      <trkpt lon="7.028167974203825" lat="46.12821196205914">
        <ele>878.2000122070312</ele>
        <time>2013-04-10T15:52:43.000Z</time>
      </trkpt>
      <trkpt lon="7.028074935078621" lat="46.12811992876232">
        <ele>880.7999877929688</ele>
        <time>2013-04-10T15:52:48.000Z</time>
      </trkpt>
      <trkpt lon="7.02802992425859" lat="46.12805396318436">
        <ele>882.0</ele>
        <time>2013-04-10T15:52:53.000Z</time>
      </trkpt>
      <trkpt lon="7.027967981994152" lat="46.127964947372675">
        <ele>883.2000122070312</ele>
        <time>2013-04-10T15:53:01.000Z</time>
      </trkpt>
      <trkpt lon="7.027934957295656" lat="46.1279169190675">
        <ele>883.5999755859375</ele>
        <time>2013-04-10T15:53:06.000Z</time>
      </trkpt>
      <trkpt lon="7.0278609450906515" lat="46.12782195210457">
        <ele>884.4000244140625</ele>
        <time>2013-04-10T15:53:15.000Z</time>
      </trkpt>
      <trkpt lon="7.027805959805846" lat="46.127769984304905">
        <ele>884.7999877929688</ele>
        <time>2013-04-10T15:53:22.000Z</time>
      </trkpt>
      <trkpt lon="7.027783999219537" lat="46.12775397486985">
        <ele>885.0</ele>
        <time>2013-04-10T15:53:26.000Z</time>
      </trkpt>
      <trkpt lon="7.027699928730726" lat="46.12768993712962">
        <ele>885.2000122070312</ele>
        <time>2013-04-10T15:53:33.000Z</time>
      </trkpt>
      <trkpt lon="7.027644943445921" lat="46.12764794379473">
        <ele>885.2000122070312</ele>
        <time>2013-04-10T15:53:38.000Z</time>
      </trkpt>
      <trkpt lon="7.027644943445921" lat="46.12764794379473">
        <ele>885.2000122070312</ele>
        <time>2013-04-10T15:53:44.000Z</time>
      </trkpt>
      <trkpt lon="7.027515945956111" lat="46.12754199653864">
        <ele>884.4000244140625</ele>
        <time>2013-04-10T15:53:52.000Z</time>
      </trkpt>
      <trkpt lon="7.027480993419886" lat="46.127513917163014">
        <ele>884.5999755859375</ele>
        <time>2013-04-10T15:53:54.000Z</time>
      </trkpt>
      <trkpt lon="7.027443945407867" lat="46.12748399376869">
        <ele>886.0</ele>
        <time>2013-04-10T15:53:59.000Z</time>
      </trkpt>
      <trkpt lon="7.027368927374482" lat="46.12742196768522">
        <ele>889.2000122070312</ele>
        <time>2013-04-10T15:54:09.000Z</time>
      </trkpt>
      <trkpt lon="7.027316959574819" lat="46.12737997435033">
        <ele>891.2000122070312</ele>
        <time>2013-04-10T15:54:17.000Z</time>
      </trkpt>
      <trkpt lon="7.02725694514811" lat="46.1273299343884">
        <ele>893.4000244140625</ele>
        <time>2013-04-10T15:54:24.000Z</time>
      </trkpt>
      <trkpt lon="7.027145968750119" lat="46.12720395438373">
        <ele>897.5999755859375</ele>
        <time>2013-04-10T15:54:33.000Z</time>
      </trkpt>
      <trkpt lon="7.027107998728752" lat="46.1271449457854">
        <ele>899.0</ele>
        <time>2013-04-10T15:54:36.000Z</time>
      </trkpt>
      <trkpt lon="7.02708394266665" lat="46.12710798159242">
        <ele>899.7999877929688</ele>
        <time>2013-04-10T15:54:39.000Z</time>
      </trkpt>
      <trkpt lon="7.027030969038606" lat="46.12702399492264">
        <ele>901.4000244140625</ele>
        <time>2013-04-10T15:54:45.000Z</time>
      </trkpt>
      <trkpt lon="7.026973972097039" lat="46.12692994996905">
        <ele>902.7999877929688</ele>
        <time>2013-04-10T15:54:51.000Z</time>
      </trkpt>
      <trkpt lon="7.0269199926406145" lat="46.12683196552098">
        <ele>904.0</ele>
        <time>2013-04-10T15:54:58.000Z</time>
      </trkpt>
      <trkpt lon="7.026893924921751" lat="46.126785948872566">
        <ele>904.4000244140625</ele>
        <time>2013-04-10T15:55:05.000Z</time>
      </trkpt>
      <trkpt lon="7.026893924921751" lat="46.126785948872566">
        <ele>904.4000244140625</ele>
        <time>2013-04-10T15:55:10.000Z</time>
      </trkpt>
      <trkpt lon="7.026893924921751" lat="46.126785948872566">
        <ele>904.4000244140625</ele>
        <time>2013-04-10T15:55:16.000Z</time>
      </trkpt>
      <trkpt lon="7.0267639216035604" lat="46.126569947227836">
        <ele>906.5999755859375</ele>
        <time>2013-04-10T15:55:24.000Z</time>
      </trkpt>
      <trkpt lon="7.026681946590543" lat="46.12646894529462">
        <ele>907.7999877929688</ele>
        <time>2013-04-10T15:55:32.000Z</time>
      </trkpt>
      <trkpt lon="7.026605922728777" lat="46.126375989988446">
        <ele>909.7999877929688</ele>
        <time>2013-04-10T15:55:40.000Z</time>
      </trkpt>
      <trkpt lon="7.026542974635959" lat="46.12630792893469">
        <ele>911.2000122070312</ele>
        <time>2013-04-10T15:55:47.000Z</time>
      </trkpt>
      <trkpt lon="7.026460999622941" lat="46.12622897140682">
        <ele>913.0</ele>
        <time>2013-04-10T15:55:55.000Z</time>
      </trkpt>
      <trkpt lon="7.026394950225949" lat="46.12616694532335">
        <ele>914.0</ele>
        <time>2013-04-10T15:56:01.000Z</time>
      </trkpt>
      <trkpt lon="7.02630995772779" lat="46.12608698196709">
        <ele>915.2000122070312</ele>
        <time>2013-04-10T15:56:08.000Z</time>
      </trkpt>
      <trkpt lon="7.026272993534803" lat="46.126051945611835">
        <ele>915.5999755859375</ele>
        <time>2013-04-10T15:56:12.000Z</time>
      </trkpt>
      <trkpt lon="7.026211973279715" lat="46.12599394284189">
        <ele>916.0</ele>
        <time>2013-04-10T15:56:18.000Z</time>
      </trkpt>
      <trkpt lon="7.026123963296413" lat="46.12591993063688">
        <ele>916.4000244140625</ele>
        <time>2013-04-10T15:56:25.000Z</time>
      </trkpt>
      <trkpt lon="7.0260249730199575" lat="46.12584893591702">
        <ele>916.4000244140625</ele>
        <time>2013-04-10T15:56:31.000Z</time>
      </trkpt>
      <trkpt lon="7.025912990793586" lat="46.125766960904">
        <ele>917.7999877929688</ele>
        <time>2013-04-10T15:56:37.000Z</time>
      </trkpt>
      <trkpt lon="7.025808971375227" lat="46.1256739217788">
        <ele>919.2000122070312</ele>
        <time>2013-04-10T15:56:45.000Z</time>
      </trkpt>
      <trkpt lon="7.025733953341842" lat="46.125602927058935">
        <ele>921.0</ele>
        <time>2013-04-10T15:56:51.000Z</time>
      </trkpt>
      <trkpt lon="7.025651978328824" lat="46.125516928732395">
        <ele>922.5999755859375</ele>
        <time>2013-04-10T15:56:59.000Z</time>
      </trkpt>
      <trkpt lon="7.0255799777805805" lat="46.12543998286128">
        <ele>923.7999877929688</ele>
        <time>2013-04-10T15:57:05.000Z</time>
      </trkpt>
      <trkpt lon="7.025486938655376" lat="46.125342920422554">
        <ele>924.5999755859375</ele>
        <time>2013-04-10T15:57:13.000Z</time>
      </trkpt>
      <trkpt lon="7.025422984734178" lat="46.12527594901621">
        <ele>925.0</ele>
        <time>2013-04-10T15:57:19.000Z</time>
      </trkpt>
      <trkpt lon="7.025317959487438" lat="46.125151980668306">
        <ele>924.7999877929688</ele>
        <time>2013-04-10T15:57:27.000Z</time>
      </trkpt>
      <trkpt lon="7.025258950889111" lat="46.125064976513386">
        <ele>924.0</ele>
        <time>2013-04-10T15:57:34.000Z</time>
      </trkpt>
      <trkpt lon="7.025189967826009" lat="46.12496397458017">
        <ele>924.0</ele>
        <time>2013-04-10T15:57:42.000Z</time>
      </trkpt>
      <trkpt lon="7.0251489803195" lat="46.12490396015346">
        <ele>924.7999877929688</ele>
        <time>2013-04-10T15:57:47.000Z</time>
      </trkpt>
      <trkpt lon="7.025081925094128" lat="46.124804969877005">
        <ele>925.7999877929688</ele>
        <time>2013-04-10T15:57:55.000Z</time>
      </trkpt>
      <trkpt lon="7.025014953687787" lat="46.12470799125731">
        <ele>926.4000244140625</ele>
        <time>2013-04-10T15:58:04.000Z</time>
      </trkpt>
      <trkpt lon="7.0249629858881235" lat="46.12463096156716">
        <ele>927.7999877929688</ele>
        <time>2013-04-10T15:58:11.000Z</time>
      </trkpt>
      <trkpt lon="7.024920992553234" lat="46.124569941312075">
        <ele>929.2000122070312</ele>
        <time>2013-04-10T15:58:18.000Z</time>
      </trkpt>
      <trkpt lon="7.0249079167842865" lat="46.12455099821091">
        <ele>929.5999755859375</ele>
        <time>2013-04-10T15:58:20.000Z</time>
      </trkpt>
      <trkpt lon="7.0248419512063265" lat="46.1244529299438">
        <ele>931.2000122070312</ele>
        <time>2013-04-10T15:58:28.000Z</time>
      </trkpt>
      <trkpt lon="7.024726951494813" lat="46.12428495660424">
        <ele>933.0</ele>
        <time>2013-04-10T15:58:39.000Z</time>
      </trkpt>
      <trkpt lon="7.024610945954919" lat="46.12414296716452">
        <ele>934.2000122070312</ele>
        <time>2013-04-10T15:58:48.000Z</time>
      </trkpt>
      <trkpt lon="7.024515978991985" lat="46.12403794191778">
        <ele>936.4000244140625</ele>
        <time>2013-04-10T15:58:56.000Z</time>
      </trkpt>
      <trkpt lon="7.024383964017034" lat="46.12393199466169">
        <ele>938.4000244140625</ele>
        <time>2013-04-10T15:59:04.000Z</time>
      </trkpt>
      <trkpt lon="7.024228982627392" lat="46.12383694387972">
        <ele>940.0</ele>
        <time>2013-04-10T15:59:13.000Z</time>
      </trkpt>
      <trkpt lon="7.024074923247099" lat="46.12374692223966">
        <ele>942.4000244140625</ele>
        <time>2013-04-10T15:59:22.000Z</time>
      </trkpt>
      <trkpt lon="7.023920947685838" lat="46.12367894500494">
        <ele>945.2000122070312</ele>
        <time>2013-04-10T15:59:30.000Z</time>
      </trkpt>
      <trkpt lon="7.0237599313259125" lat="46.12360895611346">
        <ele>947.4000244140625</ele>
        <time>2013-04-10T15:59:38.000Z</time>
      </trkpt>
      <trkpt lon="7.023625988513231" lat="46.12354994751513">
        <ele>948.7999877929688</ele>
        <time>2013-04-10T15:59:45.000Z</time>
      </trkpt>
      <trkpt lon="7.023529931902885" lat="46.12348599359393">
        <ele>949.2000122070312</ele>
        <time>2013-04-10T15:59:51.000Z</time>
      </trkpt>
      <trkpt lon="7.023496991023421" lat="46.123452968895435">
        <ele>949.2000122070312</ele>
        <time>2013-04-10T15:59:55.000Z</time>
      </trkpt>
      <trkpt lon="7.023422978818417" lat="46.12337895669043">
        <ele>949.0</ele>
        <time>2013-04-10T16:00:03.000Z</time>
      </trkpt>
      <trkpt lon="7.023362964391708" lat="46.12331399694085">
        <ele>949.0</ele>
        <time>2013-04-10T16:00:09.000Z</time>
      </trkpt>
      <trkpt lon="7.023291969671845" lat="46.12322992645204">
        <ele>951.0</ele>
        <time>2013-04-10T16:00:17.000Z</time>
      </trkpt>
      <trkpt lon="7.023230949416757" lat="46.123172929510474">
        <ele>952.7999877929688</ele>
        <time>2013-04-10T16:00:24.000Z</time>
      </trkpt>
      <trkpt lon="7.0231199730187654" lat="46.123086931183934">
        <ele>955.5999755859375</ele>
        <time>2013-04-10T16:00:32.000Z</time>
      </trkpt>
      <trkpt lon="7.023049984127283" lat="46.1230419203639">
        <ele>957.2000122070312</ele>
        <time>2013-04-10T16:00:40.000Z</time>
      </trkpt>
      <trkpt lon="7.022993993014097" lat="46.12301794812083">
        <ele>958.2000122070312</ele>
        <time>2013-04-10T16:00:45.000Z</time>
      </trkpt>
      <trkpt lon="7.022926937788725" lat="46.12298995256424">
        <ele>959.2000122070312</ele>
        <time>2013-04-10T16:00:50.000Z</time>
      </trkpt>
      <trkpt lon="7.022816967219114" lat="46.12294494174421">
        <ele>960.5999755859375</ele>
        <time>2013-04-10T16:00:58.000Z</time>
      </trkpt>
      <trkpt lon="7.022816967219114" lat="46.12294494174421">
        <ele>960.5999755859375</ele>
        <time>2013-04-10T16:01:04.000Z</time>
      </trkpt>
      <trkpt lon="7.022573975846171" lat="46.122636990621686">
        <ele>958.5999755859375</ele>
        <time>2013-04-10T16:01:11.000Z</time>
      </trkpt>
      <trkpt lon="7.022557966411114" lat="46.12262098118663">
        <ele>958.4000244140625</ele>
        <time>2013-04-10T16:01:12.000Z</time>
      </trkpt>
      <trkpt lon="7.022501975297928" lat="46.12256499007344">
        <ele>957.4000244140625</ele>
        <time>2013-04-10T16:01:16.000Z</time>
      </trkpt>
      <trkpt lon="7.022381946444511" lat="46.122444961220026">
        <ele>957.4000244140625</ele>
        <time>2013-04-10T16:01:23.000Z</time>
      </trkpt>
      <trkpt lon="7.02226996421814" lat="46.122335996478796">
        <ele>958.0</ele>
        <time>2013-04-10T16:01:28.000Z</time>
      </trkpt>
      <trkpt lon="7.022119928151369" lat="46.12218998372555">
        <ele>957.0</ele>
        <time>2013-04-10T16:01:35.000Z</time>
      </trkpt>
      <trkpt lon="7.021917924284935" lat="46.121992925181985">
        <ele>953.0</ele>
        <time>2013-04-10T16:01:44.000Z</time>
      </trkpt>
      <trkpt lon="7.021785993129015" lat="46.121865939348936">
        <ele>948.7999877929688</ele>
        <time>2013-04-10T16:01:50.000Z</time>
      </trkpt>
      <trkpt lon="7.021646937355399" lat="46.121729984879494">
        <ele>943.4000244140625</ele>
        <time>2013-04-10T16:01:57.000Z</time>
      </trkpt>
      <trkpt lon="7.021459937095642" lat="46.1215759254992">
        <ele>944.4000244140625</ele>
        <time>2013-04-10T16:02:05.000Z</time>
      </trkpt>
      <trkpt lon="7.02136698178947" lat="46.12154893577099">
        <ele>945.5999755859375</ele>
        <time>2013-04-10T16:02:08.000Z</time>
      </trkpt>
      <trkpt lon="7.021342925727367" lat="46.12159092910588">
        <ele>946.2000122070312</ele>
        <time>2013-04-10T16:02:12.000Z</time>
      </trkpt>
      <trkpt lon="7.02136798761785" lat="46.1216089501977">
        <ele>946.0</ele>
        <time>2013-04-10T16:02:13.000Z</time>
      </trkpt>
      <trkpt lon="7.021593963727355" lat="46.1217849701643">
        <ele>946.2000122070312</ele>
        <time>2013-04-10T16:02:23.000Z</time>
      </trkpt>
      <trkpt lon="7.021565968170762" lat="46.12182595767081">
        <ele>948.2000122070312</ele>
        <time>2013-04-10T16:02:27.000Z</time>
      </trkpt>
      <trkpt lon="7.0214939676225185" lat="46.121779941022396">
        <ele>948.0</ele>
        <time>2013-04-10T16:02:30.000Z</time>
      </trkpt>
      <trkpt lon="7.021311996504664" lat="46.12168497405946">
        <ele>948.0</ele>
        <time>2013-04-10T16:02:37.000Z</time>
      </trkpt>
      <trkpt lon="7.021165983751416" lat="46.121643986552954">
        <ele>949.5999755859375</ele>
        <time>2013-04-10T16:02:43.000Z</time>
      </trkpt>
      <trkpt lon="7.021115943789482" lat="46.12164298072457">
        <ele>950.4000244140625</ele>
        <time>2013-04-10T16:02:48.000Z</time>
      </trkpt>
      <trkpt lon="7.020998932421207" lat="46.121646920219064">
        <ele>952.5999755859375</ele>
        <time>2013-04-10T16:02:55.000Z</time>
      </trkpt>
      <trkpt lon="7.020911928266287" lat="46.12166292965412">
        <ele>954.4000244140625</ele>
        <time>2013-04-10T16:03:05.000Z</time>
      </trkpt>
      <trkpt lon="7.020906982943416" lat="46.12165798433125">
        <ele>954.4000244140625</ele>
        <time>2013-04-10T16:03:06.000Z</time>
      </trkpt>
      <trkpt lon="7.020872952416539" lat="46.1218539532274">
        <ele>962.2000122070312</ele>
        <time>2013-04-10T16:04:03.000Z</time>
      </trkpt>
      <trkpt lon="7.020694920793176" lat="46.12193793989718">
        <ele>970.5999755859375</ele>
        <time>2013-04-10T16:04:30.000Z</time>
      </trkpt>
      <trkpt lon="7.020651921629906" lat="46.121906926855445">
        <ele>970.7999877929688</ele>
        <time>2013-04-10T16:04:35.000Z</time>
      </trkpt>
      <trkpt lon="7.020770944654942" lat="46.121778935194016">
        <ele>962.0</ele>
        <time>2013-04-10T16:04:51.000Z</time>
      </trkpt>
      <trkpt lon="7.020877981558442" lat="46.121643986552954">
        <ele>954.5999755859375</ele>
        <time>2013-04-10T16:05:11.000Z</time>
      </trkpt>
      <trkpt lon="7.020817967131734" lat="46.12171799875796">
        <ele>958.2000122070312</ele>
        <time>2013-04-10T16:05:20.000Z</time>
      </trkpt>
      <trkpt lon="7.021130947396159" lat="46.12157793715596">
        <ele>949.4000244140625</ele>
        <time>2013-04-10T16:06:22.000Z</time>
      </trkpt>
      <trkpt lon="7.0212289318442345" lat="46.12152395769954">
        <ele>947.4000244140625</ele>
        <time>2013-04-10T16:06:31.000Z</time>
      </trkpt>
      <trkpt lon="7.021187944337726" lat="46.12159193493426">
        <ele>948.5999755859375</ele>
        <time>2013-04-10T16:06:35.000Z</time>
      </trkpt>
      <trkpt lon="7.021118961274624" lat="46.12165597267449">
        <ele>950.5999755859375</ele>
        <time>2013-04-10T16:06:41.000Z</time>
      </trkpt>
      <trkpt lon="7.020901953801513" lat="46.12171498127282">
        <ele>956.4000244140625</ele>
        <time>2013-04-10T16:06:51.000Z</time>
      </trkpt>
      <trkpt lon="7.020895918831229" lat="46.121712969616055">
        <ele>956.4000244140625</ele>
        <time>2013-04-10T16:06:52.000Z</time>
      </trkpt>
      <trkpt lon="7.020878987386823" lat="46.12171699292958">
        <ele>957.0</ele>
        <time>2013-04-10T16:06:56.000Z</time>
      </trkpt>
      <trkpt lon="7.020842945203185" lat="46.121668964624405">
        <ele>955.7999877929688</ele>
        <time>2013-04-10T16:07:45.000Z</time>
      </trkpt>
      <trkpt lon="7.020957944914699" lat="46.12163099460304">
        <ele>953.0</ele>
        <time>2013-04-10T16:08:00.000Z</time>
      </trkpt>
      <trkpt lon="7.020855937153101" lat="46.121603921055794">
        <ele>954.2000122070312</ele>
        <time>2013-04-10T16:08:34.000Z</time>
      </trkpt>
      <trkpt lon="7.02089692465961" lat="46.12176191993058">
        <ele>958.2000122070312</ele>
        <time>2013-04-10T16:08:51.000Z</time>
      </trkpt>
      <trkpt lon="7.020907988771796" lat="46.121773989871144">
        <ele>958.5999755859375</ele>
        <time>2013-04-10T16:08:52.000Z</time>
      </trkpt>
      <trkpt lon="7.021216945722699" lat="46.12158698961139">
        <ele>948.2000122070312</ele>
        <time>2013-04-10T16:09:04.000Z</time>
      </trkpt>
      <trkpt lon="7.021259944885969" lat="46.12148397602141">
        <ele>946.5999755859375</ele>
        <time>2013-04-10T16:09:09.000Z</time>
      </trkpt>
      <trkpt lon="7.021173946559429" lat="46.12131197936833">
        <ele>945.5999755859375</ele>
        <time>2013-04-10T16:09:15.000Z</time>
      </trkpt>
      <trkpt lon="7.021016953513026" lat="46.1210129968822">
        <ele>941.4000244140625</ele>
        <time>2013-04-10T16:09:23.000Z</time>
      </trkpt>
      <trkpt lon="7.020875969901681" lat="46.120786936953664">
        <ele>937.0</ele>
        <time>2013-04-10T16:09:29.000Z</time>
      </trkpt>
      <trkpt lon="7.020840933546424" lat="46.120746955275536">
        <ele>936.5999755859375</ele>
        <time>2013-04-10T16:09:30.000Z</time>
      </trkpt>
      <trkpt lon="7.0207129418849945" lat="46.12060798332095">
        <ele>936.7999877929688</ele>
        <time>2013-04-10T16:09:35.000Z</time>
      </trkpt>
      <trkpt lon="7.020547986030579" lat="46.120383935049176">
        <ele>936.0</ele>
        <time>2013-04-10T16:09:42.000Z</time>
      </trkpt>
      <trkpt lon="7.020427957177162" lat="46.12019995227456">
        <ele>934.5999755859375</ele>
        <time>2013-04-10T16:09:46.000Z</time>
      </trkpt>
      <trkpt lon="7.020341958850622" lat="46.120120994746685">
        <ele>933.7999877929688</ele>
        <time>2013-04-10T16:09:48.000Z</time>
      </trkpt>
      <trkpt lon="7.020177925005555" lat="46.120031978935">
        <ele>932.5999755859375</ele>
        <time>2013-04-10T16:09:51.000Z</time>
      </trkpt>
      <trkpt lon="7.020111959427595" lat="46.11995595507324">
        <ele>931.4000244140625</ele>
        <time>2013-04-10T16:09:55.000Z</time>
      </trkpt>
      <trkpt lon="7.0201109535992146" lat="46.11995595507324">
        <ele>931.4000244140625</ele>
        <time>2013-04-10T16:09:56.000Z</time>
      </trkpt>
      <trkpt lon="7.020069966092706" lat="46.11999895423651">
        <ele>932.0</ele>
        <time>2013-04-10T16:10:29.000Z</time>
      </trkpt>
      <trkpt lon="7.020293930545449" lat="46.120102973654866">
        <ele>933.5999755859375</ele>
        <time>2013-04-10T16:10:35.000Z</time>
      </trkpt>
      <trkpt lon="7.020427957177162" lat="46.12024295143783">
        <ele>935.0</ele>
        <time>2013-04-10T16:10:41.000Z</time>
      </trkpt>
      <trkpt lon="7.020507920533419" lat="46.12034596502781">
        <ele>935.7999877929688</ele>
        <time>2013-04-10T16:10:45.000Z</time>
      </trkpt>
      <trkpt lon="7.02057296410203" lat="46.1204949952662">
        <ele>936.7999877929688</ele>
        <time>2013-04-10T16:10:50.000Z</time>
      </trkpt>
      <trkpt lon="7.020656950771809" lat="46.12062893807888">
        <ele>937.4000244140625</ele>
        <time>2013-04-10T16:10:55.000Z</time>
      </trkpt>
      <trkpt lon="7.0207989402115345" lat="46.12079498358071">
        <ele>937.0</ele>
        <time>2013-04-10T16:11:00.000Z</time>
      </trkpt>
      <trkpt lon="7.020891979336739" lat="46.12091392278671">
        <ele>939.0</ele>
        <time>2013-04-10T16:11:05.000Z</time>
      </trkpt>
      <trkpt lon="7.0209709368646145" lat="46.12105892971158">
        <ele>942.2000122070312</ele>
        <time>2013-04-10T16:11:10.000Z</time>
      </trkpt>
      <trkpt lon="7.021055929362774" lat="46.12123193219304">
        <ele>945.0</ele>
        <time>2013-04-10T16:11:15.000Z</time>
      </trkpt>
      <trkpt lon="7.021256927400827" lat="46.121434941887856">
        <ele>946.2000122070312</ele>
        <time>2013-04-10T16:11:21.000Z</time>
      </trkpt>
      <trkpt lon="7.021291963756084" lat="46.12154994159937">
        <ele>946.5999755859375</ele>
        <time>2013-04-10T16:11:25.000Z</time>
      </trkpt>
      <trkpt lon="7.021420961245894" lat="46.12165194936097">
        <ele>945.2000122070312</ele>
        <time>2013-04-10T16:11:28.000Z</time>
      </trkpt>
      <trkpt lon="7.021677950397134" lat="46.12189091742039">
        <ele>948.5999755859375</ele>
        <time>2013-04-10T16:11:34.000Z</time>
      </trkpt>
      <trkpt lon="7.021913984790444" lat="46.121989991515875">
        <ele>953.0</ele>
        <time>2013-04-10T16:11:40.000Z</time>
      </trkpt>
      <trkpt lon="7.022064942866564" lat="46.12213692627847">
        <ele>956.4000244140625</ele>
        <time>2013-04-10T16:11:45.000Z</time>
      </trkpt>
      <trkpt lon="7.022162927314639" lat="46.12223197706044">
        <ele>957.5999755859375</ele>
        <time>2013-04-10T16:11:48.000Z</time>
      </trkpt>
      <trkpt lon="7.022275999188423" lat="46.12234194763005">
        <ele>958.0</ele>
        <time>2013-04-10T16:11:51.000Z</time>
      </trkpt>
      <trkpt lon="7.022417988628149" lat="46.12248091958463">
        <ele>957.2000122070312</ele>
        <time>2013-04-10T16:11:55.000Z</time>
      </trkpt>
      <trkpt lon="7.022645976394415" lat="46.12270999699831">
        <ele>959.4000244140625</ele>
        <time>2013-04-10T16:12:01.000Z</time>
      </trkpt>
      <trkpt lon="7.022758964449167" lat="46.12285693176091">
        <ele>960.4000244140625</ele>
        <time>2013-04-10T16:12:05.000Z</time>
      </trkpt>
      <trkpt lon="7.023074962198734" lat="46.12305197864771">
        <ele>956.5999755859375</ele>
        <time>2013-04-10T16:12:09.000Z</time>
      </trkpt>
      <trkpt lon="7.0233149360865355" lat="46.123256999999285">
        <ele>950.2000122070312</ele>
        <time>2013-04-10T16:12:13.000Z</time>
      </trkpt>
      <trkpt lon="7.023778958246112" lat="46.12361691892147">
        <ele>947.2000122070312</ele>
        <time>2013-04-10T16:12:18.000Z</time>
      </trkpt>
      <trkpt lon="7.024012980982661" lat="46.12371993251145">
        <ele>943.5999755859375</ele>
        <time>2013-04-10T16:12:20.000Z</time>
      </trkpt>
      <trkpt lon="7.024450935423374" lat="46.12398597411811">
        <ele>937.4000244140625</ele>
        <time>2013-04-10T16:12:24.000Z</time>
      </trkpt>
      <trkpt lon="7.02454992569983" lat="46.12406493164599">
        <ele>935.7999877929688</ele>
        <time>2013-04-10T16:12:25.000Z</time>
      </trkpt>
      <trkpt lon="7.024831976741552" lat="46.1244389321655">
        <ele>931.4000244140625</ele>
        <time>2013-04-10T16:12:29.000Z</time>
      </trkpt>
      <trkpt lon="7.024920992553234" lat="46.124570947140455">
        <ele>929.2000122070312</ele>
        <time>2013-04-10T16:12:32.000Z</time>
      </trkpt>
      <trkpt lon="7.024916969239712" lat="46.12456399016082">
        <ele>929.4000244140625</ele>
        <time>2013-04-10T16:12:34.000Z</time>
      </trkpt>
      <trkpt lon="7.024916969239712" lat="46.12456399016082">
        <ele>929.4000244140625</ele>
        <time>2013-04-10T16:13:14.000Z</time>
      </trkpt>
      <trkpt lon="7.024916969239712" lat="46.12456399016082">
        <ele>929.4000244140625</ele>
        <time>2013-04-10T16:13:23.000Z</time>
      </trkpt>
      <trkpt lon="7.024916969239712" lat="46.12456399016082">
        <ele>929.4000244140625</ele>
        <time>2013-04-10T16:13:50.000Z</time>
      </trkpt>
      <trkpt lon="7.024916969239712" lat="46.12456399016082">
        <ele>929.4000244140625</ele>
        <time>2013-04-10T16:14:04.000Z</time>
      </trkpt>
      <trkpt lon="7.024916969239712" lat="46.12456399016082">
        <ele>929.4000244140625</ele>
        <time>2013-04-10T16:14:24.000Z</time>
      </trkpt>
      <trkpt lon="7.024916969239712" lat="46.12456399016082">
        <ele>929.4000244140625</ele>
        <time>2013-04-10T16:14:26.000Z</time>
      </trkpt>
      <trkpt lon="7.024916969239712" lat="46.12456399016082">
        <ele>929.4000244140625</ele>
        <time>2013-04-10T16:14:31.000Z</time>
      </trkpt>
      <trkpt lon="7.024916969239712" lat="46.12456399016082">
        <ele>929.4000244140625</ele>
        <time>2013-04-10T16:14:37.000Z</time>
      </trkpt>
      <trkpt lon="7.024940941482782" lat="46.12459894269705">
        <ele>928.5999755859375</ele>
        <time>2013-04-10T16:15:20.000Z</time>
      </trkpt>
      <trkpt lon="7.025002967566252" lat="46.12468997016549">
        <ele>926.5999755859375</ele>
        <time>2013-04-10T16:15:22.000Z</time>
      </trkpt>
      <trkpt lon="7.025203965604305" lat="46.12498392350972">
        <ele>923.5999755859375</ele>
        <time>2013-04-10T16:15:26.000Z</time>
      </trkpt>
      <trkpt lon="7.025617947801948" lat="46.12547996453941">
        <ele>923.2000122070312</ele>
        <time>2013-04-10T16:15:32.000Z</time>
      </trkpt>
      <trkpt lon="7.025927994400263" lat="46.1257809586823">
        <ele>917.5999755859375</ele>
        <time>2013-04-10T16:15:36.000Z</time>
      </trkpt>
      <trkpt lon="7.026072917506099" lat="46.12588397227228">
        <ele>916.4000244140625</ele>
        <time>2013-04-10T16:15:38.000Z</time>
      </trkpt>
      <trkpt lon="7.026254972442985" lat="46.126033924520016">
        <ele>915.5999755859375</ele>
        <time>2013-04-10T16:15:42.000Z</time>
      </trkpt>
      <trkpt lon="7.026370977982879" lat="46.12614397890866">
        <ele>914.4000244140625</ele>
        <time>2013-04-10T16:15:46.000Z</time>
      </trkpt>
      <trkpt lon="7.026643976569176" lat="46.12642292864621">
        <ele>908.5999755859375</ele>
        <time>2013-04-10T16:15:53.000Z</time>
      </trkpt>
      <trkpt lon="7.026771968230605" lat="46.12658293917775">
        <ele>906.5999755859375</ele>
        <time>2013-04-10T16:15:56.000Z</time>
      </trkpt>
      <trkpt lon="7.026893924921751" lat="46.126785948872566">
        <ele>904.4000244140625</ele>
        <time>2013-04-10T16:16:00.000Z</time>
      </trkpt>
      <trkpt lon="7.0271149557083845" lat="46.12715592607856">
        <ele>898.5999755859375</ele>
        <time>2013-04-10T16:16:06.000Z</time>
      </trkpt>
      <trkpt lon="7.0272669196128845" lat="46.127337981015444">
        <ele>893.2000122070312</ele>
        <time>2013-04-10T16:16:09.000Z</time>
      </trkpt>
      <trkpt lon="7.02751494012773" lat="46.12754099071026">
        <ele>884.4000244140625</ele>
        <time>2013-04-10T16:16:12.000Z</time>
      </trkpt>
      <trkpt lon="7.027828926220536" lat="46.12778699956834">
        <ele>884.5999755859375</ele>
        <time>2013-04-10T16:16:16.000Z</time>
      </trkpt>
      <trkpt lon="7.02805096283555" lat="46.12808397039771">
        <ele>881.4000244140625</ele>
        <time>2013-04-10T16:16:20.000Z</time>
      </trkpt>
      <trkpt lon="7.02837391756475" lat="46.12835898064077">
        <ele>872.5999755859375</ele>
        <time>2013-04-10T16:16:24.000Z</time>
      </trkpt>
      <trkpt lon="7.028688993304968" lat="46.12857196480036">
        <ele>868.0</ele>
        <time>2013-04-10T16:16:27.000Z</time>
      </trkpt>
      <trkpt lon="7.0290369261056185" lat="46.128825936466455">
        <ele>859.4000244140625</ele>
        <time>2013-04-10T16:16:31.000Z</time>
      </trkpt>
      <trkpt lon="7.029153937473893" lat="46.129060965031385">
        <ele>853.5999755859375</ele>
        <time>2013-04-10T16:16:35.000Z</time>
      </trkpt>
      <trkpt lon="7.029189979657531" lat="46.12911695614457">
        <ele>852.0</ele>
        <time>2013-04-10T16:16:36.000Z</time>
      </trkpt>
      <trkpt lon="7.029282934963703" lat="46.12926196306944">
        <ele>848.0</ele>
        <time>2013-04-10T16:16:40.000Z</time>
      </trkpt>
      <trkpt lon="7.029447974637151" lat="46.12924293614924">
        <ele>844.2000122070312</ele>
        <time>2013-04-10T16:16:42.000Z</time>
      </trkpt>
      <trkpt lon="7.029365999624133" lat="46.128955939784646">
        <ele>851.5999755859375</ele>
        <time>2013-04-10T16:16:47.000Z</time>
      </trkpt>
      <trkpt lon="7.029449986293912" lat="46.128670955076814">
        <ele>856.5999755859375</ele>
        <time>2013-04-10T16:16:51.000Z</time>
      </trkpt>
      <trkpt lon="7.029391983523965" lat="46.128737926483154">
        <ele>855.5999755859375</ele>
        <time>2013-04-10T16:16:53.000Z</time>
      </trkpt>
      <trkpt lon="7.028524959459901" lat="46.129167918115854">
        <ele>871.2000122070312</ele>
        <time>2013-04-10T16:16:55.000Z</time>
      </trkpt>
      <trkpt lon="7.029447974637151" lat="46.12922793254256">
        <ele>844.4000244140625</ele>
        <time>2013-04-10T16:17:00.000Z</time>
      </trkpt>
      <trkpt lon="7.02938293106854" lat="46.129338992759585">
        <ele>844.4000244140625</ele>
        <time>2013-04-10T16:17:04.000Z</time>
      </trkpt>
      <trkpt lon="7.02938293106854" lat="46.129338992759585">
        <ele>844.4000244140625</ele>
        <time>2013-04-10T16:17:07.000Z</time>
      </trkpt>
      <trkpt lon="7.029784927144647" lat="46.129552982747555">
        <ele>829.4000244140625</ele>
        <time>2013-04-10T16:17:10.000Z</time>
      </trkpt>
      <trkpt lon="7.02987696044147" lat="46.129424991086125">
        <ele>829.5999755859375</ele>
        <time>2013-04-10T16:17:13.000Z</time>
      </trkpt>
      <trkpt lon="7.029693983495235" lat="46.12941795028746">
        <ele>834.7999877929688</ele>
        <time>2013-04-10T16:17:16.000Z</time>
      </trkpt>
      <trkpt lon="7.029816946014762" lat="46.129508977755904">
        <ele>829.4000244140625</ele>
        <time>2013-04-10T16:17:19.000Z</time>
      </trkpt>
      <trkpt lon="7.029785932973027" lat="46.129552982747555">
        <ele>829.4000244140625</ele>
        <time>2013-04-10T16:17:20.000Z</time>
      </trkpt>
      <trkpt lon="7.029725918546319" lat="46.12958994694054">
        <ele>830.4000244140625</ele>
        <time>2013-04-10T16:17:22.000Z</time>
      </trkpt>
      <trkpt lon="7.0300049521028996" lat="46.130000995472074">
        <ele>811.7999877929688</ele>
        <time>2013-04-10T16:17:27.000Z</time>
      </trkpt>
      <trkpt lon="7.029988942667842" lat="46.12992497161031">
        <ele>814.2000122070312</ele>
        <time>2013-04-10T16:17:31.000Z</time>
      </trkpt>
      <trkpt lon="7.02970496378839" lat="46.129596987739205">
        <ele>830.7999877929688</ele>
        <time>2013-04-10T16:17:35.000Z</time>
      </trkpt>
      <trkpt lon="7.0300909504294395" lat="46.129789939150214">
        <ele>815.7999877929688</ele>
        <time>2013-04-10T16:17:38.000Z</time>
      </trkpt>
      <trkpt lon="7.030117940157652" lat="46.12984894774854">
        <ele>813.5999755859375</ele>
        <time>2013-04-10T16:17:42.000Z</time>
      </trkpt>
      <trkpt lon="7.03024098649621" lat="46.13010392524302">
        <ele>805.4000244140625</ele>
        <time>2013-04-10T16:17:47.000Z</time>
      </trkpt>
      <trkpt lon="7.02959792688489" lat="46.130111971870065">
        <ele>825.5999755859375</ele>
        <time>2013-04-10T16:17:48.000Z</time>
      </trkpt>
      <trkpt lon="7.03032698482275" lat="46.129961935803294">
        <ele>805.5999755859375</ele>
        <time>2013-04-10T16:17:53.000Z</time>
      </trkpt>
      <trkpt lon="7.029605973511934" lat="46.12994894385338">
        <ele>827.0</ele>
        <time>2013-04-10T16:17:55.000Z</time>
      </trkpt>
      <trkpt lon="7.02959792688489" lat="46.130111971870065">
        <ele>825.5999755859375</ele>
        <time>2013-04-10T16:18:00.000Z</time>
      </trkpt>
      <trkpt lon="7.02959792688489" lat="46.130111971870065">
        <ele>825.5999755859375</ele>
        <time>2013-04-10T16:18:01.000Z</time>
      </trkpt>
      <trkpt lon="7.029600944370031" lat="46.1300169210881">
        <ele>826.2000122070312</ele>
        <time>2013-04-10T16:18:05.000Z</time>
      </trkpt>
      <trkpt lon="7.02959792688489" lat="46.130111971870065">
        <ele>825.5999755859375</ele>
        <time>2013-04-10T16:18:08.000Z</time>
      </trkpt>
      <trkpt lon="7.02959792688489" lat="46.130111971870065">
        <ele>825.5999755859375</ele>
        <time>2013-04-10T16:18:10.000Z</time>
      </trkpt>
      <trkpt lon="7.02959792688489" lat="46.130111971870065">
        <ele>825.5999755859375</ele>
        <time>2013-04-10T16:18:11.000Z</time>
      </trkpt>
      <trkpt lon="7.030888991430402" lat="46.130457976832986">
        <ele>782.7999877929688</ele>
        <time>2013-04-10T16:18:15.000Z</time>
      </trkpt>
      <trkpt lon="7.031041961163282" lat="46.13068596459925">
        <ele>773.0</ele>
        <time>2013-04-10T16:18:19.000Z</time>
      </trkpt>
      <trkpt lon="7.031092923134565" lat="46.1307439673692">
        <ele>769.4000244140625</ele>
        <time>2013-04-10T16:18:21.000Z</time>
      </trkpt>
      <trkpt lon="7.03101497143507" lat="46.1306559573859">
        <ele>774.7999877929688</ele>
        <time>2013-04-10T16:18:24.000Z</time>
      </trkpt>
      <trkpt lon="7.031257962808013" lat="46.13051698543131">
        <ele>771.7999877929688</ele>
        <time>2013-04-10T16:18:29.000Z</time>
      </trkpt>
      <trkpt lon="7.03138193115592" lat="46.13059594295919">
        <ele>765.0</ele>
        <time>2013-04-10T16:18:33.000Z</time>
      </trkpt>
      <trkpt lon="7.031379919499159" lat="46.13062595017254">
        <ele>763.5999755859375</ele>
        <time>2013-04-10T16:18:34.000Z</time>
      </trkpt>
      <trkpt lon="7.031185962259769" lat="46.130692921578884">
        <ele>767.5999755859375</ele>
        <time>2013-04-10T16:18:38.000Z</time>
      </trkpt>
      <trkpt lon="7.031185962259769" lat="46.13073097541928">
        <ele>766.2000122070312</ele>
        <time>2013-04-10T16:18:39.000Z</time>
      </trkpt>
      <trkpt lon="7.03129299916327" lat="46.13093792460859">
        <ele>756.0</ele>
        <time>2013-04-10T16:18:42.000Z</time>
      </trkpt>
      <trkpt lon="7.031354941427708" lat="46.131078992038965">
        <ele>750.2000122070312</ele>
        <time>2013-04-10T16:18:44.000Z</time>
      </trkpt>
      <trkpt lon="7.03150799497962" lat="46.13107597455382">
        <ele>743.2000122070312</ele>
        <time>2013-04-10T16:18:48.000Z</time>
      </trkpt>
      <trkpt lon="7.031552921980619" lat="46.13092199899256">
        <ele>744.7999877929688</ele>
        <time>2013-04-10T16:18:51.000Z</time>
      </trkpt>
      <trkpt lon="7.031776970252395" lat="46.13070993684232">
        <ele>748.7999877929688</ele>
        <time>2013-04-10T16:18:55.000Z</time>
      </trkpt>
      <trkpt lon="7.03174595721066" lat="46.130778919905424">
        <ele>744.7999877929688</ele>
        <time>2013-04-10T16:18:58.000Z</time>
      </trkpt>
      <trkpt lon="7.031747968867421" lat="46.13087992183864">
        <ele>740.2000122070312</ele>
        <time>2013-04-10T16:19:01.000Z</time>
      </trkpt>
      <trkpt lon="7.031687954440713" lat="46.13107396289706">
        <ele>735.5999755859375</ele>
        <time>2013-04-10T16:19:04.000Z</time>
      </trkpt>
      <trkpt lon="7.031705975532532" lat="46.13115292042494">
        <ele>733.2000122070312</ele>
        <time>2013-04-10T16:19:05.000Z</time>
      </trkpt>
      <trkpt lon="7.03170295804739" lat="46.131341932341456">
        <ele>728.2000122070312</ele>
        <time>2013-04-10T16:19:07.000Z</time>
      </trkpt>
      <trkpt lon="7.031635986641049" lat="46.131615936756134">
        <ele>723.7999877929688</ele>
        <time>2013-04-10T16:19:12.000Z</time>
      </trkpt>
      <trkpt lon="7.031635986641049" lat="46.13163496367633">
        <ele>723.4000244140625</ele>
        <time>2013-04-10T16:19:13.000Z</time>
      </trkpt>
      <trkpt lon="7.031823992729187" lat="46.13145894370973">
        <ele>721.2000122070312</ele>
        <time>2013-04-10T16:19:17.000Z</time>
      </trkpt>
      <trkpt lon="7.03185492195189" lat="46.13138593733311">
        <ele>722.7999877929688</ele>
        <time>2013-04-10T16:19:18.000Z</time>
      </trkpt>
      <trkpt lon="7.032074946910143" lat="46.13126096315682">
        <ele>721.7999877929688</ele>
        <time>2013-04-10T16:19:22.000Z</time>
      </trkpt>
      <trkpt lon="7.032278962433338" lat="46.13123992457986">
        <ele>718.4000244140625</ele>
        <time>2013-04-10T16:19:25.000Z</time>
      </trkpt>
      <trkpt lon="7.032678946852684" lat="46.13132491707802">
        <ele>709.0</ele>
        <time>2013-04-10T16:19:29.000Z</time>
      </trkpt>
      <trkpt lon="7.032880950719118" lat="46.13148492760956">
        <ele>699.2000122070312</ele>
        <time>2013-04-10T16:19:33.000Z</time>
      </trkpt>
      <trkpt lon="7.032880950719118" lat="46.13148492760956">
        <ele>699.2000122070312</ele>
        <time>2013-04-10T16:19:34.000Z</time>
      </trkpt>
      <trkpt lon="7.032633936032653" lat="46.13144997507334">
        <ele>701.2000122070312</ele>
        <time>2013-04-10T16:19:38.000Z</time>
      </trkpt>
      <trkpt lon="7.032255996018648" lat="46.131466990336776">
        <ele>707.5999755859375</ele>
        <time>2013-04-10T16:19:42.000Z</time>
      </trkpt>
      <trkpt lon="7.031934969127178" lat="46.13165298476815">
        <ele>710.7999877929688</ele>
        <time>2013-04-10T16:19:47.000Z</time>
      </trkpt>
      <trkpt lon="7.031985931098461" lat="46.131746945902705">
        <ele>704.2000122070312</ele>
        <time>2013-04-10T16:19:49.000Z</time>
      </trkpt>
      <trkpt lon="7.0320909563452005" lat="46.131681986153126">
        <ele>703.2000122070312</ele>
        <time>2013-04-10T16:19:51.000Z</time>
      </trkpt>
      <trkpt lon="7.032439978793263" lat="46.13153697922826">
        <ele>697.7999877929688</ele>
        <time>2013-04-10T16:19:56.000Z</time>
      </trkpt>
      <trkpt lon="7.0324779488146305" lat="46.13155994564295">
        <ele>695.0</ele>
        <time>2013-04-10T16:19:58.000Z</time>
      </trkpt>
      <trkpt lon="7.032397985458374" lat="46.13164594396949">
        <ele>693.0</ele>
        <time>2013-04-10T16:20:01.000Z</time>
      </trkpt>
      <trkpt lon="7.032211991026998" lat="46.131768990308046">
        <ele>693.5999755859375</ele>
        <time>2013-04-10T16:20:04.000Z</time>
      </trkpt>
      <trkpt lon="7.032045945525169" lat="46.13193595781922">
        <ele>692.0</ele>
        <time>2013-04-10T16:20:08.000Z</time>
      </trkpt>
      <trkpt lon="7.032129932194948" lat="46.13193595781922">
        <ele>688.2000122070312</ele>
        <time>2013-04-10T16:20:10.000Z</time>
      </trkpt>
      <trkpt lon="7.032329924404621" lat="46.13180595450103">
        <ele>686.4000244140625</ele>
        <time>2013-04-10T16:20:13.000Z</time>
      </trkpt>
      <trkpt lon="7.032763939350843" lat="46.1316729336977">
        <ele>687.2000122070312</ele>
        <time>2013-04-10T16:20:18.000Z</time>
      </trkpt>
      <trkpt lon="7.0326929446309805" lat="46.13168399780989">
        <ele>686.4000244140625</ele>
        <time>2013-04-10T16:20:22.000Z</time>
      </trkpt>
      <trkpt lon="7.032673917710781" lat="46.13167092204094">
        <ele>687.4000244140625</ele>
        <time>2013-04-10T16:20:24.000Z</time>
      </trkpt>
      <trkpt lon="7.032431932166219" lat="46.131895976141095">
        <ele>676.4000244140625</ele>
        <time>2013-04-10T16:20:29.000Z</time>
      </trkpt>
      <trkpt lon="7.0323839876800776" lat="46.13188692368567">
        <ele>679.2000122070312</ele>
        <time>2013-04-10T16:20:33.000Z</time>
      </trkpt>
      <trkpt lon="7.032636953517795" lat="46.13186395727098">
        <ele>674.2000122070312</ele>
        <time>2013-04-10T16:20:36.000Z</time>
      </trkpt>
      <trkpt lon="7.032746924087405" lat="46.13182498142123">
        <ele>676.0</ele>
        <time>2013-04-10T16:20:37.000Z</time>
      </trkpt>
      <trkpt lon="7.032674923539162" lat="46.13184995949268">
        <ele>674.7999877929688</ele>
        <time>2013-04-10T16:20:39.000Z</time>
      </trkpt>
      <trkpt lon="7.033050935715437" lat="46.13186697475612">
        <ele>670.4000244140625</ele>
        <time>2013-04-10T16:20:41.000Z</time>
      </trkpt>
      <trkpt lon="7.032866952940822" lat="46.13188499584794">
        <ele>670.5999755859375</ele>
        <time>2013-04-10T16:20:45.000Z</time>
      </trkpt>
      <trkpt lon="7.032442996278405" lat="46.132091945037246">
        <ele>663.7999877929688</ele>
        <time>2013-04-10T16:20:50.000Z</time>
      </trkpt>
      <trkpt lon="7.032429920509458" lat="46.132214991375804">
        <ele>656.7999877929688</ele>
        <time>2013-04-10T16:20:53.000Z</time>
      </trkpt>
      <trkpt lon="7.032362949103117" lat="46.13219294697046">
        <ele>661.7999877929688</ele>
        <time>2013-04-10T16:20:56.000Z</time>
      </trkpt>
      <trkpt lon="7.033005924895406" lat="46.13215095363557">
        <ele>647.4000244140625</ele>
        <time>2013-04-10T16:21:00.000Z</time>
      </trkpt>
      <trkpt lon="7.033153949305415" lat="46.13210493698716">
        <ele>648.5999755859375</ele>
        <time>2013-04-10T16:21:02.000Z</time>
      </trkpt>
      <trkpt lon="7.0334969367831945" lat="46.132022961974144">
        <ele>656.0</ele>
        <time>2013-04-10T16:21:06.000Z</time>
      </trkpt>
      <trkpt lon="7.033330975100398" lat="46.131999995559454">
        <ele>655.4000244140625</ele>
        <time>2013-04-10T16:21:10.000Z</time>
      </trkpt>
      <trkpt lon="7.0333099365234375" lat="46.13197895698249">
        <ele>657.5999755859375</ele>
        <time>2013-04-10T16:21:11.000Z</time>
      </trkpt>
      <trkpt lon="7.033116985112429" lat="46.131982980296016">
        <ele>659.7999877929688</ele>
        <time>2013-04-10T16:21:15.000Z</time>
      </trkpt>
      <trkpt lon="7.032723957672715" lat="46.13207794725895">
        <ele>658.0</ele>
        <time>2013-04-10T16:21:19.000Z</time>
      </trkpt>
      <trkpt lon="7.032580962404609" lat="46.13245094195008">
        <ele>635.5999755859375</ele>
        <time>2013-04-10T16:21:22.000Z</time>
      </trkpt>
      <trkpt lon="7.032611975446343" lat="46.13244398497045">
        <ele>635.0</ele>
        <time>2013-04-10T16:21:23.000Z</time>
      </trkpt>
      <trkpt lon="7.032773997634649" lat="46.13234298303723">
        <ele>637.5999755859375</ele>
        <time>2013-04-10T16:21:28.000Z</time>
      </trkpt>
      <trkpt lon="7.032683975994587" lat="46.132303923368454">
        <ele>642.7999877929688</ele>
        <time>2013-04-10T16:21:29.000Z</time>
      </trkpt>
      <trkpt lon="7.0330519415438175" lat="46.13249394111335">
        <ele>617.5999755859375</ele>
        <time>2013-04-10T16:21:32.000Z</time>
      </trkpt>
      <trkpt lon="7.032979940995574" lat="46.13253694027662">
        <ele>617.7999877929688</ele>
        <time>2013-04-10T16:21:36.000Z</time>
      </trkpt>
      <trkpt lon="7.032968960702419" lat="46.132542975246906">
        <ele>618.0</ele>
        <time>2013-04-10T16:21:38.000Z</time>
      </trkpt>
      <trkpt lon="7.032729992642999" lat="46.13262394443154">
        <ele>623.0</ele>
        <time>2013-04-10T16:21:40.000Z</time>
      </trkpt>
      <trkpt lon="7.032815990969539" lat="46.13260097801685">
        <ele>620.7999877929688</ele>
        <time>2013-04-10T16:21:44.000Z</time>
      </trkpt>
      <trkpt lon="7.032835939899087" lat="46.13259393721819">
        <ele>620.4000244140625</ele>
        <time>2013-04-10T16:21:45.000Z</time>
      </trkpt>
      <trkpt lon="7.032959992066026" lat="46.13254892639816">
        <ele>618.0</ele>
        <time>2013-04-10T16:21:47.000Z</time>
      </trkpt>
      <trkpt lon="7.033092929050326" lat="46.13246996887028">
        <ele>618.2000122070312</ele>
        <time>2013-04-10T16:21:49.000Z</time>
      </trkpt>
      <trkpt lon="7.0332159753888845" lat="46.1325019877404">
        <ele>611.5999755859375</ele>
        <time>2013-04-10T16:21:53.000Z</time>
      </trkpt>
      <trkpt lon="7.033260986208916" lat="46.13272494636476">
        <ele>599.5999755859375</ele>
        <time>2013-04-10T16:21:55.000Z</time>
      </trkpt>
      <trkpt lon="7.033186974003911" lat="46.13276392221451">
        <ele>600.5999755859375</ele>
        <time>2013-04-10T16:21:59.000Z</time>
      </trkpt>
      <trkpt lon="7.033181944862008" lat="46.13276794552803">
        <ele>600.5999755859375</ele>
        <time>2013-04-10T16:22:00.000Z</time>
      </trkpt>
      <trkpt lon="7.032932918518782" lat="46.132819997146726">
        <ele>608.0</ele>
        <time>2013-04-10T16:22:04.000Z</time>
      </trkpt>
      <trkpt lon="7.032948927953839" lat="46.13309198990464">
        <ele>596.4000244140625</ele>
        <time>2013-04-10T16:22:08.000Z</time>
      </trkpt>
      <trkpt lon="7.032962925732136" lat="46.13315996713936">
        <ele>593.0</ele>
        <time>2013-04-10T16:22:10.000Z</time>
      </trkpt>
      <trkpt lon="7.033030986785889" lat="46.13306298851967">
        <ele>594.0</ele>
        <time>2013-04-10T16:22:13.000Z</time>
      </trkpt>
      <trkpt lon="7.033038949593902" lat="46.13300498574972">
        <ele>596.0</ele>
        <time>2013-04-10T16:22:14.000Z</time>
      </trkpt>
      <trkpt lon="7.033187979832292" lat="46.13276291638613">
        <ele>600.5999755859375</ele>
        <time>2013-04-10T16:22:18.000Z</time>
      </trkpt>
      <trkpt lon="7.033249922096729" lat="46.13272997550666">
        <ele>599.7999877929688</ele>
        <time>2013-04-10T16:22:19.000Z</time>
      </trkpt>
      <trkpt lon="7.033434994518757" lat="46.13266099244356">
        <ele>600.4000244140625</ele>
        <time>2013-04-10T16:22:21.000Z</time>
      </trkpt>
      <trkpt lon="7.033282946795225" lat="46.132714971899986">
        <ele>599.2000122070312</ele>
        <time>2013-04-10T16:22:24.000Z</time>
      </trkpt>
      <trkpt lon="7.033931957557797" lat="46.13281496800482">
        <ele>587.0</ele>
        <time>2013-04-10T16:22:28.000Z</time>
      </trkpt>
      <trkpt lon="7.033556951209903" lat="46.13292393274605">
        <ele>583.0</ele>
        <time>2013-04-10T16:22:33.000Z</time>
      </trkpt>
      <trkpt lon="7.03320792876184" lat="46.13309299573302">
        <ele>584.4000244140625</ele>
        <time>2013-04-10T16:22:37.000Z</time>
      </trkpt>
      <trkpt lon="7.033330975100398" lat="46.13315896131098">
        <ele>575.5999755859375</ele>
        <time>2013-04-10T16:22:40.000Z</time>
      </trkpt>
      <trkpt lon="7.033389983698726" lat="46.13313599489629">
        <ele>574.5999755859375</ele>
        <time>2013-04-10T16:22:43.000Z</time>
      </trkpt>
      <trkpt lon="7.033487968146801" lat="46.13309299573302">
        <ele>573.7999877929688</ele>
        <time>2013-04-10T16:22:46.000Z</time>
      </trkpt>
      <trkpt lon="7.033558962866664" lat="46.13315099850297">
        <ele>567.5999755859375</ele>
        <time>2013-04-10T16:22:49.000Z</time>
      </trkpt>
      <trkpt lon="7.033514957875013" lat="46.13332592882216">
        <ele>558.0</ele>
        <time>2013-04-10T16:22:52.000Z</time>
      </trkpt>
      <trkpt lon="7.0335249323397875" lat="46.13328695297241">
        <ele>560.0</ele>
        <time>2013-04-10T16:22:55.000Z</time>
      </trkpt>
      <trkpt lon="7.033269954845309" lat="46.13338694907725">
        <ele>566.4000244140625</ele>
        <time>2013-04-10T16:23:00.000Z</time>
      </trkpt>
      <trkpt lon="7.0335249323397875" lat="46.13328695297241">
        <ele>560.0</ele>
        <time>2013-04-10T16:23:03.000Z</time>
      </trkpt>
      <trkpt lon="7.0335679315030575" lat="46.13328695297241">
        <ele>558.0</ele>
        <time>2013-04-10T16:23:06.000Z</time>
      </trkpt>
      <trkpt lon="7.03372391872108" lat="46.1333099193871">
        <ele>548.5999755859375</ele>
        <time>2013-04-10T16:23:08.000Z</time>
      </trkpt>
      <trkpt lon="7.03385291621089" lat="46.133208917453885">
        <ele>551.5999755859375</ele>
        <time>2013-04-10T16:23:12.000Z</time>
      </trkpt>
      <trkpt lon="7.03387294895947" lat="46.13319299183786">
        <ele>552.2000122070312</ele>
        <time>2013-04-10T16:23:13.000Z</time>
      </trkpt>
      <trkpt lon="7.033906979486346" lat="46.133167929947376">
        <ele>553.2000122070312</ele>
        <time>2013-04-10T16:23:15.000Z</time>
      </trkpt>
      <trkpt lon="7.033694917336106" lat="46.133332969620824">
        <ele>548.2000122070312</ele>
        <time>2013-04-10T16:23:19.000Z</time>
      </trkpt>
      <trkpt lon="7.033662982285023" lat="46.13339692354202">
        <ele>545.5999755859375</ele>
        <time>2013-04-10T16:23:20.000Z</time>
      </trkpt>
      <trkpt lon="7.033599950373173" lat="46.13352298736572">
        <ele>540.2000122070312</ele>
        <time>2013-04-10T16:23:22.000Z</time>
      </trkpt>
      <trkpt lon="7.033338937908411" lat="46.133892964571714">
        <ele>526.4000244140625</ele>
        <time>2013-04-10T16:23:28.000Z</time>
      </trkpt>
      <trkpt lon="7.033224944025278" lat="46.13416696898639">
        <ele>514.0</ele>
        <time>2013-04-10T16:23:32.000Z</time>
      </trkpt>
      <trkpt lon="7.034463956952095" lat="46.13449193537235">
        <ele>463.79998779296875</ele>
        <time>2013-04-10T16:23:34.000Z</time>
      </trkpt>
      <trkpt lon="7.034476948902011" lat="46.134461928159">
        <ele>464.0</ele>
        <time>2013-04-10T16:23:35.000Z</time>
      </trkpt>
      <trkpt lon="7.03359198756516" lat="46.13410293124616">
        <ele>501.0</ele>
        <time>2013-04-10T16:23:38.000Z</time>
      </trkpt>
      <trkpt lon="7.033685948699713" lat="46.13396697677672">
        <ele>506.20001220703125</ele>
        <time>2013-04-10T16:23:42.000Z</time>
      </trkpt>
      <trkpt lon="7.034039916470647" lat="46.1335239931941">
        <ele>518.5999755859375</ele>
        <time>2013-04-10T16:23:45.000Z</time>
      </trkpt>
      <trkpt lon="7.034039916470647" lat="46.133510917425156">
        <ele>519.4000244140625</ele>
        <time>2013-04-10T16:23:47.000Z</time>
      </trkpt>
      <trkpt lon="7.034039916470647" lat="46.13350194878876">
        <ele>520.0</ele>
        <time>2013-04-10T16:23:51.000Z</time>
      </trkpt>
      <trkpt lon="7.0339979231357574" lat="46.13357596099377">
        <ele>517.4000244140625</ele>
        <time>2013-04-10T16:23:56.000Z</time>
      </trkpt>
      <trkpt lon="7.033874960616231" lat="46.13372893072665">
        <ele>513.5999755859375</ele>
        <time>2013-04-10T16:23:58.000Z</time>
      </trkpt>
      <trkpt lon="7.033846965059638" lat="46.133764972910285">
        <ele>512.5999755859375</ele>
        <time>2013-04-10T16:23:59.000Z</time>
      </trkpt>
      <trkpt lon="7.033707993105054" lat="46.133937975391746">
        <ele>507.20001220703125</ele>
        <time>2013-04-10T16:24:02.000Z</time>
      </trkpt>
      <trkpt lon="7.033613948151469" lat="46.13407099619508">
        <ele>502.20001220703125</ele>
        <time>2013-04-10T16:24:05.000Z</time>
      </trkpt>
      <trkpt lon="7.033641943708062" lat="46.13431298173964">
        <ele>490.3999938964844</ele>
        <time>2013-04-10T16:24:08.000Z</time>
      </trkpt>
      <trkpt lon="7.03372391872108" lat="46.134170992299914">
        <ele>491.3999938964844</ele>
        <time>2013-04-10T16:24:11.000Z</time>
      </trkpt>
      <trkpt lon="7.033762978389859" lat="46.1341059487313">
        <ele>493.79998779296875</ele>
        <time>2013-04-10T16:24:12.000Z</time>
      </trkpt>
      <trkpt lon="7.034142930060625" lat="46.13390193320811">
        <ele>490.79998779296875</ele>
        <time>2013-04-10T16:24:16.000Z</time>
      </trkpt>
      <trkpt lon="7.034429926425219" lat="46.133873937651515">
        <ele>481.79998779296875</ele>
        <time>2013-04-10T16:24:19.000Z</time>
      </trkpt>
      <trkpt lon="7.034928984940052" lat="46.133936969563365">
        <ele>462.3999938964844</ele>
        <time>2013-04-10T16:24:23.000Z</time>
      </trkpt>
      <trkpt lon="7.035040967166424" lat="46.133959935978055">
        <ele>459.3999938964844</ele>
        <time>2013-04-10T16:24:24.000Z</time>
      </trkpt>
      <trkpt lon="7.035111961886287" lat="46.13397393375635">
        <ele>459.0</ele>
        <time>2013-04-10T16:24:27.000Z</time>
      </trkpt>
      <trkpt lon="7.035452937707305" lat="46.13417996093631">
        <ele>454.79998779296875</ele>
        <time>2013-04-10T16:24:28.000Z</time>
      </trkpt>
      <trkpt lon="7.035608924925327" lat="46.13441792316735">
        <ele>454.79998779296875</ele>
        <time>2013-04-10T16:24:31.000Z</time>
      </trkpt>
      <trkpt lon="7.0358279440552" lat="46.13463199697435">
        <ele>454.3999938964844</ele>
        <time>2013-04-10T16:24:35.000Z</time>
      </trkpt>
      <trkpt lon="7.036029947921634" lat="46.13467197865248">
        <ele>453.79998779296875</ele>
        <time>2013-04-10T16:24:38.000Z</time>
      </trkpt>
      <trkpt lon="7.036324990913272" lat="46.134622944518924">
        <ele>453.0</ele>
        <time>2013-04-10T16:24:42.000Z</time>
      </trkpt>
      <trkpt lon="7.036335971206427" lat="46.13462093286216">
        <ele>453.0</ele>
        <time>2013-04-10T16:24:45.000Z</time>
      </trkpt>
      <trkpt lon="7.036597989499569" lat="46.13454298116267">
        <ele>452.20001220703125</ele>
        <time>2013-04-10T16:26:16.000Z</time>
      </trkpt>
      <trkpt lon="7.036625985056162" lat="46.13448699004948">
        <ele>452.0</ele>
        <time>2013-04-10T16:26:18.000Z</time>
      </trkpt>
      <trkpt lon="7.036762945353985" lat="46.13424793817103">
        <ele>452.0</ele>
        <time>2013-04-10T16:26:24.000Z</time>
      </trkpt>
      <trkpt lon="7.036990933120251" lat="46.13412396982312">
        <ele>452.20001220703125</ele>
        <time>2013-04-10T16:26:28.000Z</time>
      </trkpt>
      <trkpt lon="7.0370009914040565" lat="46.13412396982312">
        <ele>452.20001220703125</ele>
        <time>2013-04-10T16:26:29.000Z</time>
      </trkpt>
      <trkpt lon="7.037649918347597" lat="46.134341983124614">
        <ele>452.20001220703125</ele>
        <time>2013-04-10T16:26:38.000Z</time>
      </trkpt>
      <trkpt lon="7.038122992962599" lat="46.13444591872394">
        <ele>453.0</ele>
        <time>2013-04-10T16:26:44.000Z</time>
      </trkpt>
      <trkpt lon="7.038525994867086" lat="46.13452596589923">
        <ele>453.79998779296875</ele>
        <time>2013-04-10T16:26:49.000Z</time>
      </trkpt>
      <trkpt lon="7.039208952337503" lat="46.134626967832446">
        <ele>454.79998779296875</ele>
        <time>2013-04-10T16:26:58.000Z</time>
      </trkpt>
      <trkpt lon="7.039398970082402" lat="46.134668961167336">
        <ele>454.6000061035156</ele>
        <time>2013-04-10T16:27:01.000Z</time>
      </trkpt>
      <trkpt lon="7.039482956752181" lat="46.134775998070836">
        <ele>454.3999938964844</ele>
        <time>2013-04-10T16:27:06.000Z</time>
      </trkpt>
      <trkpt lon="7.039454961195588" lat="46.13480499945581">
        <ele>454.3999938964844</ele>
        <time>2013-04-10T16:27:07.000Z</time>
      </trkpt>
      <trkpt lon="7.039224961772561" lat="46.13503793254495">
        <ele>453.79998779296875</ele>
        <time>2013-04-10T16:27:12.000Z</time>
      </trkpt>
      <trkpt lon="7.03881592489779" lat="46.13545493222773">
        <ele>453.20001220703125</ele>
        <time>2013-04-10T16:27:20.000Z</time>
      </trkpt>
      <trkpt lon="7.03831996768713" lat="46.135959941893816">
        <ele>452.0</ele>
        <time>2013-04-10T16:27:30.000Z</time>
      </trkpt>
      <trkpt lon="7.037954935804009" lat="46.136341989040375">
        <ele>452.3999938964844</ele>
        <time>2013-04-10T16:27:38.000Z</time>
      </trkpt>
      <trkpt lon="7.037475993856788" lat="46.13680592738092">
        <ele>452.0</ele>
        <time>2013-04-10T16:27:48.000Z</time>
      </trkpt>
      <trkpt lon="7.036979952827096" lat="46.13736198283732">
        <ele>453.20001220703125</ele>
        <time>2013-04-10T16:27:58.000Z</time>
      </trkpt>
      <trkpt lon="7.036507967859507" lat="46.13785098306835">
        <ele>453.20001220703125</ele>
        <time>2013-04-10T16:28:08.000Z</time>
      </trkpt>
      <trkpt lon="7.03612893819809" lat="46.138214925304055">
        <ele>452.79998779296875</ele>
        <time>2013-04-10T16:28:17.000Z</time>
      </trkpt>
      <trkpt lon="7.035700958222151" lat="46.13865598104894">
        <ele>452.0</ele>
        <time>2013-04-10T16:28:26.000Z</time>
      </trkpt>
      <trkpt lon="7.0353249460458755" lat="46.139053953811526">
        <ele>450.6000061035156</ele>
        <time>2013-04-10T16:28:34.000Z</time>
      </trkpt>
      <trkpt lon="7.0349659491330385" lat="46.13943197764456">
        <ele>451.79998779296875</ele>
        <time>2013-04-10T16:28:41.000Z</time>
      </trkpt>
      <trkpt lon="7.034618938341737" lat="46.13978896290064">
        <ele>454.79998779296875</ele>
        <time>2013-04-10T16:28:48.000Z</time>
      </trkpt>
      <trkpt lon="7.0342429261654615" lat="46.140164975076914">
        <ele>455.3999938964844</ele>
        <time>2013-04-10T16:28:56.000Z</time>
      </trkpt>
      <trkpt lon="7.03385291621089" lat="46.14058893173933">
        <ele>452.6000061035156</ele>
        <time>2013-04-10T16:29:05.000Z</time>
      </trkpt>
      <trkpt lon="7.033474976196885" lat="46.140982965007424">
        <ele>451.20001220703125</ele>
        <time>2013-04-10T16:29:13.000Z</time>
      </trkpt>
      <trkpt lon="7.0328369457274675" lat="46.14163499325514">
        <ele>452.3999938964844</ele>
        <time>2013-04-10T16:29:26.000Z</time>
      </trkpt>
      <trkpt lon="7.032357919961214" lat="46.14211494103074">
        <ele>451.20001220703125</ele>
        <time>2013-04-10T16:29:36.000Z</time>
      </trkpt>
      <trkpt lon="7.031838996335864" lat="46.14263394847512">
        <ele>452.20001220703125</ele>
        <time>2013-04-10T16:29:47.000Z</time>
      </trkpt>
      <trkpt lon="7.031463989987969" lat="46.143024964258075">
        <ele>453.20001220703125</ele>
        <time>2013-04-10T16:29:55.000Z</time>
      </trkpt>
      <trkpt lon="7.03118696808815" lat="46.14338597282767">
        <ele>452.3999938964844</ele>
        <time>2013-04-10T16:30:02.000Z</time>
      </trkpt>
      <trkpt lon="7.030830988660455" lat="46.14396097138524">
        <ele>451.20001220703125</ele>
        <time>2013-04-10T16:30:13.000Z</time>
      </trkpt>
      <trkpt lon="7.030610963702202" lat="46.14435098133981">
        <ele>451.6000061035156</ele>
        <time>2013-04-10T16:30:21.000Z</time>
      </trkpt>
      <trkpt lon="7.03037291765213" lat="46.144872922450304">
        <ele>451.79998779296875</ele>
        <time>2013-04-10T16:30:31.000Z</time>
      </trkpt>
      <trkpt lon="7.030213996767998" lat="46.14535798318684">
        <ele>452.6000061035156</ele>
        <time>2013-04-10T16:30:40.000Z</time>
      </trkpt>
      <trkpt lon="7.030085921287537" lat="46.14591797813773">
        <ele>453.6000061035156</ele>
        <time>2013-04-10T16:30:50.000Z</time>
      </trkpt>
      <trkpt lon="7.029998917132616" lat="46.14647998474538">
        <ele>456.79998779296875</ele>
        <time>2013-04-10T16:31:00.000Z</time>
      </trkpt>
      <trkpt lon="7.029970921576023" lat="46.14686194807291">
        <ele>458.20001220703125</ele>
        <time>2013-04-10T16:31:07.000Z</time>
      </trkpt>
      <trkpt lon="7.02996295876801" lat="46.147172916680574">
        <ele>458.3999938964844</ele>
        <time>2013-04-10T16:31:13.000Z</time>
      </trkpt>
      <trkpt lon="7.029968993738294" lat="46.1473339330405">
        <ele>458.6000061035156</ele>
        <time>2013-04-10T16:31:17.000Z</time>
      </trkpt>
      <trkpt lon="7.029686942696571" lat="46.14746091887355">
        <ele>458.79998779296875</ele>
        <time>2013-04-10T16:31:20.000Z</time>
      </trkpt>
      <trkpt lon="7.029634974896908" lat="46.147625958546996">
        <ele>459.0</ele>
        <time>2013-04-10T16:31:23.000Z</time>
      </trkpt>
      <trkpt lon="7.0295169577002525" lat="46.14797397516668">
        <ele>460.0</ele>
        <time>2013-04-10T16:31:30.000Z</time>
      </trkpt>
      <trkpt lon="7.029490973800421" lat="46.14825795404613">
        <ele>461.0</ele>
        <time>2013-04-10T16:31:35.000Z</time>
      </trkpt>
      <trkpt lon="7.029526932165027" lat="46.1484909709543">
        <ele>461.3999938964844</ele>
        <time>2013-04-10T16:31:40.000Z</time>
      </trkpt>
      <trkpt lon="7.029545959085226" lat="46.14853397011757">
        <ele>461.3999938964844</ele>
        <time>2013-04-10T16:31:41.000Z</time>
      </trkpt>
      <trkpt lon="7.029764978215098" lat="46.14892993122339">
        <ele>460.3999938964844</ele>
        <time>2013-04-10T16:31:50.000Z</time>
      </trkpt>
      <trkpt lon="7.029902944341302" lat="46.14915791898966">
        <ele>459.20001220703125</ele>
        <time>2013-04-10T16:31:56.000Z</time>
      </trkpt>
      <trkpt lon="7.0299669820815325" lat="46.14926193840802">
        <ele>459.20001220703125</ele>
        <time>2013-04-10T16:31:59.000Z</time>
      </trkpt>
      <trkpt lon="7.030234951525927" lat="46.14956695586443">
        <ele>460.20001220703125</ele>
        <time>2013-04-10T16:32:07.000Z</time>
      </trkpt>
      <trkpt lon="7.0302909426391125" lat="46.149921929463744">
        <ele>462.0</ele>
        <time>2013-04-10T16:32:14.000Z</time>
      </trkpt>
      <trkpt lon="7.030314998701215" lat="46.15007699467242">
        <ele>462.3999938964844</ele>
        <time>2013-04-10T16:32:18.000Z</time>
      </trkpt>
      <trkpt lon="7.030343916267157" lat="46.15025293081999">
        <ele>462.6000061035156</ele>
        <time>2013-04-10T16:32:22.000Z</time>
      </trkpt>
      <trkpt lon="7.030386999249458" lat="46.15051394328475">
        <ele>462.6000061035156</ele>
        <time>2013-04-10T16:32:27.000Z</time>
      </trkpt>
      <trkpt lon="7.030473919585347" lat="46.15103395655751">
        <ele>462.6000061035156</ele>
        <time>2013-04-10T16:32:36.000Z</time>
      </trkpt>
      <trkpt lon="7.030559917911887" lat="46.15155195817351">
        <ele>462.0</ele>
        <time>2013-04-10T16:32:45.000Z</time>
      </trkpt>
      <trkpt lon="7.030624961480498" lat="46.15194791927934">
        <ele>461.79998779296875</ele>
        <time>2013-04-10T16:32:52.000Z</time>
      </trkpt>
      <trkpt lon="7.030683970078826" lat="46.1523349955678">
        <ele>461.6000061035156</ele>
        <time>2013-04-10T16:32:59.000Z</time>
      </trkpt>
      <trkpt lon="7.030769968405366" lat="46.15284997969866">
        <ele>461.79998779296875</ele>
        <time>2013-04-10T16:33:08.000Z</time>
      </trkpt>
      <trkpt lon="7.030832916498184" lat="46.153226997703314">
        <ele>461.6000061035156</ele>
        <time>2013-04-10T16:33:14.000Z</time>
      </trkpt>
      <trkpt lon="7.030913969501853" lat="46.15367794409394">
        <ele>462.79998779296875</ele>
        <time>2013-04-10T16:33:21.000Z</time>
      </trkpt>
      <trkpt lon="7.030988987535238" lat="46.15409997291863">
        <ele>464.0</ele>
        <time>2013-04-10T16:33:28.000Z</time>
      </trkpt>
      <trkpt lon="7.031083954498172" lat="46.15463792346418">
        <ele>462.79998779296875</ele>
        <time>2013-04-10T16:33:37.000Z</time>
      </trkpt>
      <trkpt lon="7.031121924519539" lat="46.15486599504948">
        <ele>462.3999938964844</ele>
        <time>2013-04-10T16:33:41.000Z</time>
      </trkpt>
      <trkpt lon="7.031163917854428" lat="46.15527997724712">
        <ele>459.79998779296875</ele>
        <time>2013-04-10T16:33:49.000Z</time>
      </trkpt>
      <trkpt lon="7.031163917854428" lat="46.15542699582875">
        <ele>458.6000061035156</ele>
        <time>2013-04-10T16:33:52.000Z</time>
      </trkpt>
      <trkpt lon="7.03114396892488" lat="46.15584692917764">
        <ele>455.79998779296875</ele>
        <time>2013-04-10T16:34:01.000Z</time>
      </trkpt>
      <trkpt lon="7.031098958104849" lat="46.15616493858397">
        <ele>454.3999938964844</ele>
        <time>2013-04-10T16:34:07.000Z</time>
      </trkpt>
      <trkpt lon="7.030534939840436" lat="46.15650692023337">
        <ele>456.6000061035156</ele>
        <time>2013-04-10T16:34:15.000Z</time>
      </trkpt>
      <trkpt lon="7.030279962345958" lat="46.1567609757185">
        <ele>455.79998779296875</ele>
        <time>2013-04-10T16:34:22.000Z</time>
      </trkpt>
      <trkpt lon="7.030203938484192" lat="46.15682099014521">
        <ele>456.0</ele>
        <time>2013-04-10T16:34:24.000Z</time>
      </trkpt>
      <trkpt lon="7.030112994834781" lat="46.15697697736323">
        <ele>455.20001220703125</ele>
        <time>2013-04-10T16:34:28.000Z</time>
      </trkpt>
      <trkpt lon="7.030082987621427" lat="46.15706699900329">
        <ele>454.6000061035156</ele>
        <time>2013-04-10T16:34:31.000Z</time>
      </trkpt>
      <trkpt lon="7.030546925961971" lat="46.15710195153952">
        <ele>452.20001220703125</ele>
        <time>2013-04-10T16:34:35.000Z</time>
      </trkpt>
      <trkpt lon="7.030814979225397" lat="46.157183926552534">
        <ele>450.79998779296875</ele>
        <time>2013-04-10T16:34:40.000Z</time>
      </trkpt>
      <trkpt lon="7.031386960297823" lat="46.15727696567774">
        <ele>450.79998779296875</ele>
        <time>2013-04-10T16:34:47.000Z</time>
      </trkpt>
      <trkpt lon="7.031830949708819" lat="46.1573979165405">
        <ele>451.0</ele>
        <time>2013-04-10T16:34:52.000Z</time>
      </trkpt>
      <trkpt lon="7.032035971060395" lat="46.15752297453582">
        <ele>450.79998779296875</ele>
        <time>2013-04-10T16:34:56.000Z</time>
      </trkpt>
      <trkpt lon="7.032043933868408" lat="46.15755499340594">
        <ele>450.79998779296875</ele>
        <time>2013-04-10T16:34:57.000Z</time>
      </trkpt>
      <trkpt lon="7.032043933868408" lat="46.15755599923432">
        <ele>450.79998779296875</ele>
        <time>2013-04-10T16:35:03.000Z</time>
      </trkpt>
      <trkpt lon="7.032065978273749" lat="46.15792497061193">
        <ele>450.20001220703125</ele>
        <time>2013-04-10T16:35:05.000Z</time>
      </trkpt>
      <trkpt lon="7.032122975215316" lat="46.15828396752477">
        <ele>449.6000061035156</ele>
        <time>2013-04-10T16:35:12.000Z</time>
      </trkpt>
      <trkpt lon="7.032182989642024" lat="46.15849292837083">
        <ele>449.3999938964844</ele>
        <time>2013-04-10T16:35:16.000Z</time>
      </trkpt>
      <trkpt lon="7.032214924693108" lat="46.15860499441624">
        <ele>449.3999938964844</ele>
        <time>2013-04-10T16:35:18.000Z</time>
      </trkpt>
      <trkpt lon="7.032300923019648" lat="46.15898092277348">
        <ele>449.0</ele>
        <time>2013-04-10T16:35:25.000Z</time>
      </trkpt>
      <trkpt lon="7.0323719177395105" lat="46.159311924129725">
        <ele>449.3999938964844</ele>
        <time>2013-04-10T16:35:31.000Z</time>
      </trkpt>
      <trkpt lon="7.032490940764546" lat="46.15975993685424">
        <ele>451.0</ele>
        <time>2013-04-10T16:35:39.000Z</time>
      </trkpt>
      <trkpt lon="7.0325059443712234" lat="46.15981693379581">
        <ele>451.20001220703125</ele>
        <time>2013-04-10T16:35:40.000Z</time>
      </trkpt>
      <trkpt lon="7.032535951584578" lat="46.15992598235607">
        <ele>451.6000061035156</ele>
        <time>2013-04-10T16:35:42.000Z</time>
      </trkpt>
      <trkpt lon="7.032575933262706" lat="46.16018297150731">
        <ele>452.20001220703125</ele>
        <time>2013-04-10T16:35:47.000Z</time>
      </trkpt>
      <trkpt lon="7.032558917999268" lat="46.16058295592666">
        <ele>452.6000061035156</ele>
        <time>2013-04-10T16:35:54.000Z</time>
      </trkpt>
      <trkpt lon="7.032523965463042" lat="46.160925943404436">
        <ele>452.6000061035156</ele>
        <time>2013-04-10T16:36:00.000Z</time>
      </trkpt>
      <trkpt lon="7.032441990450025" lat="46.16131595335901">
        <ele>451.20001220703125</ele>
        <time>2013-04-10T16:36:07.000Z</time>
      </trkpt>
      <trkpt lon="7.032303940504789" lat="46.161762960255146">
        <ele>450.20001220703125</ele>
        <time>2013-04-10T16:36:15.000Z</time>
      </trkpt>
      <trkpt lon="7.03215298242867" lat="46.16225992329419">
        <ele>449.20001220703125</ele>
        <time>2013-04-10T16:36:24.000Z</time>
      </trkpt>
      <trkpt lon="7.03196095302701" lat="46.16278697736561">
        <ele>448.79998779296875</ele>
        <time>2013-04-10T16:36:34.000Z</time>
      </trkpt>
      <trkpt lon="7.03174595721066" lat="46.16336197592318">
        <ele>450.0</ele>
        <time>2013-04-10T16:36:45.000Z</time>
      </trkpt>
      <trkpt lon="7.031489973887801" lat="46.16402892395854">
        <ele>451.6000061035156</ele>
        <time>2013-04-10T16:36:58.000Z</time>
      </trkpt>
      <trkpt lon="7.031267937272787" lat="46.16448095999658">
        <ele>451.6000061035156</ele>
        <time>2013-04-10T16:37:07.000Z</time>
      </trkpt>
      <trkpt lon="7.031069956719875" lat="46.1648219358176">
        <ele>450.79998779296875</ele>
        <time>2013-04-10T16:37:14.000Z</time>
      </trkpt>
      <trkpt lon="7.0308419689536095" lat="46.16519099101424">
        <ele>450.3999938964844</ele>
        <time>2013-04-10T16:37:22.000Z</time>
      </trkpt>
      <trkpt lon="7.030630996450782" lat="46.165561974048615">
        <ele>451.3999938964844</ele>
        <time>2013-04-10T16:37:30.000Z</time>
      </trkpt>
      <trkpt lon="7.030385993421078" lat="46.165992971509695">
        <ele>451.79998779296875</ele>
        <time>2013-04-10T16:37:39.000Z</time>
      </trkpt>
      <trkpt lon="7.030183989554644" lat="46.16639094427228">
        <ele>451.6000061035156</ele>
        <time>2013-04-10T16:37:47.000Z</time>
      </trkpt>
      <trkpt lon="7.030096985399723" lat="46.16660191677511">
        <ele>451.20001220703125</ele>
        <time>2013-04-10T16:37:52.000Z</time>
      </trkpt>
      <trkpt lon="7.02998491935432" lat="46.16686896421015">
        <ele>450.6000061035156</ele>
        <time>2013-04-10T16:37:58.000Z</time>
      </trkpt>
      <trkpt lon="7.029857933521271" lat="46.167172975838184">
        <ele>450.20001220703125</ele>
        <time>2013-04-10T16:38:04.000Z</time>
      </trkpt>
      <trkpt lon="7.029691971838474" lat="46.16756994277239">
        <ele>450.0</ele>
        <time>2013-04-10T16:38:11.000Z</time>
      </trkpt>
      <trkpt lon="7.029460966587067" lat="46.168121974915266">
        <ele>450.20001220703125</ele>
        <time>2013-04-10T16:38:21.000Z</time>
      </trkpt>
      <trkpt lon="7.029311936348677" lat="46.16847896017134">
        <ele>450.0</ele>
        <time>2013-04-10T16:38:28.000Z</time>
      </trkpt>
      <trkpt lon="7.029183944687247" lat="46.168785989284515">
        <ele>450.0</ele>
        <time>2013-04-10T16:38:35.000Z</time>
      </trkpt>
      <trkpt lon="7.029097946360707" lat="46.16894599981606">
        <ele>449.79998779296875</ele>
        <time>2013-04-10T16:38:41.000Z</time>
      </trkpt>
      <trkpt lon="7.029026951640844" lat="46.169106932356954">
        <ele>449.79998779296875</ele>
        <time>2013-04-10T16:38:46.000Z</time>
      </trkpt>
      <trkpt lon="7.028872976079583" lat="46.16946098394692">
        <ele>450.0</ele>
        <time>2013-04-10T16:38:53.000Z</time>
      </trkpt>
      <trkpt lon="7.028668960556388" lat="46.1698869522661">
        <ele>450.20001220703125</ele>
        <time>2013-04-10T16:39:00.000Z</time>
      </trkpt>
      <trkpt lon="7.028421945869923" lat="46.17043093778193">
        <ele>450.6000061035156</ele>
        <time>2013-04-10T16:39:10.000Z</time>
      </trkpt>
      <trkpt lon="7.028254978358746" lat="46.17079798132181">
        <ele>450.6000061035156</ele>
        <time>2013-04-10T16:39:17.000Z</time>
      </trkpt>
      <trkpt lon="7.028065966442227" lat="46.171211963519454">
        <ele>451.0</ele>
        <time>2013-04-10T16:39:25.000Z</time>
      </trkpt>
      <trkpt lon="7.027872931212187" lat="46.17163692601025">
        <ele>451.20001220703125</ele>
        <time>2013-04-10T16:39:33.000Z</time>
      </trkpt>
      <trkpt lon="7.027671933174133" lat="46.17210295982659">
        <ele>450.0</ele>
        <time>2013-04-10T16:39:42.000Z</time>
      </trkpt>
      <trkpt lon="7.027483927085996" lat="46.17253798060119">
        <ele>450.0</ele>
        <time>2013-04-10T16:39:51.000Z</time>
      </trkpt>
      <trkpt lon="7.02729994431138" lat="46.17295699194074">
        <ele>451.6000061035156</ele>
        <time>2013-04-10T16:39:59.000Z</time>
      </trkpt>
      <trkpt lon="7.027166923508048" lat="46.17333794943988">
        <ele>453.0</ele>
        <time>2013-04-10T16:40:07.000Z</time>
      </trkpt>
      <trkpt lon="7.027002973482013" lat="46.173815969377756">
        <ele>453.20001220703125</ele>
        <time>2013-04-10T16:40:17.000Z</time>
      </trkpt>
      <trkpt lon="7.026905994862318" lat="46.17417194880545">
        <ele>453.20001220703125</ele>
        <time>2013-04-10T16:40:25.000Z</time>
      </trkpt>
      <trkpt lon="7.026808932423592" lat="46.17449892684817">
        <ele>452.20001220703125</ele>
        <time>2013-04-10T16:40:32.000Z</time>
      </trkpt>
      <trkpt lon="7.026765933260322" lat="46.174843925982714">
        <ele>451.20001220703125</ele>
        <time>2013-04-10T16:40:39.000Z</time>
      </trkpt>
      <trkpt lon="7.026734920218587" lat="46.17512698285282">
        <ele>450.79998779296875</ele>
        <time>2013-04-10T16:40:45.000Z</time>
      </trkpt>
      <trkpt lon="7.026737937703729" lat="46.17549997754395">
        <ele>450.3999938964844</ele>
        <time>2013-04-10T16:40:53.000Z</time>
      </trkpt>
      <trkpt lon="7.026765933260322" lat="46.1759739741683">
        <ele>450.6000061035156</ele>
        <time>2013-04-10T16:41:02.000Z</time>
      </trkpt>
      <trkpt lon="7.0267989579588175" lat="46.17633598856628">
        <ele>452.20001220703125</ele>
        <time>2013-04-10T16:41:09.000Z</time>
      </trkpt>
      <trkpt lon="7.0268189907073975" lat="46.17649398744106">
        <ele>453.0</ele>
        <time>2013-04-10T16:41:12.000Z</time>
      </trkpt>
      <trkpt lon="7.026853943243623" lat="46.17676799185574">
        <ele>453.79998779296875</ele>
        <time>2013-04-10T16:41:19.000Z</time>
      </trkpt>
      <trkpt lon="7.026898954063654" lat="46.17701391689479">
        <ele>453.79998779296875</ele>
        <time>2013-04-10T16:41:26.000Z</time>
      </trkpt>
      <trkpt lon="7.026968942955136" lat="46.17719697766006">
        <ele>453.79998779296875</ele>
        <time>2013-04-10T16:41:33.000Z</time>
      </trkpt>
      <trkpt lon="7.027006996795535" lat="46.17730393074453">
        <ele>453.6000061035156</ele>
        <time>2013-04-10T16:41:40.000Z</time>
      </trkpt>
      <trkpt lon="7.027074974030256" lat="46.17749897763133">
        <ele>453.3999938964844</ele>
        <time>2013-04-10T16:41:49.000Z</time>
      </trkpt>
      <trkpt lon="7.027168935164809" lat="46.17770894430578">
        <ele>453.79998779296875</ele>
        <time>2013-04-10T16:41:58.000Z</time>
      </trkpt>
      <trkpt lon="7.02725593931973" lat="46.17789192125201">
        <ele>454.0</ele>
        <time>2013-04-10T16:42:07.000Z</time>
      </trkpt>
      <trkpt lon="7.027340931817889" lat="46.17803198285401">
        <ele>454.0</ele>
        <time>2013-04-10T16:42:14.000Z</time>
      </trkpt>
      <trkpt lon="7.027463978156447" lat="46.1782119423151">
        <ele>453.79998779296875</ele>
        <time>2013-04-10T16:42:19.000Z</time>
      </trkpt>
      <trkpt lon="7.027667993679643" lat="46.178453927859664">
        <ele>453.79998779296875</ele>
        <time>2013-04-10T16:42:24.000Z</time>
      </trkpt>
      <trkpt lon="7.02794392593205" lat="46.17877294309437">
        <ele>453.3999938964844</ele>
        <time>2013-04-10T16:42:30.000Z</time>
      </trkpt>
      <trkpt lon="7.02820292674005" lat="46.17907293140888">
        <ele>452.3999938964844</ele>
        <time>2013-04-10T16:42:37.000Z</time>
      </trkpt>
      <trkpt lon="7.028268976137042" lat="46.17914996109903">
        <ele>452.20001220703125</ele>
        <time>2013-04-10T16:42:39.000Z</time>
      </trkpt>
      <trkpt lon="7.028535939753056" lat="46.17945992387831">
        <ele>453.20001220703125</ele>
        <time>2013-04-10T16:42:47.000Z</time>
      </trkpt>
      <trkpt lon="7.028786977753043" lat="46.17974993772805">
        <ele>453.79998779296875</ele>
        <time>2013-04-10T16:42:54.000Z</time>
      </trkpt>
      <trkpt lon="7.02905997633934" lat="46.180064929649234">
        <ele>453.3999938964844</ele>
        <time>2013-04-10T16:43:00.000Z</time>
      </trkpt>
      <trkpt lon="7.029199954122305" lat="46.18022695183754">
        <ele>453.3999938964844</ele>
        <time>2013-04-10T16:43:04.000Z</time>
      </trkpt>
      <trkpt lon="7.029006918892264" lat="46.18029199540615">
        <ele>454.3999938964844</ele>
        <time>2013-04-10T16:43:06.000Z</time>
      </trkpt>
      <trkpt lon="7.028943970799446" lat="46.180473966524005">
        <ele>455.20001220703125</ele>
        <time>2013-04-10T16:43:11.000Z</time>
      </trkpt>
      <trkpt lon="7.02908193692565" lat="46.18068099953234">
        <ele>455.0</ele>
        <time>2013-04-10T16:43:18.000Z</time>
      </trkpt>
      <trkpt lon="7.029203977435827" lat="46.180926924571395">
        <ele>455.0</ele>
        <time>2013-04-10T16:43:26.000Z</time>
      </trkpt>
      <trkpt lon="7.0293299574404955" lat="46.181333949789405">
        <ele>455.3999938964844</ele>
        <time>2013-04-10T16:43:38.000Z</time>
      </trkpt>
      <trkpt lon="7.029398940503597" lat="46.18162899278104">
        <ele>455.79998779296875</ele>
        <time>2013-04-10T16:43:46.000Z</time>
      </trkpt>
      <trkpt lon="7.02944696880877" lat="46.18190894834697">
        <ele>457.20001220703125</ele>
        <time>2013-04-10T16:43:54.000Z</time>
      </trkpt>
      <trkpt lon="7.0294789876788855" lat="46.18220994248986">
        <ele>459.0</ele>
        <time>2013-04-10T16:44:03.000Z</time>
      </trkpt>
      <trkpt lon="7.02948896214366" lat="46.18244195356965">
        <ele>460.6000061035156</ele>
        <time>2013-04-10T16:44:10.000Z</time>
      </trkpt>
      <trkpt lon="7.029480999335647" lat="46.18263096548617">
        <ele>461.20001220703125</ele>
        <time>2013-04-10T16:44:17.000Z</time>
      </trkpt>
      <trkpt lon="7.029463984072208" lat="46.182921985164285">
        <ele>461.6000061035156</ele>
        <time>2013-04-10T16:44:26.000Z</time>
      </trkpt>
      <trkpt lon="7.029416961595416" lat="46.183141926303506">
        <ele>462.20001220703125</ele>
        <time>2013-04-10T16:44:33.000Z</time>
      </trkpt>
      <trkpt lon="7.0293529238551855" lat="46.183440992608666">
        <ele>463.0</ele>
        <time>2013-04-10T16:44:42.000Z</time>
      </trkpt>
      <trkpt lon="7.029288969933987" lat="46.18371097370982">
        <ele>463.6000061035156</ele>
        <time>2013-04-10T16:44:51.000Z</time>
      </trkpt>
      <trkpt lon="7.029156954959035" lat="46.18401498533785">
        <ele>464.79998779296875</ele>
        <time>2013-04-10T16:45:00.000Z</time>
      </trkpt>
      <trkpt lon="7.028979929164052" lat="46.18437792174518">
        <ele>465.79998779296875</ele>
        <time>2013-04-10T16:45:11.000Z</time>
      </trkpt>
      <trkpt lon="7.028896948322654" lat="46.18456592783332">
        <ele>466.20001220703125</ele>
        <time>2013-04-10T16:45:17.000Z</time>
      </trkpt>
      <trkpt lon="7.028810949996114" lat="46.1847379244864">
        <ele>466.6000061035156</ele>
        <time>2013-04-10T16:45:23.000Z</time>
      </trkpt>
      <trkpt lon="7.028760993853211" lat="46.18482895195484">
        <ele>467.0</ele>
        <time>2013-04-10T16:45:32.000Z</time>
      </trkpt>
      <trkpt lon="7.028292948380113" lat="46.18530496023595">
        <ele>469.6000061035156</ele>
        <time>2013-04-10T16:45:40.000Z</time>
      </trkpt>
      <trkpt lon="7.02813696116209" lat="46.185778956860304">
        <ele>469.20001220703125</ele>
        <time>2013-04-10T16:45:50.000Z</time>
      </trkpt>
      <trkpt lon="7.027965970337391" lat="46.18632294237614">
        <ele>467.20001220703125</ele>
        <time>2013-04-10T16:46:01.000Z</time>
      </trkpt>
      <trkpt lon="7.02781199477613" lat="46.1868619825691">
        <ele>466.6000061035156</ele>
        <time>2013-04-10T16:46:12.000Z</time>
      </trkpt>
      <trkpt lon="7.027697917073965" lat="46.18723397143185">
        <ele>467.3999938964844</ele>
        <time>2013-04-10T16:46:20.000Z</time>
      </trkpt>
      <trkpt lon="7.027528937906027" lat="46.1877079680562">
        <ele>468.3999938964844</ele>
        <time>2013-04-10T16:46:30.000Z</time>
      </trkpt>
      <trkpt lon="7.027335986495018" lat="46.188147934153676">
        <ele>469.20001220703125</ele>
        <time>2013-04-10T16:46:39.000Z</time>
      </trkpt>
      <trkpt lon="7.027054941281676" lat="46.18858798407018">
        <ele>469.3999938964844</ele>
        <time>2013-04-10T16:46:49.000Z</time>
      </trkpt>
      <trkpt lon="7.026671972125769" lat="46.18902292102575">
        <ele>469.0</ele>
        <time>2013-04-10T16:46:59.000Z</time>
      </trkpt>
      <trkpt lon="7.026364943012595" lat="46.18935492821038">
        <ele>468.6000061035156</ele>
        <time>2013-04-10T16:47:07.000Z</time>
      </trkpt>
      <trkpt lon="7.025872925296426" lat="46.18990394286811">
        <ele>469.79998779296875</ele>
        <time>2013-04-10T16:47:20.000Z</time>
      </trkpt>
      <trkpt lon="7.025490961968899" lat="46.190444994717836">
        <ele>471.3999938964844</ele>
        <time>2013-04-10T16:47:31.000Z</time>
      </trkpt>
      <trkpt lon="7.025175970047712" lat="46.19100599549711">
        <ele>470.3999938964844</ele>
        <time>2013-04-10T16:47:42.000Z</time>
      </trkpt>
      <trkpt lon="7.024822924286127" lat="46.19165793992579">
        <ele>468.79998779296875</ele>
        <time>2013-04-10T16:47:54.000Z</time>
      </trkpt>
      <trkpt lon="7.024487983435392" lat="46.19223796762526">
        <ele>470.0</ele>
        <time>2013-04-10T16:48:04.000Z</time>
      </trkpt>
      <trkpt lon="7.024025972932577" lat="46.19304992258549">
        <ele>470.3999938964844</ele>
        <time>2013-04-10T16:48:18.000Z</time>
      </trkpt>
      <trkpt lon="7.023808965459466" lat="46.19342199526727">
        <ele>469.3999938964844</ele>
        <time>2013-04-10T16:48:26.000Z</time>
      </trkpt>
      <trkpt lon="7.023660941049457" lat="46.19367496110499">
        <ele>467.6000061035156</ele>
        <time>2013-04-10T16:48:33.000Z</time>
      </trkpt>
      <trkpt lon="7.023497996851802" lat="46.19398199021816">
        <ele>465.79998779296875</ele>
        <time>2013-04-10T16:48:39.000Z</time>
      </trkpt>
      <trkpt lon="7.023092983290553" lat="46.19442698545754">
        <ele>464.3999938964844</ele>
        <time>2013-04-10T16:48:47.000Z</time>
      </trkpt>
      <trkpt lon="7.022511949762702" lat="46.195040959864855">
        <ele>465.6000061035156</ele>
        <time>2013-04-10T16:48:57.000Z</time>
      </trkpt>
      <trkpt lon="7.022057985886931" lat="46.19550699368119">
        <ele>463.79998779296875</ele>
        <time>2013-04-10T16:49:04.000Z</time>
      </trkpt>
      <trkpt lon="7.021517939865589" lat="46.19624895974994">
        <ele>459.79998779296875</ele>
        <time>2013-04-10T16:49:13.000Z</time>
      </trkpt>
      <trkpt lon="7.0209859404712915" lat="46.19686293415725">
        <ele>457.6000061035156</ele>
        <time>2013-04-10T16:49:22.000Z</time>
      </trkpt>
      <trkpt lon="7.020371966063976" lat="46.197575982660055">
        <ele>454.20001220703125</ele>
        <time>2013-04-10T16:49:32.000Z</time>
      </trkpt>
      <trkpt lon="7.019891934469342" lat="46.198046961799264">
        <ele>449.6000061035156</ele>
        <time>2013-04-10T16:49:40.000Z</time>
      </trkpt>
      <trkpt lon="7.019551964476705" lat="46.19844292290509">
        <ele>446.20001220703125</ele>
        <time>2013-04-10T16:49:45.000Z</time>
      </trkpt>
      <trkpt lon="7.019085930660367" lat="46.19898196309805">
        <ele>441.20001220703125</ele>
        <time>2013-04-10T16:49:51.000Z</time>
      </trkpt>
      <trkpt lon="7.019000938162208" lat="46.199078941717744">
        <ele>440.20001220703125</ele>
        <time>2013-04-10T16:49:52.000Z</time>
      </trkpt>
      <trkpt lon="7.018558960407972" lat="46.19936199858785">
        <ele>436.3999938964844</ele>
        <time>2013-04-10T16:49:56.000Z</time>
      </trkpt>
      <trkpt lon="7.017257921397686" lat="46.199617981910706">
        <ele>436.79998779296875</ele>
        <time>2013-04-10T16:50:06.000Z</time>
      </trkpt>
      <trkpt lon="7.01550493016839" lat="46.19997697882354">
        <ele>437.0</ele>
        <time>2013-04-10T16:50:19.000Z</time>
      </trkpt>
      <trkpt lon="7.014658944681287" lat="46.200195997953415">
        <ele>435.0</ele>
        <time>2013-04-10T16:50:27.000Z</time>
      </trkpt>
      <trkpt lon="7.013739952817559" lat="46.200518952682614">
        <ele>430.3999938964844</ele>
        <time>2013-04-10T16:50:36.000Z</time>
      </trkpt>
      <trkpt lon="7.013209965080023" lat="46.200756998732686">
        <ele>428.3999938964844</ele>
        <time>2013-04-10T16:50:42.000Z</time>
      </trkpt>
      <trkpt lon="7.0126669853925705" lat="46.2010099645704">
        <ele>426.6000061035156</ele>
        <time>2013-04-10T16:50:49.000Z</time>
      </trkpt>
      <trkpt lon="7.012074971571565" lat="46.201318921521306">
        <ele>424.79998779296875</ele>
        <time>2013-04-10T16:50:56.000Z</time>
      </trkpt>
      <trkpt lon="7.011280953884125" lat="46.20179492980242">
        <ele>423.20001220703125</ele>
        <time>2013-04-10T16:51:05.000Z</time>
      </trkpt>
      <trkpt lon="7.011098982766271" lat="46.20190599001944">
        <ele>422.3999938964844</ele>
        <time>2013-04-10T16:51:07.000Z</time>
      </trkpt>
      <trkpt lon="7.010333966463804" lat="46.202476965263486">
        <ele>420.0</ele>
        <time>2013-04-10T16:51:16.000Z</time>
      </trkpt>
      <trkpt lon="7.009722925722599" lat="46.203121952712536">
        <ele>418.6000061035156</ele>
        <time>2013-04-10T16:51:25.000Z</time>
      </trkpt>
      <trkpt lon="7.009387984871864" lat="46.2035209313035">
        <ele>417.20001220703125</ele>
        <time>2013-04-10T16:51:31.000Z</time>
      </trkpt>
      <trkpt lon="7.0088189374655485" lat="46.204235991463065">
        <ele>417.79998779296875</ele>
        <time>2013-04-10T16:51:43.000Z</time>
      </trkpt>
      <trkpt lon="7.008404955267906" lat="46.204756926745176">
        <ele>418.6000061035156</ele>
        <time>2013-04-10T16:51:52.000Z</time>
      </trkpt>
      <trkpt lon="7.008013939484954" lat="46.205247938632965">
        <ele>419.3999938964844</ele>
        <time>2013-04-10T16:52:01.000Z</time>
      </trkpt>
      <trkpt lon="7.007631976157427" lat="46.20571196079254">
        <ele>420.3999938964844</ele>
        <time>2013-04-10T16:52:11.000Z</time>
      </trkpt>
      <trkpt lon="7.007344979792833" lat="46.206084955483675">
        <ele>420.3999938964844</ele>
        <time>2013-04-10T16:52:20.000Z</time>
      </trkpt>
      <trkpt lon="7.007104922086" lat="46.20639491826296">
        <ele>421.0</ele>
        <time>2013-04-10T16:52:29.000Z</time>
      </trkpt>
      <trkpt lon="7.006852962076664" lat="46.20671393349767">
        <ele>422.6000061035156</ele>
        <time>2013-04-10T16:52:38.000Z</time>
      </trkpt>
      <trkpt lon="7.006485918536782" lat="46.207179967314005">
        <ele>423.3999938964844</ele>
        <time>2013-04-10T16:52:51.000Z</time>
      </trkpt>
      <trkpt lon="7.006184924393892" lat="46.2075549736619">
        <ele>423.6000061035156</ele>
        <time>2013-04-10T16:53:02.000Z</time>
      </trkpt>
      <trkpt lon="7.005975963547826" lat="46.20775194838643">
        <ele>424.20001220703125</ele>
        <time>2013-04-10T16:53:09.000Z</time>
      </trkpt>
      <trkpt lon="7.0057289488613605" lat="46.208123937249184">
        <ele>424.6000061035156</ele>
        <time>2013-04-10T16:53:17.000Z</time>
      </trkpt>
      <trkpt lon="7.005788963288069" lat="46.20829492807388">
        <ele>424.20001220703125</ele>
        <time>2013-04-10T16:53:23.000Z</time>
      </trkpt>
      <trkpt lon="7.005626941099763" lat="46.20845896191895">
        <ele>424.79998779296875</ele>
        <time>2013-04-10T16:53:28.000Z</time>
      </trkpt>
      <trkpt lon="7.005461985245347" lat="46.208683932200074">
        <ele>425.3999938964844</ele>
        <time>2013-04-10T16:53:36.000Z</time>
      </trkpt>
      <trkpt lon="7.00536098331213" lat="46.20876498520374">
        <ele>425.79998779296875</ele>
        <time>2013-04-10T16:53:40.000Z</time>
      </trkpt>
      <trkpt lon="7.005136935040355" lat="46.208791974931955">
        <ele>426.79998779296875</ele>
        <time>2013-04-10T16:53:45.000Z</time>
      </trkpt>
      <trkpt lon="7.004943983629346" lat="46.20878392830491">
        <ele>427.6000061035156</ele>
        <time>2013-04-10T16:53:50.000Z</time>
      </trkpt>
      <trkpt lon="7.004647934809327" lat="46.20875492691994">
        <ele>429.0</ele>
        <time>2013-04-10T16:54:01.000Z</time>
      </trkpt>
      <trkpt lon="7.0044169295579195" lat="46.20871796272695">
        <ele>430.20001220703125</ele>
        <time>2013-04-10T16:54:10.000Z</time>
      </trkpt>
      <trkpt lon="7.004194976761937" lat="46.208682926371694">
        <ele>431.3999938964844</ele>
        <time>2013-04-10T16:54:19.000Z</time>
      </trkpt>
      <trkpt lon="7.003941927105188" lat="46.208642944693565">
        <ele>433.3999938964844</ele>
        <time>2013-04-10T16:54:29.000Z</time>
      </trkpt>
      <trkpt lon="7.003770936280489" lat="46.20861494913697">
        <ele>434.79998779296875</ele>
        <time>2013-04-10T16:54:36.000Z</time>
      </trkpt>
      <trkpt lon="7.003660965710878" lat="46.20859491638839">
        <ele>435.79998779296875</ele>
        <time>2013-04-10T16:54:42.000Z</time>
      </trkpt>
      <trkpt lon="7.003454938530922" lat="46.20852995663881">
        <ele>437.6000061035156</ele>
        <time>2013-04-10T16:54:51.000Z</time>
      </trkpt>
      <trkpt lon="7.003273973241448" lat="46.2084149569273">
        <ele>439.0</ele>
        <time>2013-04-10T16:54:59.000Z</time>
      </trkpt>
      <trkpt lon="7.0031829457730055" lat="46.20832493528724">
        <ele>439.6000061035156</ele>
        <time>2013-04-10T16:55:03.000Z</time>
      </trkpt>
      <trkpt lon="7.003117986023426" lat="46.20840699411929">
        <ele>439.79998779296875</ele>
        <time>2013-04-10T16:55:07.000Z</time>
      </trkpt>
      <trkpt lon="7.003036933019757" lat="46.208507996052504">
        <ele>440.0</ele>
        <time>2013-04-10T16:55:13.000Z</time>
      </trkpt>
      <trkpt lon="7.002949928864837" lat="46.20861595496535">
        <ele>440.20001220703125</ele>
        <time>2013-04-10T16:55:19.000Z</time>
      </trkpt>
      <trkpt lon="7.002829983830452" lat="46.20880094356835">
        <ele>440.3999938964844</ele>
        <time>2013-04-10T16:55:25.000Z</time>
      </trkpt>
      <trkpt lon="7.002684976905584" lat="46.20903597213328">
        <ele>440.6000061035156</ele>
        <time>2013-04-10T16:55:31.000Z</time>
      </trkpt>
      <trkpt lon="7.002598978579044" lat="46.20919397100806">
        <ele>440.3999938964844</ele>
        <time>2013-04-10T16:55:35.000Z</time>
      </trkpt>
      <trkpt lon="7.002489930018783" lat="46.209415923804045">
        <ele>440.0</ele>
        <time>2013-04-10T16:55:40.000Z</time>
      </trkpt>
      <trkpt lon="7.0023079589009285" lat="46.20979495346546">
        <ele>439.0</ele>
        <time>2013-04-10T16:55:48.000Z</time>
      </trkpt>
      <trkpt lon="7.002073936164379" lat="46.21028294786811">
        <ele>436.79998779296875</ele>
        <time>2013-04-10T16:55:57.000Z</time>
      </trkpt>
      <trkpt lon="7.001888947561383" lat="46.2106669228524">
        <ele>435.6000061035156</ele>
        <time>2013-04-10T16:56:04.000Z</time>
      </trkpt>
      <trkpt lon="7.001729942858219" lat="46.21099691838026">
        <ele>434.3999938964844</ele>
        <time>2013-04-10T16:56:10.000Z</time>
      </trkpt>
      <trkpt lon="7.001476977020502" lat="46.211522966623306">
        <ele>431.3999938964844</ele>
        <time>2013-04-10T16:56:19.000Z</time>
      </trkpt>
      <trkpt lon="7.001264998689294" lat="46.21196293272078">
        <ele>429.20001220703125</ele>
        <time>2013-04-10T16:56:26.000Z</time>
      </trkpt>
      <trkpt lon="7.001173971220851" lat="46.21215496212244">
        <ele>428.3999938964844</ele>
        <time>2013-04-10T16:56:29.000Z</time>
      </trkpt>
      <trkpt lon="7.0010739751160145" lat="46.21236995793879">
        <ele>427.3999938964844</ele>
        <time>2013-04-10T16:56:33.000Z</time>
      </trkpt>
      <trkpt lon="7.001390978693962" lat="46.21247397735715">
        <ele>426.3999938964844</ele>
        <time>2013-04-10T16:56:36.000Z</time>
      </trkpt>
      <trkpt lon="7.002199999988079" lat="46.21261093765497">
        <ele>423.79998779296875</ele>
        <time>2013-04-10T16:56:45.000Z</time>
      </trkpt>
      <trkpt lon="7.002726970240474" lat="46.21270598843694">
        <ele>423.3999938964844</ele>
        <time>2013-04-10T16:56:52.000Z</time>
      </trkpt>
      <trkpt lon="7.002996951341629" lat="46.2127719540149">
        <ele>423.79998779296875</ele>
        <time>2013-04-10T16:56:56.000Z</time>
      </trkpt>
      <trkpt lon="7.002899972721934" lat="46.21292492374778">
        <ele>423.6000061035156</ele>
        <time>2013-04-10T16:56:58.000Z</time>
      </trkpt>
      <trkpt lon="7.002701992169023" lat="46.21348693035543">
        <ele>423.0</ele>
        <time>2013-04-10T16:57:07.000Z</time>
      </trkpt>
      <trkpt lon="7.002534940838814" lat="46.21392094530165">
        <ele>422.20001220703125</ele>
        <time>2013-04-10T16:57:13.000Z</time>
      </trkpt>
      <trkpt lon="7.002491941675544" lat="46.21406394056976">
        <ele>422.0</ele>
        <time>2013-04-10T16:57:15.000Z</time>
      </trkpt>
      <trkpt lon="7.0024369563907385" lat="46.21453994885087">
        <ele>422.20001220703125</ele>
        <time>2013-04-10T16:57:22.000Z</time>
      </trkpt>
      <trkpt lon="7.002431927248836" lat="46.214697947725654">
        <ele>422.3999938964844</ele>
        <time>2013-04-10T16:57:28.000Z</time>
      </trkpt>
      <trkpt lon="7.00237593613565" lat="46.215302953496575">
        <ele>421.79998779296875</ele>
        <time>2013-04-10T16:57:35.000Z</time>
      </trkpt>
      <trkpt lon="7.002346934750676" lat="46.21565792709589">
        <ele>421.20001220703125</ele>
        <time>2013-04-10T16:57:41.000Z</time>
      </trkpt>
      <trkpt lon="7.002326985821128" lat="46.21591198258102">
        <ele>421.0</ele>
        <time>2013-04-10T16:57:46.000Z</time>
      </trkpt>
      <trkpt lon="7.002319945022464" lat="46.216010972857475">
        <ele>421.20001220703125</ele>
        <time>2013-04-10T16:57:48.000Z</time>
      </trkpt>
      <trkpt lon="7.002303935587406" lat="46.216206941753626">
        <ele>421.3999938964844</ele>
        <time>2013-04-10T16:57:52.000Z</time>
      </trkpt>
      <trkpt lon="7.002312988042831" lat="46.21630098670721">
        <ele>421.6000061035156</ele>
        <time>2013-04-10T16:57:54.000Z</time>
      </trkpt>
      <trkpt lon="7.002411978319287" lat="46.21655395254493">
        <ele>422.3999938964844</ele>
        <time>2013-04-10T16:57:59.000Z</time>
      </trkpt>
      <trkpt lon="7.00265396386385" lat="46.216678926721215">
        <ele>422.79998779296875</ele>
        <time>2013-04-10T16:58:03.000Z</time>
      </trkpt>
      <trkpt lon="7.00310398824513" lat="46.21688696555793">
        <ele>422.20001220703125</ele>
        <time>2013-04-10T16:58:09.000Z</time>
      </trkpt>
      <trkpt lon="7.00379298068583" lat="46.21697195805609">
        <ele>420.0</ele>
        <time>2013-04-10T16:58:16.000Z</time>
      </trkpt>
      <trkpt lon="7.003850983455777" lat="46.21701193973422">
        <ele>419.79998779296875</ele>
        <time>2013-04-10T16:58:17.000Z</time>
      </trkpt>
      <trkpt lon="7.004232946783304" lat="46.2170319724828">
        <ele>418.3999938964844</ele>
        <time>2013-04-10T16:58:21.000Z</time>
      </trkpt>
      <trkpt lon="7.004435956478119" lat="46.217104978859425">
        <ele>417.79998779296875</ele>
        <time>2013-04-10T16:58:25.000Z</time>
      </trkpt>
      <trkpt lon="7.004440985620022" lat="46.21715594083071">
        <ele>417.79998779296875</ele>
        <time>2013-04-10T16:58:26.000Z</time>
      </trkpt>
      <trkpt lon="7.004467975348234" lat="46.21747998520732">
        <ele>417.6000061035156</ele>
        <time>2013-04-10T16:58:33.000Z</time>
      </trkpt>
      <trkpt lon="7.004476943984628" lat="46.21757294051349">
        <ele>417.3999938964844</ele>
        <time>2013-04-10T16:58:35.000Z</time>
      </trkpt>
      <trkpt lon="7.004518937319517" lat="46.217921962961555">
        <ele>417.0</ele>
        <time>2013-04-10T16:58:42.000Z</time>
      </trkpt>
      <trkpt lon="7.00454693287611" lat="46.21817291714251">
        <ele>416.79998779296875</ele>
        <time>2013-04-10T16:58:47.000Z</time>
      </trkpt>
      <trkpt lon="7.004567971453071" lat="46.218414986506104">
        <ele>416.79998779296875</ele>
        <time>2013-04-10T16:58:52.000Z</time>
      </trkpt>
      <trkpt lon="7.004594961181283" lat="46.21872997842729">
        <ele>417.79998779296875</ele>
        <time>2013-04-10T16:58:58.000Z</time>
      </trkpt>
      <trkpt lon="7.004622956737876" lat="46.219105990603566">
        <ele>419.0</ele>
        <time>2013-04-10T16:59:06.000Z</time>
      </trkpt>
      <trkpt lon="7.0046239625662565" lat="46.21915292926133">
        <ele>419.20001220703125</ele>
        <time>2013-04-10T16:59:07.000Z</time>
      </trkpt>
      <trkpt lon="7.0046319253742695" lat="46.21946197003126">
        <ele>420.79998779296875</ele>
        <time>2013-04-10T16:59:13.000Z</time>
      </trkpt>
      <trkpt lon="7.004639972001314" lat="46.219773944467306">
        <ele>422.20001220703125</ele>
        <time>2013-04-10T16:59:20.000Z</time>
      </trkpt>
      <trkpt lon="7.004639972001314" lat="46.219810992479324">
        <ele>422.3999938964844</ele>
        <time>2013-04-10T16:59:21.000Z</time>
      </trkpt>
      <trkpt lon="7.004642989486456" lat="46.219943929463625">
        <ele>423.0</ele>
        <time>2013-04-10T16:59:26.000Z</time>
      </trkpt>
      <trkpt lon="7.0046039298176765" lat="46.220219945535064">
        <ele>424.6000061035156</ele>
        <time>2013-04-10T16:59:33.000Z</time>
      </trkpt>
      <trkpt lon="7.004595967009664" lat="46.22026093304157">
        <ele>424.79998779296875</ele>
        <time>2013-04-10T16:59:34.000Z</time>
      </trkpt>
      <trkpt lon="7.004563948139548" lat="46.22042999602854">
        <ele>426.6000061035156</ele>
        <time>2013-04-10T16:59:37.000Z</time>
      </trkpt>
      <trkpt lon="7.004539975896478" lat="46.22072294354439">
        <ele>429.3999938964844</ele>
        <time>2013-04-10T16:59:42.000Z</time>
      </trkpt>
      <trkpt lon="7.004528995603323" lat="46.22081799432635">
        <ele>430.6000061035156</ele>
        <time>2013-04-10T16:59:44.000Z</time>
      </trkpt>
      <trkpt lon="7.004448948428035" lat="46.22117799706757">
        <ele>433.0</ele>
        <time>2013-04-10T16:59:51.000Z</time>
      </trkpt>
      <trkpt lon="7.004412990063429" lat="46.22139793820679">
        <ele>433.3999938964844</ele>
        <time>2013-04-10T16:59:55.000Z</time>
      </trkpt>
      <trkpt lon="7.004276951774955" lat="46.22178099118173">
        <ele>434.0</ele>
        <time>2013-04-10T17:00:02.000Z</time>
      </trkpt>
      <trkpt lon="7.003989955410361" lat="46.222174940630794">
        <ele>439.6000061035156</ele>
        <time>2013-04-10T17:00:10.000Z</time>
      </trkpt>
      <trkpt lon="7.003778982907534" lat="46.22244894504547">
        <ele>445.3999938964844</ele>
        <time>2013-04-10T17:00:17.000Z</time>
      </trkpt>
      <trkpt lon="7.003566920757294" lat="46.22272697277367">
        <ele>447.79998779296875</ele>
        <time>2013-04-10T17:00:25.000Z</time>
      </trkpt>
      <trkpt lon="7.003402970731258" lat="46.22301992028952">
        <ele>439.0</ele>
        <time>2013-04-10T17:00:34.000Z</time>
      </trkpt>
      <trkpt lon="7.00325595214963" lat="46.2232159730047">
        <ele>431.3999938964844</ele>
        <time>2013-04-10T17:00:42.000Z</time>
      </trkpt>
      <trkpt lon="7.003211947157979" lat="46.22326391749084">
        <ele>430.0</ele>
        <time>2013-04-10T17:00:44.000Z</time>
      </trkpt>
      <trkpt lon="7.003291994333267" lat="46.223445972427726">
        <ele>421.3999938964844</ele>
        <time>2013-04-10T17:00:48.000Z</time>
      </trkpt>
      <trkpt lon="7.003674963489175" lat="46.22353792190552">
        <ele>422.0</ele>
        <time>2013-04-10T17:00:54.000Z</time>
      </trkpt>
      <trkpt lon="7.004160946235061" lat="46.22369692660868">
        <ele>430.79998779296875</ele>
        <time>2013-04-10T17:01:00.000Z</time>
      </trkpt>
      <trkpt lon="7.004341995343566" lat="46.22375291772187">
        <ele>437.6000061035156</ele>
        <time>2013-04-10T17:01:04.000Z</time>
      </trkpt>
      <trkpt lon="7.004304947331548" lat="46.223809998482466">
        <ele>438.3999938964844</ele>
        <time>2013-04-10T17:01:12.000Z</time>
      </trkpt>
      <trkpt lon="7.004081988707185" lat="46.22417092323303">
        <ele>441.79998779296875</ele>
        <time>2013-04-10T17:01:23.000Z</time>
      </trkpt>
      <trkpt lon="7.003980986773968" lat="46.22444098815322">
        <ele>444.3999938964844</ele>
        <time>2013-04-10T17:01:30.000Z</time>
      </trkpt>
      <trkpt lon="7.003954919055104" lat="46.224561939015985">
        <ele>446.20001220703125</ele>
        <time>2013-04-10T17:01:33.000Z</time>
      </trkpt>
      <trkpt lon="7.003869926556945" lat="46.22482596896589">
        <ele>448.20001220703125</ele>
        <time>2013-04-10T17:01:40.000Z</time>
      </trkpt>
      <trkpt lon="7.003820976242423" lat="46.22484893538058">
        <ele>446.3999938964844</ele>
        <time>2013-04-10T17:01:42.000Z</time>
      </trkpt>
      <trkpt lon="7.003614949062467" lat="46.22488992288709">
        <ele>437.20001220703125</ele>
        <time>2013-04-10T17:01:47.000Z</time>
      </trkpt>
      <trkpt lon="7.003695918247104" lat="46.22529795393348">
        <ele>439.79998779296875</ele>
        <time>2013-04-10T17:01:52.000Z</time>
      </trkpt>
      <trkpt lon="7.003886941820383" lat="46.225658962503076">
        <ele>444.6000061035156</ele>
        <time>2013-04-10T17:01:58.000Z</time>
      </trkpt>
      <trkpt lon="7.004192965105176" lat="46.22620093636215">
        <ele>443.3999938964844</ele>
        <time>2013-04-10T17:02:06.000Z</time>
      </trkpt>
      <trkpt lon="7.004726976156235" lat="46.2269389629364">
        <ele>447.20001220703125</ele>
        <time>2013-04-10T17:02:17.000Z</time>
      </trkpt>
      <trkpt lon="7.005284959450364" lat="46.227653939276934">
        <ele>439.20001220703125</ele>
        <time>2013-04-10T17:02:28.000Z</time>
      </trkpt>
      <trkpt lon="7.0055189821869135" lat="46.22805593535304">
        <ele>434.6000061035156</ele>
        <time>2013-04-10T17:02:34.000Z</time>
      </trkpt>
      <trkpt lon="7.0055849477648735" lat="46.228492967784405">
        <ele>424.20001220703125</ele>
        <time>2013-04-10T17:02:40.000Z</time>
      </trkpt>
      <trkpt lon="7.005520993843675" lat="46.228985991328955">
        <ele>416.6000061035156</ele>
        <time>2013-04-10T17:02:47.000Z</time>
      </trkpt>
      <trkpt lon="7.005319995805621" lat="46.229414977133274">
        <ele>412.79998779296875</ele>
        <time>2013-04-10T17:02:54.000Z</time>
      </trkpt>
      <trkpt lon="7.0050259586423635" lat="46.22980699874461">
        <ele>413.0</ele>
        <time>2013-04-10T17:03:01.000Z</time>
      </trkpt>
      <trkpt lon="7.004554979503155" lat="46.230258950963616">
        <ele>412.6000061035156</ele>
        <time>2013-04-10T17:03:09.000Z</time>
      </trkpt>
      <trkpt lon="7.00411694124341" lat="46.23082397505641">
        <ele>411.6000061035156</ele>
        <time>2013-04-10T17:03:17.000Z</time>
      </trkpt>
      <trkpt lon="7.003926923498511" lat="46.23127492144704">
        <ele>409.0</ele>
        <time>2013-04-10T17:03:23.000Z</time>
      </trkpt>
      <trkpt lon="7.003675969317555" lat="46.232060976326466">
        <ele>408.6000061035156</ele>
        <time>2013-04-10T17:03:33.000Z</time>
      </trkpt>
      <trkpt lon="7.003461979329586" lat="46.23265793547034">
        <ele>410.20001220703125</ele>
        <time>2013-04-10T17:03:41.000Z</time>
      </trkpt>
      <trkpt lon="7.00314992107451" lat="46.233281968161464">
        <ele>410.0</ele>
        <time>2013-04-10T17:03:50.000Z</time>
      </trkpt>
      <trkpt lon="7.002890920266509" lat="46.23376099392772">
        <ele>411.20001220703125</ele>
        <time>2013-04-10T17:03:58.000Z</time>
      </trkpt>
      <trkpt lon="7.002503927797079" lat="46.23435292392969">
        <ele>411.6000061035156</ele>
        <time>2013-04-10T17:04:08.000Z</time>
      </trkpt>
      <trkpt lon="7.002245932817459" lat="46.234875954687595">
        <ele>409.79998779296875</ele>
        <time>2013-04-10T17:04:16.000Z</time>
      </trkpt>
      <trkpt lon="7.002179967239499" lat="46.23500897549093">
        <ele>409.3999938964844</ele>
        <time>2013-04-10T17:04:18.000Z</time>
      </trkpt>
      <trkpt lon="7.00196991674602" lat="46.23547995463014">
        <ele>410.20001220703125</ele>
        <time>2013-04-10T17:04:25.000Z</time>
      </trkpt>
      <trkpt lon="7.001761961728334" lat="46.2360049970448">
        <ele>411.20001220703125</ele>
        <time>2013-04-10T17:04:34.000Z</time>
      </trkpt>
      <trkpt lon="7.001568926498294" lat="46.23651595786214">
        <ele>411.6000061035156</ele>
        <time>2013-04-10T17:04:43.000Z</time>
      </trkpt>
      <trkpt lon="7.001291988417506" lat="46.237129932269454">
        <ele>415.6000061035156</ele>
        <time>2013-04-10T17:04:54.000Z</time>
      </trkpt>
      <trkpt lon="7.00117195956409" lat="46.23766092583537">
        <ele>420.20001220703125</ele>
        <time>2013-04-10T17:05:03.000Z</time>
      </trkpt>
      <trkpt lon="7.001101970672607" lat="46.2380809430033">
        <ele>422.79998779296875</ele>
        <time>2013-04-10T17:05:10.000Z</time>
      </trkpt>
      <trkpt lon="7.001101970672607" lat="46.23838897794485">
        <ele>424.79998779296875</ele>
        <time>2013-04-10T17:05:16.000Z</time>
      </trkpt>
      <trkpt lon="7.001120997592807" lat="46.238955929875374">
        <ele>421.79998779296875</ele>
        <time>2013-04-10T17:05:26.000Z</time>
      </trkpt>
      <trkpt lon="7.0011979434639215" lat="46.239513996988535">
        <ele>417.20001220703125</ele>
        <time>2013-04-10T17:05:36.000Z</time>
      </trkpt>
      <trkpt lon="7.001375975087285" lat="46.24007994309068">
        <ele>410.3999938964844</ele>
        <time>2013-04-10T17:05:46.000Z</time>
      </trkpt>
      <trkpt lon="7.001544954255223" lat="46.24064194969833">
        <ele>409.79998779296875</ele>
        <time>2013-04-10T17:05:56.000Z</time>
      </trkpt>
      <trkpt lon="7.001638999208808" lat="46.240951996296644">
        <ele>410.0</ele>
        <time>2013-04-10T17:06:03.000Z</time>
      </trkpt>
      <trkpt lon="7.001675963401794" lat="46.24107395298779">
        <ele>410.20001220703125</ele>
        <time>2013-04-10T17:06:06.000Z</time>
      </trkpt>
      <trkpt lon="7.0017109997570515" lat="46.24119498766959">
        <ele>410.6000061035156</ele>
        <time>2013-04-10T17:06:10.000Z</time>
      </trkpt>
      <trkpt lon="7.001997996121645" lat="46.24110798351467">
        <ele>412.79998779296875</ele>
        <time>2013-04-10T17:06:12.000Z</time>
      </trkpt>
      <trkpt lon="7.00224693864584" lat="46.24113597907126">
        <ele>414.6000061035156</ele>
        <time>2013-04-10T17:06:16.000Z</time>
      </trkpt>
      <trkpt lon="7.00241893529892" lat="46.24117897823453">
        <ele>415.6000061035156</ele>
        <time>2013-04-10T17:06:19.000Z</time>
      </trkpt>
      <trkpt lon="7.002756977453828" lat="46.24126296490431">
        <ele>417.0</ele>
        <time>2013-04-10T17:06:25.000Z</time>
      </trkpt>
      <trkpt lon="7.003101976588368" lat="46.241320967674255">
        <ele>418.20001220703125</ele>
        <time>2013-04-10T17:06:32.000Z</time>
      </trkpt>
      <trkpt lon="7.003249917179346" lat="46.24141995795071">
        <ele>418.3999938964844</ele>
        <time>2013-04-10T17:06:38.000Z</time>
      </trkpt>
      <trkpt lon="7.0032889768481255" lat="46.241557924076915">
        <ele>418.0</ele>
        <time>2013-04-10T17:06:43.000Z</time>
      </trkpt>
      <trkpt lon="7.003443958237767" lat="46.24176596291363">
        <ele>418.3999938964844</ele>
        <time>2013-04-10T17:06:50.000Z</time>
      </trkpt>
      <trkpt lon="7.00366398319602" lat="46.24184299260378">
        <ele>419.3999938964844</ele>
        <time>2013-04-10T17:06:58.000Z</time>
      </trkpt>
      <trkpt lon="7.003976963460445" lat="46.24197098426521">
        <ele>420.6000061035156</ele>
        <time>2013-04-10T17:07:09.000Z</time>
      </trkpt>
      <trkpt lon="7.0041439309716225" lat="46.242074919864535">
        <ele>421.3999938964844</ele>
        <time>2013-04-10T17:07:16.000Z</time>
      </trkpt>
      <trkpt lon="7.004316933453083" lat="46.24189294874668">
        <ele>421.20001220703125</ele>
        <time>2013-04-10T17:07:23.000Z</time>
      </trkpt>
      <trkpt lon="7.004539975896478" lat="46.24164794571698">
        <ele>421.6000061035156</ele>
        <time>2013-04-10T17:07:32.000Z</time>
      </trkpt>
      <trkpt lon="7.004836946725845" lat="46.241320967674255">
        <ele>425.0</ele>
        <time>2013-04-10T17:07:44.000Z</time>
      </trkpt>
      <trkpt lon="7.005051942542195" lat="46.24107495881617">
        <ele>427.3999938964844</ele>
        <time>2013-04-10T17:07:53.000Z</time>
      </trkpt>
      <trkpt lon="7.005229974165559" lat="46.24088695272803">
        <ele>428.20001220703125</ele>
        <time>2013-04-10T17:08:00.000Z</time>
      </trkpt>
      <trkpt lon="7.005395935848355" lat="46.2409249227494">
        <ele>427.0</ele>
        <time>2013-04-10T17:08:04.000Z</time>
      </trkpt>
      <trkpt lon="7.005816958844662" lat="46.24105794355273">
        <ele>424.3999938964844</ele>
        <time>2013-04-10T17:08:12.000Z</time>
      </trkpt>
      <trkpt lon="7.0062219724059105" lat="46.24118593521416">
        <ele>425.0</ele>
        <time>2013-04-10T17:08:20.000Z</time>
      </trkpt>
      <trkpt lon="7.006604941561818" lat="46.24130696989596">
        <ele>425.79998779296875</ele>
        <time>2013-04-10T17:08:28.000Z</time>
      </trkpt>
      <trkpt lon="7.007148927077651" lat="46.24147896654904">
        <ele>427.6000061035156</ele>
        <time>2013-04-10T17:08:38.000Z</time>
      </trkpt>
      <trkpt lon="7.007556958124042" lat="46.24160796403885">
        <ele>429.0</ele>
        <time>2013-04-10T17:08:46.000Z</time>
      </trkpt>
      <trkpt lon="7.007951997220516" lat="46.24173293821514">
        <ele>429.79998779296875</ele>
        <time>2013-04-10T17:08:53.000Z</time>
      </trkpt>
      <trkpt lon="7.008283920586109" lat="46.241837963461876">
        <ele>430.0</ele>
        <time>2013-04-10T17:08:59.000Z</time>
      </trkpt>
      <trkpt lon="7.008677953854203" lat="46.24196193180978">
        <ele>429.20001220703125</ele>
        <time>2013-04-10T17:09:07.000Z</time>
      </trkpt>
      <trkpt lon="7.009132923558354" lat="46.24210593290627">
        <ele>428.3999938964844</ele>
        <time>2013-04-10T17:09:15.000Z</time>
      </trkpt>
      <trkpt lon="7.009515976533294" lat="46.24222696758807">
        <ele>427.20001220703125</ele>
        <time>2013-04-10T17:09:22.000Z</time>
      </trkpt>
      <trkpt lon="7.009798949584365" lat="46.24231698922813">
        <ele>426.3999938964844</ele>
        <time>2013-04-10T17:09:27.000Z</time>
      </trkpt>
      <trkpt lon="7.010233970358968" lat="46.24245394952595">
        <ele>426.3999938964844</ele>
        <time>2013-04-10T17:09:35.000Z</time>
      </trkpt>
      <trkpt lon="7.01049598865211" lat="46.24253693036735">
        <ele>427.20001220703125</ele>
        <time>2013-04-10T17:09:40.000Z</time>
      </trkpt>
      <trkpt lon="7.010877951979637" lat="46.24265796504915">
        <ele>427.79998779296875</ele>
        <time>2013-04-10T17:09:48.000Z</time>
      </trkpt>
      <trkpt lon="7.011128989979625" lat="46.242740945890546">
        <ele>427.6000061035156</ele>
        <time>2013-04-10T17:09:54.000Z</time>
      </trkpt>
      <trkpt lon="7.0115499291568995" lat="46.24290598556399">
        <ele>427.3999938964844</ele>
        <time>2013-04-10T17:10:02.000Z</time>
      </trkpt>
      <trkpt lon="7.012099949643016" lat="46.243121987208724">
        <ele>428.0</ele>
        <time>2013-04-10T17:10:12.000Z</time>
      </trkpt>
      <trkpt lon="7.012682994827628" lat="46.24337092973292">
        <ele>428.79998779296875</ele>
        <time>2013-04-10T17:10:23.000Z</time>
      </trkpt>
      <trkpt lon="7.012937972322106" lat="46.243465980514884">
        <ele>430.3999938964844</ele>
        <time>2013-04-10T17:10:29.000Z</time>
      </trkpt>
      <trkpt lon="7.0132059417665005" lat="46.2435809802264">
        <ele>432.20001220703125</ele>
        <time>2013-04-10T17:10:38.000Z</time>
      </trkpt>
      <trkpt lon="7.013474917039275" lat="46.24369597993791">
        <ele>433.79998779296875</ele>
        <time>2013-04-10T17:10:47.000Z</time>
      </trkpt>
      <trkpt lon="7.013443987816572" lat="46.24376093968749">
        <ele>434.20001220703125</ele>
        <time>2013-04-10T17:10:52.000Z</time>
      </trkpt>
      <trkpt lon="7.013241983950138" lat="46.24393595382571">
        <ele>434.79998779296875</ele>
        <time>2013-04-10T17:11:01.000Z</time>
      </trkpt>
      <trkpt lon="7.013017935678363" lat="46.24413091689348">
        <ele>435.20001220703125</ele>
        <time>2013-04-10T17:11:11.000Z</time>
      </trkpt>
      <trkpt lon="7.012848956510425" lat="46.24431196600199">
        <ele>435.20001220703125</ele>
        <time>2013-04-10T17:11:19.000Z</time>
      </trkpt>
      <trkpt lon="7.01264594681561" lat="46.24454598873854">
        <ele>435.20001220703125</ele>
        <time>2013-04-10T17:11:26.000Z</time>
      </trkpt>
      <trkpt lon="7.012467999011278" lat="46.244905991479754">
        <ele>436.20001220703125</ele>
        <time>2013-04-10T17:11:34.000Z</time>
      </trkpt>
      <trkpt lon="7.012288961559534" lat="46.24534294009209">
        <ele>434.6000061035156</ele>
        <time>2013-04-10T17:11:42.000Z</time>
      </trkpt>
      <trkpt lon="7.012200951576233" lat="46.245507979765534">
        <ele>433.79998779296875</ele>
        <time>2013-04-10T17:11:45.000Z</time>
      </trkpt>
      <trkpt lon="7.012179996818304" lat="46.24575197696686">
        <ele>433.0</ele>
        <time>2013-04-10T17:11:49.000Z</time>
      </trkpt>
      <trkpt lon="7.012240933254361" lat="46.24578399583697">
        <ele>433.20001220703125</ele>
        <time>2013-04-10T17:11:50.000Z</time>
      </trkpt>
      <trkpt lon="7.012538993731141" lat="46.24596596695483">
        <ele>433.0</ele>
        <time>2013-04-10T17:11:55.000Z</time>
      </trkpt>
      <trkpt lon="7.012581992894411" lat="46.245999997481704">
        <ele>432.79998779296875</ele>
        <time>2013-04-10T17:11:56.000Z</time>
      </trkpt>
      <trkpt lon="7.01264594681561" lat="46.246047941967845">
        <ele>432.6000061035156</ele>
        <time>2013-04-10T17:11:59.000Z</time>
      </trkpt>
      <trkpt lon="7.01264594681561" lat="46.246047941967845">
        <ele>432.6000061035156</ele>
        <time>2013-04-10T17:12:04.000Z</time>
      </trkpt>
      <trkpt lon="7.01264594681561" lat="46.246047941967845">
        <ele>432.6000061035156</ele>
        <time>2013-04-10T17:12:06.000Z</time>
      </trkpt>
    </trkseg>
  </trk>
</gpx>
